[[{"header":{"parameterUnit":"m.s-1","parameterCategory":1,"la1":30.6,"la2":28.766,"lo1":-90.7593,"lo2":-88.6598,"dy":0.0162,"dx":0.0183,"nx":116,"ny":114,"refTime":"2023-04-26T18:00:00:Z","depth":0,"parameterNumber":2,"parameterNumberName":"U-component_of_WINDS"},"data":[0.0,0.0,0.0,0.0,0.0,0.0,0.0,0.0,0.0,0.0,0.0,0.0,0.0,0.0,0.0,0.0,0.0,0.0,0.0,0.0,0.0,0.0,0.0,0.0,0.0,0.0,0.0,0.0,0.0,0.0,0.0,0.0,0.0,0.0,0.0,0.0,0.0,0.0,0.0,0.0,0.0,0.0,0.0,0.0,0.0,0.0,0.0,0.0,0.0,0.0,0.0,0.0,0.0,0.0,0.0,0.0,0.0,0.0,0.0,0.0,0.0,0.0,0.0,0.0,0.0,0.0,0.0,0.0,0.0,0.0,0.0,0.0,0.0,0.0,0.0,0.0,0.0,0.0,0.0,0.0,0.0,0.0,0.0,0.0,0.0,0.0,0.0,0.0,0.0,0.0,0.0,0.0,0.0,0.0,0.0,0.0,0.0,0.0,0.0,0.0,0.0,0.0,0.0,0.0,0.0,0.0,0.0,0.0,0.0,0.0,0.0,0.0,0.0,0.0,0.0,0.0,0.0,0.0,0.0,0.0,0.0,0.0,0.0,0.0,0.0,0.0,0.0,0.0,0.0,0.0,0.0,0.0,0.0,0.0,0.0,0.0,0.0,0.0,0.0,0.0,0.0,0.0,0.0,0.0,0.0,0.0,0.0,0.0,0.0,0.0,0.0,0.0,0.0,0.0,0.0,0.0,0.0,0.0,0.0,0.0,0.0,0.0,0.0,0.0,0.0,0.0,0.0,0.0,0.0,0.0,0.0,0.0,0.0,0.0,0.0,0.0,0.0,0.0,0.0,0.0,0.0,0.0,0.0,0.0,0.0,0.0,0.0,0.0,0.0,0.0,0.0,0.0,0.0,0.0,0.0,0.0,0.0,0.0,0.0,0.0,0.0,0.0,0.0,0.0,0.0,0.0,0.0,0.0,0.0,0.0,0.0,0.0,0.0,0.0,0.0,0.0,0.0,0.0,0.0,0.0,0.0,0.0,0.0,0.0,0.0,0.0,0.0,0.0,0.0,0.0,0.0,0.0,0.0,0.0,0.0,0.0,0.0,0.0,0.0,0.0,0.0,0.0,0.0,0.0,0.0,0.0,0.0,0.0,0.0,0.0,0.0,0.0,0.0,0.0,0.0,0.0,0.0,0.0,0.0,0.0,0.0,0.0,0.0,0.0,0.0,0.0,0.0,0.0,0.0,0.0,0.0,0.0,0.0,0.0,0.0,0.0,0.0,0.0,0.0,0.0,0.0,0.0,0.0,0.0,0.0,0.0,0.0,0.0,0.0,0.0,0.0,0.0,0.0,0.0,0.0,0.0,0.0,0.0,0.0,0.0,0.0,0.0,0.0,0.0,0.0,0.0,0.0,0.0,0.0,0.0,0.0,0.0,0.0,0.0,0.0,0.0,0.0,0.0,0.0,0.0,0.0,0.0,0.0,0.0,0.0,0.0,0.0,0.0,0.0,0.0,0.0,0.0,0.0,0.0,0.0,0.0,0.0,0.0,0.0,0.0,0.0,0.0,0.0,0.0,0.0,0.0,0.0,0.0,0.0,0.0,0.0,0.0,0.0,0.0,0.0,0.0,0.0,0.0,0.0,0.0,0.0,0.0,0.0,0.0,0.0,0.0,0.0,0.0,0.0,0.0,0.0,0.0,0.0,0.0,0.0,0.0,0.0,0.0,0.0,0.0,0.0,0.0,0.0,0.0,0.0,0.0,0.0,0.0,0.0,0.0,0.0,0.0,0.0,0.0,0.0,0.0,0.0,0.0,0.0,0.0,0.0,0.0,0.0,0.0,0.0,0.0,0.0,0.0,0.0,0.0,0.0,0.0,0.0,0.0,0.0,0.0,0.0,0.0,0.0,0.0,0.0,0.0,0.0,0.0,0.0,0.0,0.0,0.0,0.0,0.0,0.0,0.0,0.0,0.0,0.0,0.0,0.0,0.0,0.0,0.0,0.0,0.0,0.0,0.0,0.0,0.0,0.0,0.0,0.0,0.0,0.0,0.0,0.0,0.0,0.0,0.0,0.0,0.0,0.0,0.0,0.0,0.0,0.0,0.0,0.0,0.0,0.0,0.0,0.0,0.0,0.0,0.0,0.0,0.0,0.0,0.0,0.0,0.0,0.0,0.0,0.0,0.0,0.0,0.0,0.0,0.0,0.0,0.0,0.0,0.0,0.0,0.0,0.0,0.0,0.0,0.0,0.0,0.0,0.0,0.0,0.0,0.0,0.0,0.0,0.0,0.0,0.0,0.0,0.0,0.0,0.0,0.0,0.0,0.0,0.0,0.0,0.0,0.0,0.0,0.0,0.0,0.0,0.0,0.0,0.0,0.0,0.0,0.0,0.0,0.0,0.0,0.0,0.0,0.0,0.0,0.0,0.0,0.0,0.0,0.0,0.0,0.0,0.0,0.0,0.0,0.0,0.0,0.0,0.0,0.0,0.0,0.0,0.0,0.0,0.0,0.0,0.0,0.0,0.0,0.0,0.0,0.0,0.0,0.0,0.0,0.0,0.0,0.0,0.0,0.0,0.0,0.0,0.0,0.0,0.0,0.0,0.0,0.0,0.0,0.0,0.0,0.0,0.0,0.0,0.0,0.0,0.0,0.0,0.0,0.0,0.0,0.0,0.0,0.0,0.0,0.0,0.0,0.0,0.0,0.0,0.0,0.0,0.0,0.0,0.0,0.0,0.0,0.0,0.0,0.0,0.0,0.0,0.0,0.0,0.0,0.0,0.0,0.0,0.0,0.0,0.0,0.0,0.0,0.0,0.0,0.0,0.0,0.0,0.0,0.0,0.0,0.0,0.0,0.0,0.0,0.0,0.0,0.0,0.0,0.0,0.0,0.0,0.0,0.0,0.0,0.0,0.0,0.0,0.0,0.0,0.0,0.0,0.0,0.0,0.0,0.0,0.0,0.0,0.0,0.0,0.0,0.0,0.0,0.0,0.0,0.0,0.0,0.0,0.0,0.0,0.0,0.0,0.0,0.0,0.0,0.0,0.0,0.0,0.0,0.0,0.0,0.0,0.0,0.0,0.0,0.0,0.0,0.0,0.0,0.0,0.0,0.0,0.0,0.0,0.0,0.0,0.0,0.0,0.0,0.0,0.0,0.0,0.0,0.0,0.0,0.0,0.0,0.0,0.0,0.0,0.0,0.0,0.0,0.0,0.0,0.0,0.0,0.0,0.0,0.0,0.0,0.0,0.0,0.0,0.0,0.0,0.0,0.0,0.0,0.0,0.0,0.0,0.0,0.0,0.0,0.0,0.0,0.0,0.0,0.0,0.0,0.0,0.0,0.0,0.0,0.0,0.0,0.0,0.0,0.0,0.0,0.0,0.0,0.0,0.0,0.0,0.0,0.0,0.0,0.0,0.0,0.0,0.0,0.0,0.0,0.0,0.0,0.0,0.0,0.0,0.0,0.0,0.0,0.0,0.0,0.0,0.0,0.0,0.0,0.0,0.0,0.0,0.0,0.0,0.0,0.0,0.0,0.0,0.0,0.0,0.0,0.0,0.0,0.0,0.0,0.0,0.0,0.0,0.0,0.0,0.0,0.0,0.0,0.0,0.0,0.0,0.0,0.0,0.0,0.0,0.0,0.0,0.0,0.0,0.0,0.0,0.0,0.0,0.0,0.0,0.0,0.0,0.0,0.0,0.0,0.0,0.0,0.0,0.0,0.0,0.0,0.0,0.0,0.0,0.0,0.0,0.0,0.0,0.0,0.0,0.0,0.0,0.0,0.0,0.0,0.0,0.0,0.0,0.0,0.0,0.0,0.0,0.0,0.0,0.0,0.0,0.0,0.0,0.0,0.0,0.0,0.0,0.0,0.0,0.0,0.0,0.0,0.0,0.0,0.0,0.0,0.0,0.0,0.0,0.0,0.0,0.0,0.0,0.0,0.0,0.0,0.0,0.0,0.0,0.0,0.0,0.0,0.0,0.0,0.0,0.0,0.0,0.0,0.0,0.0,0.0,0.0,0.0,0.0,0.0,0.0,0.0,0.0,0.0,0.0,0.0,0.0,0.0,0.0,0.0,0.0,0.0,0.0,0.0,0.0,0.0,0.0,0.0,0.0,0.0,0.0,0.0,0.0,0.0,0.0,0.0,0.0,0.0,0.0,0.0,0.0,0.0,0.0,0.0,0.0,0.0,0.0,0.0,0.0,0.0,0.0,0.0,0.0,0.0,0.0,0.0,0.0,0.0,0.0,0.0,0.0,0.0,0.0,0.0,0.0,0.0,0.0,0.0,0.0,0.0,0.0,0.0,0.0,0.0,0.0,0.0,0.0,0.0,0.0,0.0,0.0,0.0,0.0,0.0,0.0,0.0,0.0,0.0,0.0,0.0,0.0,0.0,0.0,0.0,0.0,0.0,0.0,0.0,0.0,0.0,0.0,0.0,0.0,0.0,0.0,0.0,0.0,0.0,0.0,0.0,0.0,0.0,0.0,0.0,0.0,0.0,0.0,0.0,0.0,0.0,0.0,0.0,0.0,0.0,0.0,0.0,0.0,0.0,0.0,0.0,0.0,0.0,0.0,0.0,0.0,0.0,0.0,0.0,0.0,0.0,0.0,0.0,0.0,0.0,0.0,0.0,0.0,0.0,0.0,0.0,0.0,0.0,0.0,0.0,0.0,0.0,0.0,0.0,0.0,0.0,0.0,0.0,0.0,0.0,0.0,0.0,0.0,0.0,0.0,0.0,0.0,0.0,0.0,0.0,0.0,0.0,0.0,0.0,0.0,0.0,0.0,0.0,0.0,0.0,0.0,0.0,0.0,0.0,0.0,0.0,0.0,0.0,0.0,0.0,0.0,0.0,0.0,0.0,0.0,0.0,0.0,0.0,0.0,0.0,0.0,0.0,0.0,0.0,0.0,0.0,0.0,0.0,0.0,0.0,0.0,0.0,0.0,0.0,0.0,0.0,0.0,0.0,0.0,0.0,0.0,0.0,0.0,0.0,0.0,0.0,0.0,0.0,0.0,0.0,0.0,0.0,0.0,0.0,0.0,0.0,0.0,0.0,0.0,0.0,0.0,0.0,0.0,0.0,0.0,0.0,0.0,0.0,0.0,0.0,0.0,0.0,0.0,0.0,0.0,0.0,0.0,0.0,0.0,0.0,0.0,0.0,0.0,0.0,0.0,0.0,0.0,0.0,0.0,0.0,0.0,0.0,0.0,0.0,0.0,0.0,0.0,0.0,0.0,0.0,0.0,0.0,0.0,0.0,0.0,0.0,0.0,0.0,0.0,0.0,0.0,0.0,0.0,0.0,0.0,0.0,0.0,0.0,0.0,0.0,0.0,0.0,0.0,0.0,0.0,0.0,0.0,0.0,0.0,0.0,0.0,0.0,0.0,0.0,0.0,0.0,0.0,0.0,0.0,0.0,0.0,0.0,0.0,0.0,0.0,0.0,0.0,0.0,0.0,0.0,0.0,0.0,0.0,0.0,0.0,0.0,0.0,0.0,0.0,0.0,0.0,0.0,0.0,0.0,0.0,0.0,0.0,0.0,0.0,0.0,0.0,0.0,0.0,0.0,0.0,0.0,0.0,0.0,0.0,0.0,0.0,0.0,0.0,0.0,0.0,0.0,0.0,0.0,0.0,0.0,0.0,0.0,0.0,0.0,0.0,0.0,0.0,0.0,0.0,0.0,0.0,0.0,0.0,0.0,0.0,0.0,0.0,0.0,0.0,0.0,0.0,0.0,0.0,0.0,0.0,0.0,0.0,0.0,0.0,0.0,0.0,0.0,0.0,0.0,0.0,0.0,0.0,0.0,0.0,0.0,0.0,0.0,0.0,0.0,0.0,0.0,0.0,0.0,0.0,0.0,0.0,0.0,0.0,0.0,0.0,0.0,0.0,0.0,0.0,0.0,0.0,0.0,0.0,0.0,0.0,0.0,0.0,0.0,0.0,0.0,0.0,0.0,0.0,0.0,0.0,0.0,0.0,0.0,0.0,0.0,0.0,0.0,0.0,0.0,0.0,0.0,0.0,0.0,0.0,0.0,0.0,0.0,0.0,0.0,0.0,0.0,0.0,0.0,0.0,0.0,0.0,0.0,0.0,0.0,0.0,0.0,0.0,0.0,0.0,0.0,0.0,0.0,0.0,0.0,0.0,0.0,-3.9203,-4.1113,0.0,0.0,0.0,0.0,0.0,0.0,0.0,0.0,0.0,0.0,0.0,0.0,0.0,0.0,0.0,0.0,0.0,0.0,0.0,0.0,0.0,0.0,0.0,0.0,0.0,0.0,0.0,0.0,0.0,0.0,0.0,0.0,0.0,0.0,0.0,0.0,0.0,-3.622,-3.4972,-3.2456,-2.8846,-3.0043,-3.1958,-3.448,0.0,0.0,0.0,0.0,0.0,0.0,0.0,0.0,0.0,0.0,0.0,0.0,0.0,0.0,0.0,0.0,0.0,0.0,0.0,0.0,0.0,0.0,0.0,0.0,0.0,0.0,0.0,0.0,0.0,0.0,0.0,0.0,0.0,0.0,0.0,0.0,0.0,0.0,0.0,0.0,0.0,0.0,0.0,0.0,0.0,0.0,0.0,0.0,0.0,0.0,0.0,0.0,0.0,0.0,0.0,0.0,0.0,0.0,0.0,0.0,0.0,0.0,0.0,0.0,0.0,0.0,0.0,0.0,0.0,0.0,-4.0092,-4.0708,0.0,0.0,0.0,0.0,0.0,0.0,0.0,0.0,0.0,0.0,0.0,0.0,0.0,0.0,0.0,0.0,0.0,0.0,0.0,0.0,0.0,0.0,0.0,-3.3538,-3.3904,-3.4063,-3.4866,-3.5679,0.0,0.0,0.0,0.0,0.0,0.0,0.0,-3.7077,-3.6058,-3.5099,-3.2514,-2.8993,-2.4682,-2.4525,-2.6518,-3.0337,-3.3866,0.0,0.0,0.0,0.0,0.0,0.0,0.0,0.0,0.0,0.0,0.0,0.0,0.0,0.0,0.0,0.0,0.0,0.0,0.0,0.0,0.0,0.0,0.0,0.0,0.0,0.0,0.0,0.0,0.0,0.0,0.0,0.0,0.0,0.0,0.0,0.0,0.0,0.0,0.0,0.0,0.0,0.0,0.0,0.0,0.0,0.0,0.0,0.0,0.0,0.0,0.0,0.0,0.0,0.0,0.0,0.0,0.0,0.0,0.0,0.0,0.0,0.0,0.0,-4.3316,-4.3725,-4.3041,-4.4246,-4.3041,-4.0042,-4.103,-4.007,-3.815,-4.2355,0.0,0.0,0.0,0.0,0.0,0.0,0.0,0.0,0.0,0.0,0.0,0.0,0.0,0.0,0.0,0.0,0.0,0.0,0.0,0.0,0.0,-3.2762,-3.3166,-3.4027,-3.422,-3.4629,-3.5344,0.0,0.0,0.0,0.0,0.0,-3.6822,-3.621,-3.5239,-3.3833,-2.8297,-2.4005,-2.1032,-2.1857,-2.0943,-1.8909,-2.3501,-2.8065,-3.2179,0.0,0.0,0.0,0.0,0.0,0.0,0.0,0.0,0.0,0.0,0.0,0.0,0.0,0.0,0.0,0.0,0.0,0.0,0.0,0.0,0.0,0.0,0.0,0.0,0.0,0.0,0.0,0.0,0.0,0.0,0.0,0.0,0.0,0.0,0.0,0.0,0.0,0.0,0.0,0.0,0.0,-3.6771,-3.6827,0.0,0.0,0.0,0.0,0.0,0.0,0.0,0.0,0.0,0.0,0.0,0.0,0.0,-4.395,-4.3853,-4.3594,-4.352,-4.3518,-4.4031,-4.3417,-4.1952,-4.2709,-4.2213,-4.0739,-4.0274,0.0,-3.9495,-3.9722,0.0,0.0,0.0,0.0,0.0,0.0,0.0,0.0,0.0,0.0,0.0,0.0,0.0,0.0,0.0,0.0,0.0,0.0,0.0,0.0,0.0,-3.1979,-3.2029,-3.2137,-3.2561,-3.335,-3.4498,-3.5239,0.0,0.0,0.0,-3.639,-3.6158,-3.4751,-3.2551,-2.9626,-2.4707,-2.045,-1.6862,-1.5682,-1.3335,-1.0096,-1.2182,-1.7856,-2.5744,-2.5323,0.0,0.0,0.0,0.0,0.0,0.0,0.0,0.0,0.0,0.0,0.0,0.0,0.0,0.0,0.0,0.0,0.0,0.0,0.0,0.0,0.0,0.0,0.0,0.0,0.0,0.0,0.0,0.0,0.0,0.0,0.0,0.0,0.0,0.0,0.0,0.0,0.0,0.0,0.0,-3.756,-3.8662,-3.8352,-4.0962,-4.2931,0.0,0.0,0.0,0.0,0.0,0.0,0.0,0.0,0.0,-4.2094,-4.3723,-4.4184,-4.3317,-4.3702,-4.4151,-4.4614,-4.5774,-4.5824,-4.4893,-4.5121,-4.4489,-4.3249,-4.1776,-4.1138,-4.1156,-4.1709,-4.2188,-4.243,0.0,0.0,0.0,0.0,-3.8914,-3.9131,0.0,0.0,0.0,0.0,0.0,0.0,0.0,0.0,0.0,0.0,0.0,0.0,-3.0922,-3.0473,-3.0123,-3.0006,-3.0407,-3.119,-3.2524,-3.3427,-3.4132,-3.4645,-3.5347,-3.5406,-3.4802,-3.2599,-2.9353,-2.5038,-2.1445,-1.7418,-1.3145,-1.0622,-0.7392,-0.353,-0.3544,-0.9333,-1.9105,-1.9244,-2.2615,-2.7952,0.0,0.0,0.0,0.0,0.0,0.0,0.0,0.0,0.0,0.0,0.0,0.0,0.0,0.0,0.0,0.0,0.0,0.0,0.0,0.0,0.0,0.0,0.0,0.0,0.0,0.0,0.0,0.0,0.0,0.0,0.0,0.0,0.0,0.0,0.0,0.0,0.0,-3.8241,-3.9619,-3.949,-4.16,-4.3349,0.0,0.0,0.0,0.0,0.0,0.0,-4.2281,-4.3849,-4.4319,-4.3395,-4.4785,-4.497,-4.3671,-4.503,-4.5907,-4.6321,-4.8293,-4.9022,-4.856,-4.8266,-4.7616,-4.6594,-4.4622,-4.3887,-4.4165,-4.3862,-4.3264,-4.2401,-4.2812,-4.2208,-4.0977,-3.9612,-3.9577,-3.9955,0.0,0.0,0.0,0.0,0.0,0.0,0.0,0.0,0.0,0.0,0.0,-2.8933,-2.9463,-2.7739,-2.7025,-2.8227,-2.7664,-2.7609,-2.8457,-2.866,-2.8902,-2.9202,-3.115,-3.2167,-3.2025,-2.9663,-2.5962,-2.0966,-1.8459,-1.4848,-1.0392,-0.8817,-0.5182,0.0139,0.0141,-0.4795,-1.3183,-1.4028,-1.7407,-2.2664,-2.7653,0.0,0.0,0.0,0.0,0.0,0.0,0.0,0.0,0.0,0.0,0.0,0.0,0.0,0.0,0.0,0.0,0.0,0.0,0.0,0.0,0.0,0.0,0.0,0.0,0.0,0.0,0.0,0.0,0.0,0.0,0.0,0.0,0.0,0.0,0.0,0.0,0.0,0.0,-3.8241,-4.0118,0.0,0.0,0.0,0.0,-4.2997,-4.3444,-4.3691,-4.3882,-4.4924,-4.547,-4.5355,-4.6935,-4.773,-4.7606,-4.9767,-5.0326,-4.9282,-5.1649,-5.2421,-5.1863,-5.1206,-5.0845,-5.0685,-4.8826,-4.8649,-4.9402,-4.445,-4.3296,-4.4777,-4.547,-4.5837,-4.583,-4.3775,-4.1902,-4.0074,0.0,0.0,0.0,0.0,0.0,0.0,0.0,0.0,-2.975,-2.6985,-2.8141,-2.8284,-2.5913,-2.611,-2.6527,-2.6751,-2.6698,-2.6954,-2.7704,-2.7753,-2.8444,-3.0086,-2.9485,-2.8589,-2.7425,-2.4456,-2.1428,-1.8316,-1.4469,-1.0078,-0.5125,-0.3439,-0.0211,0.4006,0.4131,0.1714,-0.2617,-0.3958,-0.93,-1.696,-1.8814,-2.32,0.0,0.0,0.0,0.0,0.0,0.0,0.0,0.0,0.0,0.0,0.0,0.0,0.0,0.0,0.0,0.0,0.0,0.0,0.0,0.0,0.0,0.0,0.0,0.0,0.0,0.0,0.0,0.0,0.0,0.0,0.0,0.0,0.0,0.0,0.0,0.0,0.0,-4.0489,-4.2039,0.0,-4.4152,-4.3301,-4.3326,-4.4753,-4.3916,-4.3912,-4.5376,-4.7231,-4.8204,-4.8121,-5.1163,-5.2253,-5.1064,-5.2895,-5.3732,-5.3584,-5.4396,-5.4773,-5.4724,-5.3466,-5.2699,-5.2191,-5.0191,-4.9621,-4.9904,-4.8516,-4.7663,-4.7248,-4.7457,-4.6957,-4.5921,-4.5108,-4.4359,-4.3609,0.0,0.0,0.0,0.0,0.0,0.0,0.0,0.0,-2.9467,-2.5359,-2.6446,-2.6463,-2.3354,-2.3624,-2.422,-2.4726,-2.4792,-2.5165,-2.6006,-2.6621,-2.7766,-2.9671,-2.7719,-2.5594,-2.3448,-2.071,-1.7841,-1.478,-1.1279,-0.7103,-0.246,0.0141,0.2668,0.5049,0.5951,0.5121,0.3031,0.1949,-0.3003,-1.0335,-1.2935,-1.7785,-2.3816,0.0,0.0,0.0,0.0,0.0,0.0,0.0,0.0,0.0,0.0,0.0,0.0,0.0,0.0,0.0,0.0,0.0,0.0,0.0,0.0,0.0,0.0,0.0,0.0,0.0,0.0,0.0,0.0,0.0,0.0,0.0,0.0,0.0,0.0,-4.0407,-4.1556,-4.3665,-4.4244,-4.5044,-4.6448,-4.5641,-4.5633,-4.7082,-4.6816,-4.7435,-4.9307,-5.099,-5.1903,-5.1814,-5.4534,-5.5258,-5.3619,-5.527,-5.6072,-5.6131,-5.6459,-5.6643,-5.6795,-5.5319,-5.4457,-5.3967,-5.2378,-5.1693,-5.1718,-5.223,-5.1812,-5.071,-5.0271,-4.9077,-4.7567,-4.7468,-4.7057,-4.6378,0.0,0.0,0.0,0.0,0.0,0.0,0.0,-3.05,-2.9836,-2.5394,-2.4401,-2.3478,-2.1836,-2.0244,-2.0166,-2.2217,-2.1897,-2.2093,-2.3266,-2.495,-2.629,-2.7249,-2.5615,-2.3178,-2.0027,-1.8479,-1.532,-1.0335,-0.8812,-0.6252,-0.2521,0.1294,0.315,0.3267,0.5398,0.5075,0.3077,0.3116,0.0955,-0.3117,-1.0692,-1.358,-1.454,0.0,0.0,0.0,0.0,0.0,0.0,0.0,0.0,0.0,0.0,0.0,0.0,0.0,0.0,0.0,0.0,0.0,0.0,0.0,0.0,0.0,0.0,0.0,0.0,0.0,0.0,0.0,0.0,0.0,0.0,0.0,0.0,0.0,-4.2127,-4.3026,-4.4769,-4.7518,-4.662,-4.629,-4.7619,-4.8468,-4.9227,-4.9839,-5.2318,-5.4321,-5.5455,-5.6066,-5.6365,-5.6265,-5.6851,-5.6547,-5.5298,-5.6872,-5.7369,-5.6764,-5.771,-5.8141,-5.8052,-5.6765,-5.6248,-5.6107,-5.5478,-5.5209,-5.5179,-5.5209,-5.5209,-5.5059,-5.3743,-5.2437,-5.1164,-5.1135,-5.0018,-4.812,0.0,0.0,0.0,0.0,0.0,0.0,-2.9431,-3.0556,-2.8939,-2.1879,-2.4314,-2.4637,-1.9063,-2.0672,-2.2428,-2.3004,-2.2138,-2.251,-2.4727,-2.3867,-2.2975,-2.2446,-2.0426,-1.7891,-1.4923,-1.4213,-1.2227,-0.8812,-0.7144,-0.4379,-0.0708,0.1911,0.3816,0.5256,0.6002,0.5136,0.3115,0.3077,0.1664,-0.1106,-0.5971,-1.0378,-1.4318,0.0,0.0,0.0,0.0,0.0,0.0,0.0,0.0,0.0,0.0,0.0,0.0,0.0,0.0,0.0,0.0,0.0,0.0,0.0,0.0,0.0,0.0,0.0,0.0,0.0,0.0,0.0,0.0,0.0,0.0,0.0,-4.5528,-4.6947,-4.5968,-4.7389,-4.9271,-5.1285,-5.1893,-5.2334,-5.2697,-5.2853,-5.301,-5.3175,-5.4272,-5.5225,-5.5966,-5.7309,-5.7878,-5.7543,-5.9121,-5.9219,-5.7615,-5.8806,-5.9092,-5.844,-5.8673,-5.8321,-5.7363,-5.7004,-5.6346,-5.5478,-5.5777,-5.5628,-5.5239,-5.5718,-5.5628,-5.5149,-5.479,-5.4142,-5.3287,-5.2833,-5.167,-5.026,0.0,0.0,0.0,0.0,0.0,0.0,-2.9909,-3.0835,-2.8971,-2.1785,-2.4225,-2.4388,-1.85,-2.0207,-2.2048,-2.2711,-2.2763,-2.355,-2.5319,-2.4368,-2.2254,-1.8796,-1.6742,-1.4055,-1.0571,-0.9888,-0.8793,-0.7194,-0.6158,-0.4602,-0.2457,-0.0371,0.0679,0.091,0.1931,0.117,-0.0859,-0.0936,-0.1088,-0.1469,-0.3557,-0.5453,-0.691,-0.6048,-0.4365,-0.2558,-0.4262,-0.934,-1.5704,-1.8418,0.0,0.0,0.0,0.0,0.0,0.0,0.0,0.0,0.0,0.0,0.0,0.0,0.0,0.0,0.0,0.0,0.0,0.0,0.0,0.0,0.0,0.0,0.0,0.0,-5.0412,-5.2779,-5.2684,-5.2122,-5.2323,-5.3793,-5.454,-5.5067,-5.5285,-5.61,-5.6766,-5.7139,-5.8512,-5.9632,-6.0312,-6.0687,-6.0668,-6.0091,-6.1017,-6.0743,-5.9185,-5.9793,-5.9757,-5.9099,-5.9099,-5.856,-5.7513,-5.7244,-5.6555,-5.5598,-5.5718,-5.5718,-5.5598,-5.5718,-5.5688,-5.5568,0.0,0.0,0.0,0.0,-5.2785,-5.1528,0.0,0.0,0.0,0.0,0.0,0.0,-3.0468,-3.1077,-2.9351,-2.3389,-2.4176,-2.3537,-1.8976,-1.9346,-2.0535,-2.2093,-2.3552,-2.4587,-2.5028,-2.4872,-2.2077,-1.6078,-1.3695,-1.0739,-0.6881,-0.5994,-0.571,-0.5773,-0.5783,-0.5998,-0.6286,-0.4257,-0.4389,-0.6222,-0.4338,-0.452,-0.6339,-0.6411,-0.5331,-0.3427,-0.2732,0.0233,0.4109,0.4365,0.6894,0.9334,0.137,-0.5023,-1.0992,-1.9184,0.0,0.0,0.0,0.0,0.0,0.0,0.0,0.0,0.0,0.0,0.0,0.0,0.0,0.0,0.0,0.0,0.0,0.0,0.0,0.0,0.0,0.0,0.0,0.0,-5.61,-5.9164,-6.0496,-5.7473,-5.542,-5.6195,-5.6398,-5.6714,-5.7161,-5.8943,-6.0398,-6.111,-6.3526,-6.5158,-6.5727,-6.4664,0.0,0.0,0.0,-6.1433,-6.0326,-6.0236,-5.9877,-5.9219,-5.9219,-5.883,-5.8112,-5.7423,-5.6765,-5.6188,-5.5568,-5.5628,-5.6188,-5.5538,-5.5598,-5.5987,-5.5329,-5.5089,-5.4999,-5.4251,-5.3234,-5.2097,0.0,0.0,0.0,0.0,0.0,0.0,-2.9725,-3.0288,-2.8469,-2.2231,-2.4186,-2.3891,-1.7965,-2.0095,-2.2421,-2.3606,-2.4148,-2.4212,-2.3717,-2.003,-1.6706,-1.4137,-0.9329,-0.5757,-0.3667,-0.5008,-0.576,-0.5773,-0.5903,-0.6786,-0.8283,-0.6502,-0.5892,-0.6298,-0.5829,-0.5939,-0.6339,-0.6411,-0.628,-0.5575,-0.211,0.3231,0.9445,1.2731,1.4677,1.5365,1.3489,0.1948,-1.3278,-1.9209,-3.0489,-4.242,-4.4418,-4.4011,0.0,0.0,0.0,0.0,0.0,0.0,0.0,0.0,0.0,0.0,0.0,0.0,0.0,0.0,0.0,0.0,0.0,0.0,0.0,-5.6717,-6.0262,-6.303,-6.4058,-6.3956,-6.3431,-6.2427,-6.3348,-6.3818,-6.3246,-6.3166,-6.3204,-6.3362,-6.4434,-6.4647,-6.3672,-6.3938,-6.3763,-6.3086,-6.1931,-6.1433,-6.1702,-6.1194,-6.0565,-5.9907,-5.9907,0.0,-5.8112,-5.7423,-5.6765,-5.6218,-5.6047,-5.6098,-5.6218,-5.6047,-5.5748,-5.5329,-5.467,-5.4401,-5.4251,-5.3025,-5.2426,-5.2097,0.0,0.0,0.0,0.0,0.0,0.0,-2.9994,-3.0682,-2.9692,-2.5593,-2.7128,-2.6909,-2.248,-2.3668,-2.4985,-2.5353,-2.5189,-2.4128,-2.2015,-1.8067,-1.3825,-0.9513,-0.5822,-0.3079,-0.1373,-0.3408,-0.489,-0.5826,-0.7837,-0.99,-1.1985,-1.1071,-1.0672,-1.088,-0.9882,-0.9407,-0.9547,-0.966,-0.9807,-0.9602,-0.7355,-0.3815,0.0787,0.646,0.8518,0.7842,0.4263,-0.4177,-1.4866,-2.2557,-3.3624,-4.4527,-4.6477,-4.743,-4.7447,0.0,0.0,0.0,0.0,0.0,0.0,0.0,0.0,0.0,0.0,0.0,0.0,0.0,0.0,-4.8902,-5.1562,0.0,-5.8844,-6.1595,-6.4528,-6.6522,-6.6613,-6.7567,-6.7296,-6.4848,-6.5174,-6.529,-6.4505,-6.4432,-6.4764,-6.5478,-6.6111,-6.6532,-6.6598,-6.5612,-6.4988,-6.4615,-6.2971,-6.2091,-6.2091,-6.1762,-6.1104,-6.0086,-6.0086,-5.9398,-5.8112,-5.7423,-5.6765,-5.6166,-5.5837,-5.5867,-5.6218,-5.6218,-5.5777,-5.5149,-5.482,-5.4491,-5.4072,-5.3054,-5.2486,-5.2097,0.0,0.0,0.0,0.0,0.0,0.0,0.0,-3.107,-3.0734,-2.8933,-2.9639,-2.9322,-2.6737,-2.6893,-2.7249,-2.7384,-2.6569,-2.4655,-2.143,-1.7873,-1.2997,-0.6497,-0.4749,-0.3018,-0.1172,-0.3159,-0.5097,-0.6919,-1.0596,-1.3467,-1.5644,-1.5206,-1.5177,-1.5387,-1.345,-1.2617,-1.2745,-1.2922,-1.3279,-1.3746,-1.398,-1.4259,-1.4139,-0.9875,-0.6881,-0.5701,-1.1736,-1.6007,-2.0174,-2.8618,-3.7608,-4.5433,-4.6501,-4.922,-5.1216,-4.7478,-4.4887,0.0,0.0,0.0,0.0,0.0,0.0,0.0,0.0,0.0,-4.5848,-4.8309,-5.0757,-5.3549,-5.7245,-6.0495,-6.3441,-6.5933,-6.8132,-6.9334,-6.8798,-6.9568,-6.9109,-6.6241,-6.5724,-6.5336,-6.4624,-6.5102,-6.5955,-6.7194,-6.7913,-6.8789,-6.9749,-6.7832,-6.6465,-6.5905,-6.4347,-6.3066,-6.2301,-6.2151,-6.1493,-6.0266,-6.0146,-5.9458,-5.8291,-5.7483,-5.6825,-5.6316,-5.5658,-5.5598,-5.6038,-5.6188,-5.5777,-5.5179,-5.5179,-5.479,-5.4132,-5.3443,-5.2845,-5.2276,0.0,0.0,0.0,0.0,0.0,0.0,0.0,0.0,-2.9368,-2.7777,-2.8105,-2.747,-2.4798,-2.6272,-2.8112,-2.9735,-2.8515,-2.6518,-2.3879,-1.9502,-1.4983,-1.0436,-0.8868,-0.7239,-0.5385,-0.7189,-0.9143,-1.1076,-1.3471,-1.562,-1.754,-1.6139,-1.5421,-1.5395,-1.3489,-1.2712,-1.2745,-1.303,-1.4275,-1.6135,-1.7771,-2.3337,-3.1358,-3.7691,-3.2196,-2.1444,-2.3981,-2.9286,-3.5513,-3.8149,-4.3124,-4.8021,-4.7525,-5.0224,-5.2977,-5.0022,-4.5884,-4.195,-4.0689,-4.1961,-4.4276,-4.7013,-4.7463,-4.8403,0.0,0.0,-5.1998,-5.33,-5.6254,-5.9039,-6.0329,-6.3444,-6.6424,-6.8408,-7.0026,-7.103,-7.0963,-7.0512,-6.9803,-6.8796,-6.8011,-6.7305,-6.6565,-6.7165,-6.7656,-6.7824,-6.9137,-6.9435,-6.8399,-6.866,-6.7727,-6.5258,-6.4971,-6.4259,-6.3017,-6.2391,-6.1732,-6.0984,-6.0386,-5.9697,-5.8949,-5.7663,-5.7064,-5.6944,-5.6316,-5.5777,-5.5359,-5.5927,-5.5777,-5.5179,-5.5179,-5.479,-5.4132,-5.3443,-5.3144,-5.2905,0.0,0.0,0.0,0.0,0.0,0.0,0.0,0.0,0.0,-3.0193,-3.0253,-2.9847,-2.8655,-2.9508,-3.0249,-3.0514,-2.9531,-2.7825,-2.5318,-2.1446,-1.7695,-1.4079,-1.2362,-1.0765,-0.9174,-1.1138,-1.2552,-1.3202,-1.6481,-1.8619,-1.9576,-1.7655,-1.6983,-1.7141,-1.4049,-1.202,-1.0965,-1.2634,-1.3816,-1.5005,-1.9644,-2.7615,-3.7536,-4.5461,-4.592,-4.2378,-4.3008,-4.4246,0.0,-4.4053,-4.6424,-4.9828,-4.9542,-5.1327,-5.2796,-4.9416,-4.564,-4.264,-4.3138,-4.4819,-4.6838,-4.8632,-5.0555,-5.2384,-5.3725,-5.4758,-5.5851,-5.7395,-6.0242,-6.3023,-6.4682,-6.6963,-6.8965,-7.0174,-7.0906,-7.1142,-7.0737,-7.0026,-6.8944,-6.732,-6.7184,-6.732,-6.7421,-6.7726,-6.8267,-6.9147,-6.9823,-7.0142,-6.9934,-6.9467,-6.8355,-6.6417,-6.5544,-6.4813,-6.4265,-6.399,-6.3725,-6.3412,-6.2341,-6.1263,-6.0141,-5.803,-5.6705,-5.5987,-5.5718,-5.5448,-5.5209,-5.5478,-5.5448,-5.5179,-5.5179,-5.5029,-5.464,-5.3563,-5.2935,-5.2486,0.0,0.0,0.0,0.0,0.0,0.0,0.0,0.0,0.0,0.0,-3.1873,-3.1894,-3.1935,-3.2046,-3.1823,-3.1117,-3.0497,-2.9236,-2.7127,-2.4358,-2.1482,-1.8492,-1.6944,-1.5602,-1.4231,-1.623,-1.7278,-1.7238,-2.0251,-2.186,-2.2266,-1.917,-1.8033,-1.8265,-1.4408,-1.158,-0.9759,-1.2357,-1.3401,-1.3846,-1.9722,-2.7611,-3.6596,-4.4781,-4.9939,-5.3099,-5.5168,-5.3329,-4.9321,-4.5721,-4.6983,-4.9823,-4.884,-5.0356,-5.185,-4.8163,-4.4729,-4.2512,-4.4181,-4.6554,0.0,-5.0606,-5.4041,-5.6733,-5.5713,-5.7693,-6.007,-6.1129,-6.3734,-6.6339,-6.7929,-6.9485,-7.0669,-7.121,-7.1142,-7.0737,-6.9992,-6.9079,-6.7692,-6.5628,-6.5696,-6.6271,-6.7184,-6.7861,-6.8774,-7.0094,-7.0398,-7.0737,-7.1278,-7.0309,-6.9169,-6.7774,-6.6385,-6.5674,-6.5674,-6.4901,-6.4716,-6.5084,-6.3747,-6.2422,-6.1152,-5.8522,-5.6555,-5.5179,-5.5179,-5.5179,-5.5179,-5.5179,-5.5179,-5.5179,-5.5179,-5.5089,-5.479,-5.3623,-5.2875,-5.2336,0.0,0.0,0.0,0.0,0.0,0.0,0.0,0.0,0.0,0.0,0.0,0.0,0.0,-3.2424,-3.2119,-3.1967,-3.1712,-3.1032,-2.9843,-2.8512,-2.664,-2.4043,-2.3532,-2.2655,-2.1247,-2.3054,-2.4165,-2.4587,-2.4987,-2.5358,-2.5751,-2.0364,-1.7953,-1.7971,-1.4284,-1.1531,-0.9744,-1.2426,-1.3587,-1.3846,-1.7782,-2.2579,-2.8269,-3.7121,-4.2663,-4.6687,-5.5033,-5.3058,-4.5959,-4.2054,-4.4,-4.7348,-4.3619,-4.6418,-5.036,-4.6864,-4.3165,-4.0549,-4.2298,-4.5569,-4.9532,-5.3769,-5.8154,-6.1558,-6.2164,-6.4089,-6.5479,-6.4642,-6.688,-6.8977,-6.9045,-7.0263,-7.1278,-7.1312,-7.0703,-6.9958,-6.9248,-6.7827,-6.6305,-6.4816,-6.4038,-6.4174,-6.5628,-6.776,-6.9383,-7.0128,-7.0872,-7.1278,-7.1312,-7.1267,-7.0574,-6.9169,-6.7824,-6.7113,-6.7113,-6.4413,-6.3776,-6.5084,-6.3659,-6.2636,-6.1774,-5.9201,-5.6953,-5.5179,-5.5179,-5.5179,-5.5179,-5.5179,-5.5179,-5.5179,-5.5179,-5.479,-5.4162,-5.3443,-5.3174,-5.2965,0.0,0.0,0.0,0.0,0.0,0.0,0.0,0.0,0.0,0.0,0.0,0.0,0.0,0.0,0.0,0.0,-3.2505,-3.2421,-3.1658,-3.122,-3.0078,-2.8087,-2.7639,-2.6798,-2.5464,-2.5802,-2.6103,-2.6229,-2.6563,-2.6351,-2.5493,-2.254,-2.0074,-1.7951,-1.5531,-1.266,-0.9749,-1.2363,-1.1741,-0.9235,-1.2307,-1.9082,-2.7799,-3.2157,-3.8314,-4.5173,0.0,-5.0519,-4.8545,-4.3102,-4.3159,-4.5103,-4.276,-4.3493,-4.4735,-4.2339,-4.2677,-4.4195,-4.6039,-5.0771,-5.6006,-5.9476,-6.2996,-6.5686,-6.5893,-6.6815,-6.7236,-6.5852,-6.5192,-6.4761,-6.4251,-6.5406,-6.6561,-6.7037,-6.8836,-6.9925,-6.9214,-6.9079,-6.759,-6.3599,-6.4647,-6.5324,-6.4343,-6.5831,-6.776,-7.0026,-7.0432,-7.077,-7.1278,-7.1312,-7.062,-6.9265,-6.8748,-6.8552,-6.8552,-6.7085,-6.684,-6.7742,-6.5364,-6.321,-6.1197,-5.9986,-5.8313,-5.6378,-5.6003,-5.5598,-5.5179,-5.5179,-5.494,-5.4551,-5.4551,-5.4132,-5.3443,-5.2785,-5.2546,-5.2396,0.0,0.0,0.0,0.0,0.0,0.0,0.0,0.0,0.0,0.0,0.0,0.0,0.0,0.0,0.0,0.0,0.0,-3.309,-3.2789,-3.2421,-3.1669,-3.044,-2.9935,-2.9182,-2.8166,-2.8259,-2.8388,-2.8544,-2.8212,-2.7357,-2.6091,-2.3459,-2.0906,-1.8496,-1.6017,-1.3173,-1.0498,-1.4291,-1.3781,-1.073,-1.427,-2.016,-2.7216,-2.9736,-3.4765,0.0,-4.4324,-4.6798,-4.7787,-4.3513,-4.2825,-4.3586,-4.2856,-4.2489,-4.2216,-4.1906,-4.391,-4.7076,-5.0992,-5.5667,-6.0311,-6.3793,-6.6829,-6.8888,-6.853,-6.8949,-6.8781,-6.6459,-6.4098,-6.2206,-6.1448,-6.1636,-6.2165,-6.303,-6.4977,-6.6573,-6.715,-6.7184,-6.6159,-6.3497,-6.485,-6.5561,-6.441,-6.5121,-6.6948,-6.9958,-7.0432,-7.0804,-7.1278,-7.1312,-7.0882,-6.9996,-6.9457,-6.9409,-6.9949,-6.8451,-6.7862,-6.8267,-6.6186,-6.4056,-6.1938,-6.0646,-5.9058,-5.7315,-5.6295,-5.5598,-5.5179,-5.494,-5.4581,-5.4192,-5.3952,-5.3563,-5.3114,-5.2456,-5.2187,-5.2097,0.0,0.0,0.0,0.0,0.0,0.0,0.0,0.0,0.0,0.0,0.0,0.0,0.0,0.0,0.0,0.0,0.0,0.0,-3.3305,-3.2289,-3.1555,-3.1336,-3.0624,-3.0051,-2.9598,-3.0447,-3.1076,-3.1547,-2.996,-2.8739,-2.7786,-2.3572,-2.0979,-1.9728,-1.6539,-1.3969,-1.2402,-1.8194,-1.9451,-1.795,-2.2605,-2.5165,-2.6555,-2.9553,-3.2209,-3.4946,-3.9487,-4.2349,-4.3837,-4.3097,-4.2818,-4.2929,-4.3853,-4.3423,-4.3072,-4.56,-4.7021,-4.9392,-5.6721,-6.0088,-6.2553,-6.6873,-6.9706,-7.1157,-7.0196,-7.0477,-6.9973,-6.6483,-6.3443,-6.1114,-6.0178,-5.8978,-5.8523,-5.9665,-5.9896,-6.0941,-6.3874,-6.309,-6.2833,0.0,0.0,0.0,0.0,0.0,-6.7083,-6.9958,-7.0804,-7.1244,-7.1312,-7.1312,-7.1312,-7.1312,-6.9996,-6.9949,-7.1267,-6.8486,-6.7022,-6.6812,-6.6102,-6.5118,-6.3793,-6.1181,-5.93,-5.7983,-5.6053,-5.5209,-5.5089,-5.4461,-5.4162,-5.4042,-5.3384,-5.3114,-5.2995,-5.2336,-5.2097,-5.2007,0.0,0.0,0.0,0.0,0.0,0.0,0.0,0.0,0.0,0.0,0.0,0.0,0.0,0.0,0.0,0.0,0.0,0.0,-3.3372,-3.2887,-3.2296,-3.1762,-3.1896,-3.1662,-3.1015,-3.1458,-3.1743,-3.1867,-3.2476,-3.1987,-3.0452,-3.0395,-2.8747,-2.5749,-2.4926,-2.347,-2.185,-2.3378,-2.3107,-2.164,-2.1474,-2.5265,-3.0835,-2.9559,-3.3872,-4.068,-4.1276,-4.1661,-4.195,-4.1933,-4.2735,-4.4024,-4.5576,-4.6139,-4.6875,-5.0165,-5.3488,-5.71,-6.1751,-6.5807,-6.909,-7.0852,-7.2202,-7.2695,-7.1282,-7.012,-6.813,-6.389,-5.9298,-5.5174,-5.2295,-5.4065,-5.6675,-5.8808,-6.2859,0.0,-6.9354,-6.9218,0.0,-6.644,0.0,-6.759,-6.6609,-6.7557,-6.8774,-7.0094,-6.9857,-7.0161,-7.1244,-7.1312,-7.1312,-7.1312,-7.0961,-7.0961,-7.1312,-6.948,-6.7964,-6.6812,-6.6609,-6.5578,-6.377,-6.2169,-6.0202,-5.7948,-5.6567,-5.5359,-5.4431,-5.4281,-5.3623,-5.2695,-5.2516,-5.2157,-5.1648,-5.0943,-5.0704,-5.0674,0.0,0.0,0.0,0.0,0.0,0.0,0.0,0.0,0.0,0.0,0.0,0.0,0.0,0.0,0.0,0.0,0.0,0.0,0.0,-3.3283,-3.2762,-3.1872,-3.2171,-3.1978,-3.1229,-3.2118,-3.2571,-3.2571,-3.3788,-3.3602,-3.2106,-3.2643,-3.1388,-2.8723,-2.8019,-2.7104,-2.6162,-2.7714,-2.813,0.0,0.0,-3.2613,-3.7181,-3.5134,-3.7866,-4.2748,-4.1728,-4.2078,-4.3149,0.0,0.0,-4.614,-4.8294,-4.9766,-5.1505,-5.5672,0.0,-6.2331,-6.6809,-7.0161,-7.2459,-7.2899,-7.3377,-7.276,-6.9181,-6.7237,-6.4728,-5.9474,-5.4839,-5.0959,-4.8499,-5.0979,-5.4137,0.0,0.0,0.0,-7.0075,-6.9822,-6.9296,0.0,-6.9789,0.0,-6.9316,-7.006,-7.0737,-7.1109,-7.05,-7.0432,-7.1278,-7.1312,-7.1312,-7.1312,-7.1312,-7.1007,-7.0364,-6.9519,-6.8335,-6.6812,-6.6812,-6.6204,-6.5047,-6.2639,-6.0771,-5.9159,-5.6838,-5.5149,-5.4192,-5.3892,-5.3144,-5.2187,-5.1887,-5.1528,-5.1169,-5.0764,-5.0435,-5.0196,0.0,0.0,0.0,0.0,0.0,0.0,0.0,0.0,0.0,0.0,0.0,0.0,0.0,0.0,0.0,0.0,0.0,0.0,0.0,0.0,-3.2928,-3.1861,-3.2023,-3.1851,-3.1117,-3.2646,-3.3448,-3.3448,-3.4391,-3.4316,-3.3233,-3.276,-3.1798,-3.0487,-2.9126,-2.8421,-2.8436,-3.1552,-3.3366,-3.4666,-3.9009,-4.1675,-4.291,0.0,-4.2044,-4.2461,-4.1453,-4.2731,0.0,0.0,-4.8744,-4.9448,-5.2016,-5.4255,-5.6778,-6.1525,-6.3975,-6.6248,-7.1398,-7.3413,-7.4001,-7.3891,-7.3597,-7.1822,-6.5769,-6.3375,-6.0621,-5.4465,-5.059,-4.7955,-4.6965,-4.8942,-5.1582,-5.4269,0.0,-6.3422,-6.9289,-6.8646,-6.892,-7.2526,-7.2252,-7.1999,-7.2496,-7.2563,-7.2496,-7.2394,-7.1819,-7.1413,-7.1312,-7.1312,-7.1312,-7.1312,-7.1312,-7.0601,-6.9113,-6.9113,-6.8335,-6.6812,-6.6812,-6.6728,-6.6415,-6.2864,-6.1046,-6.0563,-5.6978,-5.491,-5.4012,-5.3443,-5.2725,-5.2007,-5.1439,-5.1229,-5.1199,-5.1109,-5.0614,-5.0076,0.0,0.0,0.0,0.0,0.0,0.0,0.0,0.0,0.0,0.0,-3.3778,-3.4572,0.0,0.0,0.0,0.0,0.0,0.0,0.0,0.0,0.0,-3.1831,-3.2628,-3.2976,-3.2706,-3.3733,-3.4285,-3.4285,-3.5244,-3.5304,-3.4588,-3.5364,-3.5455,-3.4974,-3.4638,-3.4624,-3.4885,-3.547,-3.6485,-3.781,-3.8687,-3.9873,-4.1068,-4.0884,0.0,0.0,-4.1081,0.0,0.0,-4.858,-5.2305,-5.5316,-5.802,-6.0516,-6.3148,-6.6682,-6.8834,-7.0702,-7.3678,-7.5065,-7.5506,-7.4882,-7.3193,-7.0291,-6.4703,-6.1154,0.0,0.0,-4.7884,-4.5736,-4.476,-4.6783,-5.0979,-5.8159,-6.1062,-6.5221,-7.3502,-7.3555,-7.2955,0.0,-7.4118,-7.4125,-7.3366,-7.3308,0.0,-7.2462,-7.2293,-7.1954,-7.1345,-7.1312,-7.1312,-7.1312,-7.1312,-7.0601,-6.9113,-6.9113,-6.8335,-6.6812,-6.6812,-6.6235,-6.5182,-6.3342,-6.1354,-5.9336,-5.7483,-5.5432,-5.3354,-5.3234,-5.2486,-5.1379,-5.1259,-5.1229,-5.1139,-5.0554,-5.0002,-4.9434,0.0,0.0,0.0,0.0,0.0,0.0,0.0,-3.1145,-3.1971,-3.2699,-3.3574,-3.425,-3.4545,-3.4609,-3.4678,0.0,0.0,0.0,0.0,0.0,0.0,0.0,-3.343,-3.3888,-3.3728,-3.5094,-3.5808,-3.5808,0.0,-3.6635,-3.6726,-3.6919,-3.689,-3.6614,-3.6568,-3.6331,-3.5949,-3.6308,-3.7095,-3.8109,-3.8444,-3.9483,-4.0798,0.0,0.0,0.0,0.0,0.0,0.0,0.0,-5.2019,-5.7168,-6.1116,-6.3685,-6.5951,-6.9191,-7.0961,-7.2395,-7.4835,-7.613,-7.6533,-7.5726,-7.3083,-6.8787,-6.1604,0.0,0.0,0.0,-4.4702,-4.4209,-4.3868,-4.6948,0.0,-5.6179,-5.939,-6.4089,-7.2051,-7.2442,-7.2746,-7.4973,-7.5492,-7.5411,-7.4734,-7.4289,-7.3781,-7.3037,-7.2631,-7.209,-7.1345,-7.1312,-7.1312,-7.1312,-7.0939,-7.0195,-6.9113,-6.8673,-6.7929,-6.6812,-6.6812,-6.628,-6.5263,-6.356,-6.1926,-6.033,-5.8013,-5.6101,-5.4561,-5.3585,-5.2606,-5.1708,-5.1349,-5.1229,-5.1169,-5.0823,-5.0331,-4.9733,0.0,0.0,0.0,0.0,0.0,0.0,0.0,-3.1078,-3.1826,-3.2832,-3.3495,-3.3978,-3.4154,-3.4404,-3.4517,0.0,0.0,0.0,0.0,0.0,0.0,0.0,0.0,0.0,0.0,0.0,0.0,-3.6995,-3.7124,0.0,0.0,0.0,0.0,0.0,-3.6853,-3.6423,-3.5713,-3.6288,-3.6934,0.0,0.0,-3.9167,0.0,0.0,0.0,0.0,0.0,0.0,0.0,0.0,-5.0356,-5.5861,-6.0358,-6.3665,-6.6378,-6.9164,-7.0896,-7.2436,-7.5111,-7.657,-7.709,-7.6313,-7.2826,-6.7423,-5.9102,-5.4177,0.0,-4.2931,-4.2122,-4.2846,-4.3593,-4.6754,-5.0179,0.0,-5.6268,-6.112,-6.9332,-6.9917,-7.123,0.0,-7.6349,0.0,-7.575,-7.5033,0.0,-7.3544,-7.2665,-7.1921,-7.1345,-7.1312,-7.1312,-7.1312,-7.0737,-6.9992,-6.9113,-6.847,-6.7692,-6.6812,-6.6812,-6.6406,-6.5662,-6.3942,-6.2623,-6.1564,-5.8919,-5.7213,-5.6232,-5.4348,-5.333,-5.2822,-5.1656,-5.1339,-5.1496,-5.1293,-5.072,-4.9942,0.0,0.0,0.0,0.0,0.0,0.0,0.0,-3.131,-3.1869,-3.3337,-3.3703,-3.3834,-3.386,-3.4117,-3.4427,0.0,0.0,0.0,0.0,0.0,0.0,0.0,0.0,0.0,0.0,0.0,0.0,-3.6995,-3.7011,0.0,0.0,0.0,0.0,0.0,0.0,-3.6222,-3.657,-3.6574,0.0,0.0,0.0,0.0,0.0,0.0,0.0,0.0,0.0,0.0,0.0,0.0,0.0,-5.0336,-5.3335,-5.8765,-6.4281,-6.5461,0.0,0.0,-7.4122,-7.6099,-7.709,-7.6313,-7.1982,-6.6153,-5.9358,0.0,-4.7777,-4.306,-4.1437,-4.1537,-4.3822,-4.3951,-4.5862,-5.2373,-5.2839,-5.6423,-6.8087,-6.8663,-7.0043,-7.5783,0.0,0.0,-7.575,-7.5033,-7.4289,-7.3544,-7.2191,-7.1379,-7.1312,-7.1312,-7.1312,-7.1312,-7.1244,-7.0534,-6.9113,-6.9045,-6.8267,-6.6812,-6.6812,-6.6406,-6.5662,-6.4836,-6.345,-6.165,-6.067,-5.9275,-5.7484,-5.5607,-5.5055,-5.511,-5.2292,-5.1865,-5.262,-5.1588,-5.0421,-4.9389,0.0,0.0,0.0,0.0,0.0,0.0,-3.1419,-3.1875,-3.247,-3.3579,-3.3657,-3.3671,-3.386,-3.3928,-3.4055,-3.4239,0.0,0.0,0.0,0.0,0.0,0.0,0.0,0.0,0.0,0.0,-3.772,-3.772,-3.7249,0.0,0.0,0.0,0.0,0.0,0.0,-3.5632,-3.5329,-3.6266,0.0,0.0,0.0,0.0,0.0,0.0,0.0,0.0,0.0,0.0,-4.1435,0.0,0.0,0.0,-4.7692,-5.1325,0.0,0.0,-6.552,-6.8426,-7.4068,-7.6827,-7.8002,-7.7671,-7.1509,-6.4186,-5.9324,0.0,-4.6163,-4.2565,-4.2261,-4.2917,-4.4102,-4.4001,-4.5111,-4.9125,-4.9251,-5.1721,-6.0052,-6.1757,-6.4323,-7.0278,-7.2126,0.0,0.0,0.0,-7.2969,-7.2225,-7.165,-7.1312,-7.1312,-7.1312,-7.1312,-7.1312,-7.0872,-7.0364,-6.9755,-6.8842,-6.8064,-6.7455,-6.6576,-6.5967,-6.5662,-6.4918,-6.393,-6.2706,-6.1715,-6.0185,-5.83,-5.6664,-5.5305,-5.4129,-5.3512,-5.2709,-5.188,-5.2154,-5.1486,-5.0391,0.0,0.0,0.0,0.0,0.0,-3.1184,-3.1943,-3.2367,-3.2915,-3.375,-3.3684,-3.3657,-3.3952,-3.4094,-3.4204,-3.4412,-3.4501,0.0,0.0,0.0,0.0,0.0,0.0,0.0,0.0,0.0,-3.8157,-3.8191,-3.7393,-3.7285,0.0,0.0,-3.6218,-3.6959,0.0,0.0,0.0,0.0,0.0,0.0,0.0,0.0,0.0,0.0,0.0,0.0,0.0,0.0,0.0,0.0,0.0,0.0,0.0,0.0,0.0,0.0,-6.2247,-6.6093,-7.2164,-7.5996,-7.8148,-7.7928,-7.093,-6.312,0.0,0.0,-4.5459,-4.2709,-4.2891,-4.3656,-4.403,-4.4093,-4.4697,-4.6578,-4.6698,-4.8684,-5.4787,-5.6523,0.0,0.0,0.0,-6.9514,-7.2089,-7.2417,-7.209,-7.1379,-7.1312,-7.1312,-7.1312,-7.1312,-7.1312,-7.1312,-7.0804,-7.0398,-7.0195,-6.891,-6.8132,-6.7895,-6.6609,-6.5797,-6.5358,-6.485,-6.4072,-6.3153,-6.2289,-6.1033,-5.9436,-5.786,-5.6356,-5.4844,-5.4344,-5.3309,-5.2245,-5.235,-5.1638,-5.0571,0.0,0.0,0.0,0.0,0.0,0.0,-3.2759,-3.2785,-3.3005,-3.3893,-3.3834,-3.3807,-3.4055,-3.4626,-3.5101,-3.5364,-3.5142,0.0,0.0,0.0,0.0,0.0,0.0,0.0,0.0,0.0,-3.8053,-3.8191,-3.7393,-3.6995,-3.6995,-3.6182,-3.6218,-3.6995,0.0,0.0,0.0,0.0,0.0,0.0,0.0,0.0,0.0,0.0,0.0,0.0,0.0,0.0,0.0,0.0,0.0,0.0,0.0,0.0,0.0,0.0,-5.7548,-6.4076,-6.7528,-7.2811,-7.709,-7.6313,-7.015,-6.3393,0.0,0.0,-4.5993,-4.3846,-4.2999,-4.2907,-4.3495,-4.3598,-4.4068,-4.538,-4.563,-4.7923,-5.4501,-5.4795,0.0,0.0,0.0,-6.501,-6.9228,-7.1331,-7.209,-7.1379,-7.1312,-7.1312,-7.1312,-7.1312,-7.1312,-7.1312,-7.1312,-7.0939,-7.0195,-6.9451,-6.8707,-6.7895,-6.7151,-6.6034,-6.4613,-6.4613,-6.3802,-6.2415,-6.2415,-6.1975,-6.1115,-5.9259,-5.8685,-5.8522,-5.4507,-5.3569,-5.4295,-5.2063,-5.0391,-4.9329,0.0,0.0,0.0,0.0,0.0,0.0,0.0,-3.3437,-3.3821,-3.4055,-3.3915,-3.39,-3.4042,-3.4586,-3.5294,-3.6061,-3.5947,0.0,0.0,0.0,0.0,0.0,0.0,0.0,0.0,0.0,-3.795,-3.8053,-3.78,-3.7725,-3.7792,-3.6913,-3.6916,-3.7692,-3.759,-3.763,0.0,0.0,0.0,0.0,0.0,0.0,0.0,0.0,0.0,0.0,0.0,0.0,0.0,0.0,0.0,0.0,0.0,0.0,0.0,-4.6294,-5.156,0.0,-6.2618,-6.5755,-6.7658,-6.7642,-6.1982,-5.6191,-5.5174,-4.9349,-4.4007,-4.3617,-4.3606,-4.3714,-4.3772,-4.3687,-4.4115,-4.5678,-4.5939,-4.7147,0.0,0.0,0.0,-6.1135,-6.5852,-6.9271,0.0,-7.1289,-7.1548,-7.1345,-7.1312,-7.1312,-7.1312,-7.1312,-7.1312,-7.1312,-7.1312,-7.0939,-7.0195,-6.9958,-6.918,-6.7895,-6.6643,-6.5797,-6.5324,-6.4309,-6.3599,-6.3159,-6.3159,-6.1547,-5.8857,-5.8626,-5.7338,-5.5421,-5.4422,-5.3785,-5.3352,-5.2664,-5.1334,-4.9942,0.0,0.0,0.0,0.0,0.0,0.0,0.0,-3.3743,-3.4191,-3.4191,-3.4018,-3.3928,-3.4043,-3.4599,-3.5266,-3.5997,-3.6296,0.0,0.0,0.0,0.0,0.0,0.0,0.0,-3.781,-3.781,-3.7863,-3.795,-3.7662,-3.7552,-3.7602,-3.6417,-3.6472,-3.7517,-3.7414,-3.7667,0.0,0.0,0.0,0.0,0.0,0.0,-4.1394,0.0,0.0,0.0,0.0,0.0,0.0,0.0,0.0,0.0,0.0,0.0,0.0,0.0,-4.7488,-5.1785,0.0,-6.0567,-6.2702,-6.2565,-5.7761,0.0,0.0,-4.7975,-4.3665,-4.3848,-4.4269,-4.4457,-4.4048,-4.439,-4.5057,-4.6021,-4.6388,-4.7435,0.0,0.0,0.0,-6.06,0.0,0.0,-6.9761,-7.0724,-7.1312,-7.1312,-7.1312,-7.1312,-7.1312,-7.1041,-7.0872,-7.0872,-7.1176,-7.1075,-7.0635,-7.006,-6.9282,-6.8335,-6.6542,-6.5527,-6.5222,-6.4072,-6.3362,-6.3091,-6.3091,-6.1394,0.0,-5.8973,-5.7624,-5.5333,-5.479,-5.4168,-5.3408,-5.2267,-5.1001,-4.9823,0.0,0.0,0.0,0.0,0.0,0.0,0.0,-3.3815,-3.4264,-3.437,-3.4167,-3.4077,-3.4253,-3.476,-3.5165,-3.537,0.0,0.0,0.0,0.0,0.0,0.0,0.0,0.0,-3.7596,-3.7596,-3.7685,-3.7809,-3.7055,-3.6731,-3.6748,-3.5258,-3.5329,-3.6767,-3.6736,-3.7632,0.0,0.0,0.0,0.0,0.0,0.0,0.0,0.0,0.0,0.0,0.0,0.0,0.0,0.0,0.0,0.0,0.0,0.0,0.0,0.0,0.0,0.0,0.0,-5.6567,-6.072,0.0,0.0,0.0,0.0,0.0,0.0,-4.4474,-4.499,-4.5202,-4.4327,-4.5484,-4.6518,-4.6307,-4.6879,-4.8489,0.0,-5.4042,0.0,0.0,-6.5533,-6.7516,-6.7277,-6.9693,-7.1312,-7.1312,-7.1312,-7.1312,-7.1244,-7.0567,-7.0161,-7.0094,-7.0804,-7.1142,-7.1075,-6.9688,-6.8977,-6.8842,-6.6643,-6.5222,-6.4478,-6.37,-6.299,-6.2313,-6.2313,-6.1395,-5.9899,-5.9967,-5.9089,-5.7554,-5.5304,-5.4483,-5.4178,-5.1241,-4.9763,-4.9149,0.0,0.0,0.0,0.0,0.0,0.0,0.0,0.0,0.0,0.0,-3.4623,-3.4953,-3.4974,-3.6117,-3.6684,0.0,0.0,0.0,0.0,0.0,0.0,0.0,0.0,0.0,-3.672,-3.672,-3.6773,-3.6896,-3.6717,-3.6967,-3.7611,-3.7129,-3.7094,-3.7488,-3.8615,-3.9987,0.0,0.0,0.0,0.0,0.0,0.0,0.0,0.0,0.0,0.0,-4.1815,-4.1872,0.0,0.0,0.0,0.0,0.0,0.0,0.0,0.0,-4.5468,-4.6413,-4.6968,0.0,-5.0204,-5.0136,-4.9036,-4.7889,0.0,0.0,0.0,0.0,0.0,0.0,0.0,-4.5731,-4.6243,-4.5967,-4.6695,-4.8368,-5.1527,-5.743,0.0,-6.5573,-6.8557,-6.9524,-6.7384,-6.9684,-7.1312,-7.1312,-7.1312,-7.1075,-7.0466,-7.0297,-6.9925,-6.9383,-6.9519,-6.9316,-6.8707,-6.8368,-6.7624,-6.6474,-6.5392,-6.4478,-6.3734,-6.2415,-6.1738,-6.1569,-6.1569,-6.0231,-5.8084,-5.8654,-5.7951,-5.6327,-5.3607,-5.3081,-5.3487,-5.0584,-4.9075,-4.8506,0.0,0.0,0.0,0.0,0.0,0.0,0.0,0.0,0.0,0.0,0.0,-3.5678,-3.5239,-3.6264,0.0,0.0,0.0,0.0,0.0,0.0,0.0,0.0,0.0,-3.6827,-3.6399,-3.6399,-3.656,-3.6898,-3.6542,-3.6897,-3.7889,-3.7253,-3.7129,-3.7483,-3.918,-4.061,0.0,0.0,0.0,0.0,-4.2453,0.0,0.0,0.0,0.0,0.0,-4.2374,-4.2608,0.0,-4.2445,-4.2674,-4.3188,0.0,0.0,0.0,0.0,-4.5669,-4.64,-4.5868,-4.6081,-4.6623,-4.7111,-4.6725,-4.6315,-4.6726,0.0,0.0,0.0,0.0,0.0,0.0,-4.7106,-4.7657,-4.6689,-4.8467,-5.118,0.0,0.0,-6.3427,-6.6588,-6.8447,-6.9363,-6.9083,-7.0409,-7.1312,-7.1312,-7.1007,-7.0635,-7.0195,-6.9519,-6.8808,-6.8064,-6.7726,-6.7827,-6.8436,-6.776,-6.6981,-6.6203,-6.4783,-6.3903,-6.3463,-6.2313,-6.1603,-6.1332,-6.167,-6.0415,-5.8202,-5.8936,-5.8336,-5.6744,-5.4673,-5.3748,-5.3314,-5.0919,-4.9293,-4.8237,0.0,0.0,0.0,0.0,0.0,0.0,0.0,0.0,0.0,0.0,0.0,0.0,0.0,0.0,0.0,0.0,0.0,0.0,0.0,0.0,0.0,0.0,-3.6934,-3.6541,-3.6291,-3.6345,-3.6559,-3.6871,-3.6519,-3.6866,-3.7807,-3.6936,-3.68,-3.7415,-3.9013,-4.0214,0.0,-4.2412,-4.2945,-4.2921,-4.2891,0.0,0.0,0.0,0.0,0.0,0.0,0.0,0.0,-4.2548,-4.2888,-4.3784,-4.3771,0.0,0.0,0.0,0.0,0.0,-4.6263,-4.6607,-4.7106,-4.7516,-4.703,-4.6614,-4.7121,0.0,0.0,0.0,0.0,0.0,0.0,-4.8908,0.0,0.0,0.0,0.0,-5.9627,-6.1458,-6.359,-6.6901,-6.7817,-6.8793,-7.0537,-7.1005,-7.1109,-7.0973,-7.0398,-6.9958,-6.9857,-6.8504,-6.7387,-6.6677,-6.5933,-6.644,-6.8402,-6.7015,-6.6305,-6.6271,-6.4275,-6.3294,-6.3159,-6.2381,-6.1637,-6.0994,-6.1603,-6.0723,-5.8896,-5.9641,-5.9133,-5.7775,-5.643,-5.5038,-5.36,-5.1372,-4.9714,-4.841,0.0,0.0,0.0,0.0,0.0,0.0,0.0,0.0,0.0,0.0,0.0,0.0,0.0,0.0,0.0,0.0,0.0,0.0,0.0,0.0,0.0,-3.675,-3.743,-3.7121,-3.5752,-3.6164,-3.6096,-3.5509,-3.6756,-3.745,-3.7644,-3.8144,-3.8448,-3.8536,-3.8712,-3.9617,-4.104,-4.1268,-4.1605,-4.2,-4.2172,0.0,0.0,0.0,0.0,0.0,0.0,0.0,0.0,-4.2501,-4.2471,-4.269,-4.4157,0.0,0.0,0.0,0.0,0.0,-4.6288,-4.7968,-4.9443,-4.7954,-4.7674,-4.7676,-4.7562,0.0,0.0,0.0,0.0,0.0,0.0,-5.0223,-5.045,0.0,0.0,-6.0118,0.0,0.0,-6.9468,-6.9566,-7.0985,-7.0949,-6.8331,-6.9457,-7.0094,-6.9485,-6.9316,-6.8977,-6.8301,-6.7455,-6.6643,-6.5865,-6.5155,-6.4952,-6.529,-6.4444,-6.4038,-6.4005,-6.3024,-6.2245,-6.1603,-6.0825,-6.0047,-5.937,-5.9471,-5.8964,-5.8118,-5.8863,-5.866,-5.7673,-5.5335,-5.4683,-5.4534,-5.0592,-4.9347,-4.9404,0.0,0.0,0.0,0.0,0.0,0.0,0.0,0.0,0.0,0.0,0.0,0.0,0.0,0.0,0.0,0.0,0.0,0.0,0.0,0.0,-3.6467,-3.7555,-3.7853,-3.7443,-3.6204,-3.6343,-3.6364,-3.6273,-3.6629,-3.7085,-3.7721,-3.7709,-3.7829,-3.809,-3.8793,-3.9534,-4.0314,-4.1088,-4.157,-4.1837,0.0,0.0,0.0,0.0,0.0,0.0,0.0,0.0,0.0,0.0,-4.3213,-4.3337,-4.4752,0.0,0.0,0.0,0.0,0.0,-4.6369,-4.7573,-4.9046,-4.9143,-4.971,-5.0092,-4.9591,0.0,0.0,0.0,0.0,0.0,0.0,0.0,-5.4838,-5.8665,-6.0778,-6.3253,-6.6992,-6.794,-6.8669,-6.9845,-7.0485,-7.0567,-6.9845,-7.014,-6.9995,-6.9156,-6.8707,-6.8301,-6.7929,-6.6812,-6.5865,-6.5121,-6.441,-6.3802,-6.3429,-6.2685,-6.2719,-6.3497,-6.2753,-6.2009,-6.1298,-6.0926,-6.0114,-5.9032,-5.9438,-5.8964,-5.7915,-5.8254,-5.7983,-5.7135,-5.559,-5.4579,-5.3611,-5.0088,-4.9027,-4.912,0.0,0.0,0.0,0.0,0.0,0.0,0.0,0.0,0.0,0.0,0.0,0.0,0.0,0.0,0.0,0.0,0.0,0.0,0.0,-3.7762,-3.7647,-3.7996,-3.7848,-3.7369,-3.6458,-3.6397,-3.6524,-3.6731,-3.6537,-3.7058,-3.8272,-3.7757,-3.7568,-3.773,-3.9073,-3.9636,-3.9701,-4.1018,-4.1647,-4.185,0.0,0.0,0.0,0.0,0.0,0.0,0.0,0.0,0.0,0.0,0.0,0.0,0.0,0.0,0.0,-4.633,-4.6918,-4.7125,-4.628,-4.7212,-4.8557,-4.9387,0.0,-5.12,-5.2029,-5.1083,-5.039,0.0,0.0,0.0,0.0,-5.5316,0.0,-6.4703,-6.5682,-6.6607,-6.9298,-6.8898,-6.9061,-7.1106,-7.0644,-7.0522,-7.1442,-7.0561,-6.9576,-6.8624,-6.7827,-6.7455,-6.7624,-6.6237,-6.5189,-6.4613,-6.3734,-6.2956,-6.2381,-6.1839,-6.2042,-6.299,-6.2415,-6.167,-6.0791,-6.0926,-6.0182,-5.8795,-5.9336,-5.8829,-5.7645,-5.7645,-5.7205,-5.6461,-5.575,-5.4343,-5.2495,-5.0515,-4.9381,-4.8677,0.0,0.0,0.0,0.0,0.0,0.0,0.0,0.0,0.0,0.0,0.0,0.0,0.0,0.0,0.0,0.0,0.0,0.0,0.0,-3.6479,-3.6282,-3.6799,-3.6982,-3.6633,-3.5708,-3.6145,-3.606,-3.533,-3.6774,-3.8253,-3.9747,-3.9633,-3.9187,-3.8567,-3.942,-3.9716,-3.9686,-4.0501,-4.1216,-4.1801,-4.185,0.0,0.0,0.0,0.0,0.0,0.0,0.0,0.0,0.0,0.0,0.0,0.0,0.0,-4.5611,-4.6235,-4.6458,-4.6372,-4.5803,-4.7793,-4.9523,-4.7491,-4.7338,-4.9102,-5.4367,-5.3207,-5.2003,-5.5698,-5.5811,0.0,0.0,-5.6771,-5.9283,-6.277,-6.6978,-7.1106,-7.4952,-7.5415,-7.5422,-7.5648,-7.4155,-7.2536,-7.1089,-6.9389,-6.7999,-6.7066,-6.6271,-6.6136,-6.6846,-6.5493,-6.4647,-6.4613,-6.3226,-6.2448,-6.2381,-6.2347,-6.2009,-6.1467,-6.14,-6.0622,-5.9201,-5.9877,-5.937,-5.7983,-5.8017,-5.7611,-5.6867,-5.6867,-5.6461,-5.5716,-5.4972,-5.3573,-5.2017,-5.2499,-5.1025,-4.88,0.0,0.0,0.0,0.0,0.0,0.0,0.0,0.0,0.0,0.0,0.0,0.0,0.0,0.0,0.0,0.0,0.0,0.0,0.0,-3.7556,-3.7439,-3.7449,-3.7583,-3.7321,-3.6476,-3.7119,-3.7354,-3.7116,-3.8008,-3.8918,-3.9912,-3.974,-3.9518,-3.923,-3.9985,-4.0256,-4.0186,-4.0961,-4.1433,-4.1706,-4.2233,-4.2105,0.0,0.0,0.0,0.0,0.0,0.0,0.0,0.0,-4.4824,-4.5516,-4.587,-4.6023,-4.6082,-4.6317,-4.6423,-4.6266,-4.5752,-4.7674,-4.9459,-4.784,-4.7775,0.0,0.0,-5.4788,-5.443,-5.6319,-5.7939,-5.8849,-5.8184,0.0,-6.4533,-6.5713,-6.9546,-7.3074,-7.5072,-7.4918,-7.4588,-7.4588,-7.3147,-7.1422,-6.9635,-6.8328,-6.7029,-6.5549,-6.5155,-6.5121,-6.5425,-6.4478,-6.3937,-6.3937,-6.2922,-6.2178,-6.1704,-6.1231,-6.0588,-5.9877,-6.0858,-6.0723,-5.9674,-5.9505,-5.8626,-5.7239,-5.7679,-5.7205,-5.6122,-5.6122,-5.5683,-5.4938,-5.4194,-5.3516,-5.2868,-5.2467,-5.1643,-5.0633,0.0,0.0,0.0,0.0,0.0,0.0,0.0,0.0,0.0,0.0,0.0,0.0,0.0,0.0,0.0,0.0,0.0,0.0,-3.8267,-3.8316,-3.8287,-3.8038,-3.8188,-3.8012,-3.7519,-3.8045,-3.8158,-3.7911,-3.8851,-3.9656,-4.0367,-4.0399,-4.0223,-4.0005,-4.0742,-4.0884,-4.058,-4.1376,-4.1692,-4.1719,-4.2201,-4.2096,0.0,0.0,0.0,0.0,0.0,0.0,0.0,0.0,-4.5644,-4.6277,-4.6374,-4.6423,-4.6398,-4.635,-4.6423,-4.6387,-4.5895,-4.7089,-4.8355,-4.7832,0.0,0.0,-5.545,-5.6217,-5.6525,-5.9473,-6.0564,-6.0837,-6.0496,-6.3392,-6.597,-6.6431,-7.0121,-7.323,-7.4037,-7.3017,-7.2372,-7.287,-7.1026,-6.9317,-6.8287,-6.7165,-6.5992,-6.4701,-6.4377,-6.4343,-6.458,-6.3903,-6.3531,-6.3531,-6.255,-6.1806,-6.1298,-6.0486,-5.9844,-5.937,-6.0182,-6.0148,-5.9404,-5.9133,-5.8321,-5.7171,-5.7442,-5.6867,-5.5647,-5.5446,-5.4905,-5.4194,-5.3687,-5.3518,-5.3416,-5.2662,-5.2205,-5.1813,0.0,0.0,0.0,0.0,0.0,0.0,0.0,0.0,0.0,0.0,0.0,0.0,0.0,0.0,0.0,0.0,0.0,0.0,-3.8523,-3.8428,-3.8385,-3.8307,-3.8512,-3.86,-3.86,-3.8728,-3.8224,-3.7031,-3.9175,-4.0613,-4.1403,-4.1874,-4.1632,-4.084,-4.1724,-4.1569,-4.0687,-4.1605,-4.1923,-4.178,-4.1648,-4.1604,-4.1604,0.0,0.0,0.0,0.0,0.0,0.0,0.0,-4.5823,-4.6423,-4.6423,-4.6423,-4.6374,-4.6228,-4.6471,-4.6708,-4.6231,-4.6098,-4.6333,-4.7001,0.0,0.0,-5.7495,-5.7495,-5.8184,-6.6052,-6.3911,-6.0838,-6.1634,-6.1806,-6.2349,-6.3933,-6.8179,-7.1578,-7.2349,-7.038,-6.9473,-7.1024,-6.8305,-6.6552,-6.7194,-6.5827,-6.48,-6.4593,-6.3903,-6.3835,-6.4546,-6.3903,-6.3497,-6.3497,-6.2076,-6.1298,-6.1298,-6.0486,-6.008,-6.0047,-5.9336,-5.8592,-5.7915,-5.866,-5.8592,-5.7848,-5.7103,-5.6393,-5.5614,-5.4905,-5.416,-5.3518,-5.3518,-5.3518,-5.3518,-5.3518,-5.2835,-5.1921,0.0,0.0,0.0,0.0,0.0,0.0,0.0,0.0,0.0,0.0,0.0,0.0,0.0,0.0,0.0,0.0,0.0,0.0,-3.8575,-3.8737,-3.8766,-3.8507,-3.8713,-3.8788,-3.8743,-3.9301,-3.9601,-3.9666,-4.0306,-4.1143,-4.2115,-4.2266,-4.2083,-4.1669,-4.2455,-4.2581,-4.2216,-4.2542,-4.2639,-4.2457,-4.1815,-4.1604,-4.1626,0.0,0.0,0.0,0.0,0.0,0.0,0.0,0.0,0.0,-4.6423,-4.6423,-4.6374,-4.6228,-4.6398,-4.6495,-4.5692,-4.7079,-4.8544,-4.7649,0.0,0.0,0.0,-5.825,0.0,0.0,-6.3458,-6.1056,-6.0027,-6.2199,-6.3725,-6.251,-6.6424,-6.9706,-6.9926,-6.8342,-6.7125,-6.7005,-6.5125,-6.3879,-6.3974,-6.3552,-6.3216,-6.3069,-6.2854,-6.2821,-6.3024,-6.2854,-6.2482,-6.1975,-6.1535,-6.0791,-5.9708,-5.9471,-5.9055,-5.8531,-5.7797,-5.7881,-5.866,-5.8355,-5.7814,-5.7103,-5.69,-5.6089,-5.4871,-5.4126,-5.3687,-5.3518,-5.3518,-5.3518,-5.3518,-5.3518,-5.3314,-5.3041,0.0,0.0,0.0,0.0,0.0,0.0,0.0,0.0,0.0,0.0,0.0,0.0,0.0,0.0,0.0,0.0,0.0,0.0,0.0,-3.9503,-3.9503,-3.923,-3.9401,-3.9453,-3.9312,-3.9968,-4.0646,-4.1384,-4.1316,-4.1687,-4.2518,-4.2414,-4.219,-4.1958,-4.2383,-4.2529,-4.2418,-4.2815,-4.27,-4.2306,-4.2131,-4.2118,-4.2185,0.0,0.0,0.0,0.0,0.0,0.0,0.0,0.0,0.0,-4.5587,-4.5669,-4.5892,-4.594,-4.6342,-4.6755,-4.674,-4.8176,-4.9813,-5.0169,-5.2709,-5.6029,-5.9361,0.0,0.0,0.0,-6.3959,-6.1754,-6.0716,-6.1982,-6.2862,-6.1725,-6.4577,-6.6947,-6.6947,-6.5518,-6.4549,-6.4701,-6.2698,-6.1535,-6.2126,-6.1805,-6.1571,-6.1472,-6.1467,-6.1467,-6.1467,-6.1467,-6.1264,-6.0858,-6.0554,-5.9926,-5.9033,-5.8726,-5.8359,-5.7939,-5.7488,-5.791,-5.9047,-5.7935,-5.7205,-5.6765,-5.6472,-5.5856,-5.4948,-5.4247,-5.3946,-5.3913,-5.3618,-5.3518,-5.3518,-5.3518,-5.3518,-5.3518,0.0,0.0,0.0,0.0,0.0,0.0,0.0,0.0,0.0,0.0,-4.1315,0.0,0.0,0.0,0.0,0.0,0.0,0.0,0.0,-4.0477,-4.0391,-4.0341,-4.0451,-4.0459,-4.0332,-4.0781,-4.1542,-4.2523,-4.2189,-4.2232,-4.2713,-4.2542,-4.2234,-4.1866,-4.207,-4.2018,-4.1894,-4.2758,-4.263,-4.1907,-4.2517,-4.2889,-4.3023,-4.3098,0.0,0.0,0.0,0.0,0.0,0.0,0.0,0.0,-4.4295,-4.453,-4.507,-4.5384,-4.6158,-4.7205,-4.8504,-4.9211,-5.0393,-5.3705,-5.5554,0.0,-6.1129,-6.4703,-6.7264,-6.7162,0.0,-6.2769,-6.2499,-6.1369,-6.0697,-6.1396,-6.291,-6.395,-6.3784,-6.2515,-6.2088,-6.3392,-6.0805,-5.9536,-6.1119,-6.0503,-6.0047,-6.008,-6.0114,-6.008,-6.0013,-6.0047,-6.0013,-5.981,-5.9309,-5.8965,-5.8906,-5.818,-5.7872,-5.7989,-5.7781,-5.8164,-5.9016,-5.7499,-5.6737,-5.6672,-5.6083,-5.5758,-5.5667,-5.4999,-5.4695,-5.4603,-5.3979,-5.3684,-5.3684,-5.3684,-5.3685,-5.3618,0.0,0.0,0.0,0.0,0.0,0.0,0.0,0.0,0.0,0.0,0.0,0.0,0.0,0.0,0.0,0.0,0.0,0.0,0.0,-4.0812,-4.068,-4.1282,-4.1349,-4.1534,-4.1978,-4.2078,-4.284,-4.4262,-4.2755,-4.2323,-4.2939,-4.32,-4.2982,-4.2481,-4.3921,-4.4269,-4.3837,-4.4493,-4.4295,-4.351,-4.3075,-4.2966,-4.3098,-4.3229,-4.4201,0.0,0.0,0.0,0.0,0.0,0.0,0.0,-4.4142,-4.4212,-4.433,-4.4272,-4.5204,-4.6453,-4.7582,-4.9032,0.0,-5.4687,-5.8495,-6.1885,-6.4028,-6.4603,-6.4321,-6.3071,-6.3282,-6.2838,-6.0284,-6.0601,-6.115,-6.0731,-6.2546,-6.3559,-6.2287,-6.1827,-6.1263,-6.0294,-5.8977,-5.8496,-5.9429,-5.9346,-5.9471,-6.0047,-6.0114,-5.9844,-5.9268,-5.981,-5.9302,-5.7577,-5.8527,-5.8495,-5.7313,-5.7105,-5.7377,-5.7963,-5.6182,-5.6346,-5.8222,-5.7269,-5.6464,-5.5977,-5.6444,-5.6294,-5.5695,-5.5552,-5.5466,-5.5466,-5.5291,-5.5203,-5.5203,-5.5203,-5.4848,-5.4391,0.0,0.0,0.0,0.0,0.0,0.0,0.0,0.0,0.0,0.0,0.0,0.0,0.0,0.0,0.0,0.0,0.0,0.0,0.0,0.0,-4.1764,-4.2166,-4.2384,-4.276,-4.3314,-4.3086,-4.3795,-4.5503,-4.3995,-4.3378,-4.3669,-4.386,-4.3448,-4.2566,-4.3835,-4.4156,-4.3735,-4.4366,-4.419,-4.3429,-4.3007,-4.2921,-4.3032,-4.3156,-4.3886,-4.4913,-4.489,0.0,0.0,0.0,0.0,0.0,0.0,0.0,-4.4624,-4.4705,-4.5171,-4.6051,-4.7778,0.0,0.0,-5.6842,0.0,-6.3649,-6.453,-6.3998,-6.3039,-6.1794,-6.1884,-6.1433,-5.8978,-5.8909,-5.9011,-5.829,-5.9529,-6.0326,-5.9471,-5.9338,-5.9147,-5.8657,-5.7841,-5.7645,-5.8389,-5.8457,-5.849,-5.8524,-5.8524,-5.822,-5.7476,-5.778,-5.7476,-5.6325,-5.7054,-5.7088,-5.6275,-5.624,-5.6479,-5.6858,-5.5714,-5.5774,-5.6893,-5.6846,-5.6806,-5.6805,-5.6878,-5.6868,-5.6763,-5.6421,-5.6031,-5.5724,-5.5724,-5.5495,-5.5173,-5.5173,-5.4939,-5.4575,0.0,0.0,0.0,0.0,0.0,0.0,0.0,0.0,0.0,0.0,0.0,0.0,0.0,0.0,0.0,0.0,0.0,0.0,0.0,0.0,0.0,-4.302,-4.3414,-4.38,-4.4138,-4.3783,-4.4418,-4.6133,-4.5256,-4.4729,-4.4565,-4.4564,-4.3975,-4.2887,-4.354,-4.3622,-4.3289,-4.4061,-4.3827,-4.3031,-4.3031,-4.3075,-4.3147,-4.3253,-4.3744,-4.4436,-4.4685,-4.4903,-4.5094,-4.5235,0.0,0.0,0.0,0.0,-4.4941,-4.5232,-4.5244,-4.5703,-4.8179,0.0,-5.338,-5.865,-6.1741,0.0,-6.3466,-6.2915,-6.2189,-6.1507,-6.0719,-5.9673,-5.8256,-5.7468,-5.6829,-5.6201,-5.6764,-5.7238,-5.7115,-5.7206,-5.7419,-5.7758,-5.7227,-5.7011,-5.7478,-5.7509,-5.7273,-5.6664,-5.663,-5.6292,-5.5547,-5.5614,-5.5546,-5.5344,-5.5585,-5.5654,-5.551,-5.551,-5.5567,-5.5724,-5.5724,-5.5724,-5.5724,-5.6546,-5.7223,-5.7762,-5.7304,-5.7425,-5.795,-5.7351,-5.6721,-5.6087,-5.5948,-5.5524,-5.4969,-5.4848,-5.4695,-5.4513,0.0,0.0,0.0,0.0,0.0,0.0,0.0,0.0,0.0,0.0,0.0,0.0,0.0,0.0,0.0,0.0,0.0,0.0,0.0,0.0,0.0,-4.3853,-4.4057,-4.4101,-4.3929,-4.3945,-4.4422,-4.5345,-4.5727,-4.567,-4.518,-4.526,-4.504,-4.4667,-4.5393,-4.5344,-4.4685,-4.5772,-4.5341,-4.392,-4.392,-4.3744,-4.3599,-4.4264,-4.4643,-4.4929,-4.6252,-4.5663,-4.4377,-4.5059,-4.4777,0.0,0.0,0.0,-4.4085,-4.4097,-4.4362,-4.5152,0.0,0.0,-5.6194,0.0,-5.9612,-6.0896,0.0,0.0,-6.0689,0.0,-5.9901,-5.9099,-5.8183,-5.7928,-5.7827,-5.7706,-5.8352,-5.8637,-5.7947,-5.8438,-5.8416,-5.7091,-5.6869,-5.6574,-5.6057,-5.6021,-5.5953,-5.5852,-5.5852,-5.5547,-5.4769,-5.5344,-5.5108,-5.3856,-5.5032,-5.5383,-5.4745,-5.4745,-5.5074,-5.5724,-5.5724,-5.5724,-5.5752,-5.6528,-5.6953,-5.7082,-5.7619,-5.7927,-5.7997,-5.7867,-5.7797,-5.7618,-5.7015,-5.6668,-5.651,-5.5808,-5.5144,-5.4606,0.0,0.0,0.0,0.0,0.0,0.0,0.0,0.0,0.0,0.0,0.0,0.0,0.0,0.0,0.0,0.0,0.0,0.0,0.0,0.0,0.0,-4.3318,-4.3785,-4.4278,-4.4848,-4.4293,-4.4665,-4.6062,-4.6055,-4.6055,-4.6015,-4.5879,-4.5257,-4.4304,-4.5385,-4.5482,-4.492,-4.543,-4.5432,-4.5013,-4.4264,-4.442,-4.5048,-4.4962,-4.5177,-4.5608,-4.5867,-4.5559,-4.5191,-4.595,-4.58,-4.5351,-4.5736,0.0,0.0,0.0,-4.4188,-4.4253,-4.7537,-5.1009,-5.4383,0.0,-5.8877,-5.9869,-6.0309,-6.0052,-5.9735,-5.9735,-5.9079,-5.8439,-5.8087,-5.7699,-5.7239,-5.6779,-5.7007,-5.712,-5.675,-5.7007,-5.7121,-5.6912,-5.6856,-5.669,-5.6368,-5.6302,-5.5962,-5.5142,-5.5074,-5.4769,-5.4025,-5.4296,-5.4194,-5.3518,-5.4123,-5.4286,-5.4011,-5.3977,-5.4139,-5.4485,-5.4878,-5.5084,-5.5084,-5.5865,-5.6721,-5.7522,-5.7844,-5.7997,-5.7997,-5.7997,-5.7462,-5.6711,-5.6825,-5.6376,-5.5588,-5.5203,-5.4878,-5.4544,0.0,0.0,0.0,0.0,0.0,0.0,0.0,0.0,0.0,0.0,0.0,0.0,0.0,0.0,0.0,0.0,0.0,0.0,0.0,0.0,0.0,-4.3162,-4.3632,-4.4305,-4.5193,-4.4445,-4.4712,-4.6066,-4.6052,-4.5981,-4.594,-4.6032,-4.5375,-4.4116,-4.5056,-4.5239,-4.4883,-4.5183,-4.5471,-4.5566,-4.4813,-4.5095,-4.5962,-4.5565,-4.5673,-4.6019,-4.5945,-4.5884,-4.601,-4.6516,-4.6527,-4.6295,-4.6502,-4.5761,0.0,0.0,0.0,0.0,0.0,0.0,-5.1377,-5.5381,-5.7134,-5.816,0.0,0.0,-5.8597,0.0,-5.796,-5.7454,-5.7701,-5.7456,-5.6989,-5.6358,-5.6277,-5.6277,-5.6277,-5.6277,-5.641,-5.6858,-5.6901,-5.6799,-5.6547,-5.6488,-5.6059,-5.4964,-5.4864,-5.4624,-5.4076,-5.4042,-5.3876,-5.3511,-5.3511,-5.3412,-5.3213,-5.3213,-5.3112,-5.2909,-5.3631,-5.4039,-5.4048,-5.4998,-5.6062,-5.7146,-5.7545,-5.7821,-5.7997,-5.7997,-5.734,-5.6304,-5.6501,-5.59,-5.4848,-5.4451,-5.4328,-5.4232,0.0,0.0,0.0,0.0,0.0,0.0,0.0,0.0,0.0,0.0,0.0,0.0,-4.6366,-4.5749,-4.5295,-4.5317,0.0,0.0,0.0,0.0,0.0,-4.4124,-4.4147,0.0,-4.4076,-4.4153,-4.4236,-4.4311,-4.5531,-4.5423,-4.4172,-4.548,-4.5705,-4.5029,-4.5107,-4.4972,-4.48,-4.608,-4.6041,-4.5199,-4.5869,-4.5924,-4.5632,-4.6359,-4.6177,-4.576,-4.7451,-4.7288,-4.6245,-4.619,-4.6061,-4.5721,-4.461,-4.4225,-4.4131,0.0,0.0,0.0,0.0,-4.6277,0.0,-5.1246,-5.3097,0.0,0.0,0.0,-5.6932,-5.6932,-5.6271,-5.5978,-5.674,-5.7474,-5.795,-5.7867,-5.7867,-5.7867,-5.7867,-5.7867,-5.7631,-5.6974,-5.6907,-5.6608,-5.583,-5.5744,-5.5744,-5.568,-5.5616,-5.5616,-5.5581,-5.561,-5.4946,-5.3537,-5.3502,-5.3135,-5.2367,-5.2367,-5.2029,-5.1352,-5.2062,-5.2443,-5.2552,-5.3975,-5.4699,-5.4882,-5.6345,-5.7351,-5.7997,-5.7997,-5.795,-5.775,-5.6304,-5.5724,-5.5466,-5.4074,-5.3551,-5.3551,0.0,0.0,0.0,0.0,0.0,0.0,0.0,0.0,0.0,0.0,0.0,0.0,0.0,-4.5609,-4.5377,-4.5616,-4.3961,0.0,0.0,0.0,0.0,-4.3289,-4.381,-4.4085,-4.4153,-4.4085,-4.4101,-4.4199,-4.5375,-4.5252,-4.3923,-4.5824,-4.6119,-4.5073,-4.6143,-4.65,-4.6396,-4.7997,-4.8082,-4.7113,-4.7585,-4.788,-4.7987,-4.7349,-4.7843,-4.8849,-4.8547,-4.8375,-4.8166,-4.7289,0.0,0.0,0.0,0.0,0.0,0.0,0.0,0.0,0.0,0.0,0.0,-5.0153,-5.2018,-5.3322,-5.4018,-5.5111,-5.6014,-5.6014,-5.5794,-5.5684,-5.5978,-5.6675,-5.7409,-5.7923,-5.7997,-5.7997,-5.7997,-5.7997,-5.7684,-5.6937,-5.7279,-5.7109,-5.5809,-5.6161,-5.6259,-5.5752,-5.5724,-5.5724,-5.5724,-5.5235,-5.4506,-5.3528,-5.3013,-5.2375,-5.1589,-5.1589,-5.1488,-5.1185,-5.1488,-5.1615,-5.166,-5.2206,-5.2708,-5.32,-5.3767,-5.4942,-5.658,-5.7091,-5.6978,-5.6465,-5.592,-5.5408,-5.4878,-5.3848,-5.3518,-5.3518,0.0,0.0,0.0,0.0,0.0,0.0,0.0,0.0,0.0,-4.4342,0.0,0.0,0.0,0.0,-4.5542,-4.5111,-4.3861,-4.2758,-4.2032,-4.2738,-4.3333,-4.3661,-4.389,-4.4166,-4.4563,-4.4234,-4.4055,-4.4061,-4.5306,-4.5258,-4.4044,-4.6085,-4.6544,-4.5733,-4.722,-4.7515,-4.6983,-4.8403,-4.8421,-4.7609,-4.8569,-4.8919,-4.8826,-4.8642,-4.9213,-5.006,-4.964,-4.9509,-4.9404,-4.8457,0.0,0.0,0.0,0.0,0.0,0.0,0.0,0.0,-4.4943,0.0,0.0,0.0,0.0,-5.1667,-5.2512,-5.3734,-5.4752,-5.5133,-5.4987,-5.4876,-5.5133,-5.5647,-5.6271,-5.7042,-5.7189,-5.7189,-5.7189,-5.7189,-5.7005,-5.6455,-5.6859,-5.6772,-5.5765,-5.6406,-5.6642,-5.6132,-5.6321,-5.6465,-5.6465,-5.5721,-5.4697,-5.3479,-5.2445,-5.1572,-5.0782,-5.0837,-5.071,-5.0441,-5.071,-5.071,-5.0507,-5.0948,-5.1366,-5.1645,-5.189,-5.3112,-5.5028,-5.6113,-5.6221,-5.5757,-5.6015,-5.5638,-5.4878,-5.4139,-5.3717,-5.3518,0.0,0.0,0.0,0.0,0.0,0.0,0.0,0.0,-4.4346,-4.4988,0.0,0.0,0.0,0.0,0.0,-4.3769,-4.3617,-4.3451,-4.2999,-4.3624,-4.4405,-4.5339,0.0,0.0,-4.5287,-4.46,-4.4098,-4.3878,-4.5308,-4.5443,-4.4491,-4.6136,-4.6943,-4.7055,-4.8108,-4.7755,-4.6402,-4.7163,-4.7017,-4.6465,-4.8827,-4.8901,-4.7806,-5.0213,-5.0195,-4.912,-5.0639,-5.0601,-4.9805,-4.9515,-4.9378,0.0,0.0,0.0,0.0,0.0,0.0,0.0,0.0,0.0,0.0,0.0,0.0,0.0,-5.1995,0.0,-5.3076,-5.4099,-5.368,-5.3408,-5.4179,-5.4326,-5.4546,-5.5317,-5.5559,-5.5596,-5.5596,-5.5596,-5.5537,-5.5537,-5.5537,-5.5537,-5.5537,-5.6308,-5.6785,-5.6785,-5.7483,-5.7923,-5.796,-5.7166,-5.5683,-5.3388,-5.1923,-5.083,-5.0039,-5.0093,-4.9726,-4.9018,-4.9729,-4.9695,-4.9052,-5.0507,-5.0744,-5.0132,-5.0843,-5.2011,-5.3549,-5.5097,-5.5772,-5.5905,-5.6624,-5.6394,-5.5638,-5.4878,-5.4139,-5.3518,0.0,0.0,0.0,0.0,0.0,0.0,-4.4279,-4.4199,-4.4107,0.0,0.0,0.0,-4.5838,-4.6146,-4.5703,-4.4065,-4.4218,-4.4338,-4.422,-4.4183,-4.4212,-4.4389,-4.425,-4.4495,-4.5287,-4.5095,-4.518,-4.5605,-4.5806,-4.5773,-4.5498,-4.6411,-4.6903,-4.7036,-4.7958,-4.8144,-4.7831,-4.9492,-4.9307,-4.8162,-5.0599,-5.058,-4.9233,-5.0485,-5.0998,-5.1089,-5.1001,-5.0875,-5.0671,-5.0195,-4.9025,-4.7292,0.0,0.0,0.0,0.0,0.0,0.0,-4.4265,0.0,0.0,0.0,0.0,0.0,0.0,0.0,-5.201,-5.2294,-5.2349,-5.238,-5.2601,-5.2197,-5.1867,-5.2087,-5.4069,-5.5596,-5.5596,-5.5097,-5.473,-5.473,-5.473,-5.473,-5.473,-5.5464,-5.5941,-5.5941,-5.6124,-5.6528,-5.7116,-5.5895,-5.4605,-5.3327,-5.187,-5.108,-5.0957,-5.035,-4.9697,-4.9018,-4.9221,-4.9187,-4.9018,-4.9424,-4.9767,-5.0032,-5.0238,-5.0885,-5.1917,-5.4047,-5.5597,-5.6624,-5.684,-5.6394,-5.5638,-5.4878,-5.4139,-5.3518,0.0,0.0,0.0,0.0,0.0,-4.4273,-4.4206,-4.4079,-4.4056,0.0,0.0,0.0,-4.6178,-4.5962,-4.5662,-4.5321,-4.5242,-4.5147,-4.5023,-4.4756,-4.4659,-4.4606,-4.4606,-4.5015,-4.5769,-4.5807,-4.5762,-4.5685,-4.6158,-4.6214,-4.5791,-4.681,-4.7358,-4.7511,-4.8084,0.0,0.0,-4.9583,-4.9529,-4.8845,-5.0855,-5.1189,-5.0601,-5.1981,-5.2548,-5.2676,-5.2917,-5.279,-5.2455,-5.2145,-5.0154,0.0,0.0,0.0,0.0,0.0,0.0,0.0,0.0,0.0,0.0,0.0,0.0,0.0,-4.8417,-4.9778,-5.1231,0.0,-5.2407,-5.2417,-5.205,-5.1903,-5.1683,-5.1353,-5.3151,-5.4363,-5.3702,-5.3188,-5.2894,-5.2894,-5.2894,-5.2894,-5.2894,-5.3922,-5.4583,-5.4583,-5.5207,-5.5647,-5.5794,-5.5003,-5.4104,-5.3267,-5.2437,-5.1876,-5.1661,-5.1197,-5.06,-4.9867,-5.0207,-5.0379,-5.0379,-5.0719,-5.0916,-5.0962,-5.0962,-5.1334,-5.2115,-5.3508,-5.4599,-5.5494,-5.649,-5.6191,-5.5179,-5.5098,-5.4422,-5.3518,0.0,0.0,-4.4701,-4.434,-4.4296,-4.431,-4.4162,-4.3961,-4.4099,0.0,-4.5296,-4.5915,-4.7097,-4.6116,-4.582,-4.6964,-4.6434,-4.5933,-4.5648,-4.552,-4.5462,-4.5398,-4.535,-4.5674,-4.6475,-4.6417,-4.6005,-4.525,-4.6434,-4.6616,-4.5953,-4.7265,-4.7999,-4.8207,-4.8267,0.0,0.0,0.0,-4.8716,-4.9176,-5.0446,-5.1154,-5.1694,-5.3857,-5.4256,-5.3874,-5.5159,-5.5149,-5.4491,-5.4332,-5.2017,0.0,0.0,0.0,0.0,0.0,-4.3629,0.0,0.0,0.0,0.0,0.0,0.0,0.0,-4.9284,-4.977,-5.0475,0.0,-5.27,-5.248,-5.1804,-5.2098,-5.2281,-5.1621,-5.2155,-5.2249,-5.1096,-5.0875,-5.0802,-5.0802,-5.0729,-5.0692,-5.0802,-5.2087,-5.2968,-5.3078,-5.4546,-5.5097,-5.4326,-5.4363,-5.4069,-5.3371,-5.3304,-5.3002,-5.2365,-5.2411,-5.2076,-5.1395,-5.2068,-5.2449,-5.2449,-5.3078,-5.2999,-5.2413,-5.2342,-5.2727,-5.3423,-5.3423,-5.3483,-5.3784,-5.5852,-5.576,-5.4578,-5.5327,-5.4699,-5.3518,0.0,0.0,-4.3869,-4.4028,-4.4023,-4.3992,-4.3976,-4.3783,-4.3945,-4.4736,-4.5753,-4.6461,-4.6783,-4.6928,-4.699,-4.6864,-4.6929,-4.6947,-4.7013,-4.6652,-4.6115,-4.5356,-4.5366,-4.5738,-4.6475,-4.5908,-4.6413,-4.8116,-4.6942,-4.6946,-4.7979,-4.7442,-4.7567,-4.8267,-4.8287,-4.8344,0.0,0.0,0.0,-5.0824,-5.1671,-5.1671,-5.1415,-5.3695,-5.4402,-5.4191,-5.3839,-5.4044,-5.4381,-5.3671,-5.2337,-5.0686,0.0,0.0,0.0,-4.4729,0.0,0.0,0.0,0.0,0.0,0.0,-4.7187,0.0,-4.7715,-4.8321,-4.8928,0.0,-4.959,-4.9698,-4.9516,-4.8634,-4.8093,-4.8463,-4.8887,-4.9785,-5.1536,-5.1206,-5.0802,-5.0802,-5.0215,-5.0088,-5.0729,-5.1096,-5.1536,-5.2197,-5.3702,-5.4289,-5.3482,-5.4069,-5.4326,-5.4179,-5.3558,-5.3526,-5.4086,-5.3423,-5.3064,-5.3043,-5.3185,-5.3256,-5.3256,-5.2768,-5.2737,-5.3061,-5.2426,-5.2915,-5.4188,-5.4188,-5.4576,-5.519,-5.5704,-5.5353,-5.4522,-5.475,-5.4264,-5.3518,0.0,-4.4121,-4.4131,-4.4004,-4.3992,-4.3929,-4.3886,-4.405,-4.4466,-4.5186,-4.604,-4.6628,-4.6816,-4.6873,-4.6985,-4.7292,-4.8069,-4.8217,-4.7494,-4.7814,-4.7367,-4.5999,-4.6318,-4.671,-4.707,-4.712,-4.7495,-4.8264,-4.7626,-4.7536,-4.7942,-4.77,-4.7843,-4.8306,-4.8804,-4.9026,0.0,0.0,-5.0285,-5.1213,-5.1445,0.0,-5.3055,-5.4512,-5.5052,-5.506,-5.5464,-5.5633,-5.553,-5.4678,-5.3361,0.0,-5.1064,-5.0112,-4.8901,0.0,-4.6908,-4.7657,0.0,0.0,0.0,-4.7013,0.0,0.0,0.0,-4.8205,-4.8645,-4.9211,-4.9394,-4.9409,-4.9053,-4.8675,-4.8421,-4.84,-4.9263,-5.0044,-5.0383,-5.0643,-5.0802,-5.0802,-5.0435,-5.0178,-5.0178,-5.0545,-5.1132,-5.194,-5.3115,-5.3628,-5.3203,-5.3592,-5.3812,-5.3812,-5.3812,-5.4027,-5.4487,-5.4451,-5.4493,-5.4543,-5.4941,-5.4941,-5.4543,-5.458,-5.4291,-5.3809,-5.3408,-5.3697,-5.4399,-5.4399,-5.4876,-5.5603,-5.568,-5.5186,-5.4494,-5.457,-5.4139,-5.3518,0.0,0.0,-4.4366,-4.4048,-4.3976,-4.3929,-4.3837,-4.4385,-4.5075,-4.5845,-4.6706,-4.731,-4.7463,-4.7413,-4.7886,-4.9078,-4.9732,-4.976,-4.9023,-4.923,-4.8765,-4.7399,-4.7582,-4.7776,-4.789,-4.8259,-4.8296,-4.791,-4.818,-4.8089,-4.7664,-4.8012,-4.8265,-4.8362,-4.9131,-4.9576,0.0,0.0,0.0,-5.1398,0.0,-5.2361,-5.433,-5.4954,-5.5272,-5.5581,-5.7028,-5.7116,-5.6492,-5.5772,-5.4473,-5.3058,-5.2688,-5.2132,0.0,0.0,0.0,0.0,0.0,0.0,0.0,0.0,0.0,-4.7267,0.0,0.0,0.0,-4.9306,-4.9495,-4.9336,-4.8786,-4.9018,-4.9177,-4.8771,-4.9922,-5.0365,-4.9061,-4.9925,-5.0591,-5.024,-5.0558,-5.0452,-4.9625,-5.0354,-5.1218,-5.194,-5.2684,-5.3103,-5.3203,-5.3203,-5.3203,-5.3203,-5.3849,-5.4326,-5.462,-5.528,-5.5706,-5.5831,-5.6492,-5.6381,-5.5611,-5.6124,-5.5647,-5.4399,-5.4252,-5.4326,-5.462,-5.462,-5.5207,-5.6021,-5.5605,-5.508,-5.4494,-5.4422,-5.4009,-5.3518,-4.4559,-4.3871,0.0,-4.3849,-4.3849,-4.3853,-4.3865,-4.4368,-4.5114,-4.6362,-4.8468,-4.9685,-4.9243,-5.0539,-5.219,0.0,-5.2086,-5.1801,-5.4148,-5.133,-4.9679,-4.9978,-4.8576,-4.807,-4.8676,-4.7475,-4.7553,-4.9015,-4.8059,-4.8007,-4.8793,-4.8458,-4.8381,-4.8475,-4.8592,-4.9143,0.0,0.0,-5.0916,0.0,-5.2035,-5.2259,0.0,-5.3444,-5.4117,-5.4733,-5.5581,-5.5794,-5.5721,0.0,-5.5181,-5.4474,0.0,-5.2377,-5.2795,-4.8321,0.0,0.0,0.0,0.0,0.0,0.0,-4.7716,0.0,0.0,0.0,-4.7322,-4.7361,0.0,-4.7326,-4.7254,0.0,0.0,-4.7169,-4.7738,-4.8264,-4.8677,-4.9691,-4.9762,-4.8254,-4.9699,-5.0391,-4.9366,-5.0517,-5.1529,-5.1956,-5.2397,-5.2828,-5.3203,-5.3203,-5.3203,-5.3203,-5.3277,-5.4032,-5.5427,-5.5559,-5.5941,-5.6675,-5.6748,-5.6381,-5.5596,-5.495,-5.4583,-5.4363,-5.3665,-5.4142,-5.5486,-5.5486,-5.6345,-5.7514,-5.5463,-5.4555,-5.4409,-5.3832,-5.3551,-5.3518,-4.4397,-4.4017,0.0,0.0,-4.3853,-4.3788,-4.3734,-4.4651,-4.577,-4.6995,-4.8104,-4.882,-4.8904,0.0,0.0,0.0,0.0,-5.2315,0.0,-5.1737,-5.0858,-5.1314,-4.9496,-4.8949,-4.987,-4.8765,-4.8536,-4.9279,-4.8573,-4.8469,-4.8925,-4.8513,-4.8325,-4.8418,-4.9044,0.0,-5.058,0.0,-5.2782,0.0,0.0,-5.3981,0.0,-5.467,-5.5463,-5.6448,-5.5816,-5.6198,-5.6895,-5.6387,-5.5693,0.0,0.0,0.0,0.0,-5.145,0.0,0.0,0.0,0.0,0.0,0.0,0.0,0.0,-4.7755,0.0,-4.7066,-4.702,0.0,0.0,0.0,0.0,0.0,0.0,-4.7715,-4.8077,-4.777,-4.9125,-4.9945,-4.9313,-4.9828,-5.0147,-4.9804,-5.055,-5.1297,-5.194,-5.2145,-5.2526,-5.3167,-5.3203,-5.3408,-5.3885,-5.3922,-5.4656,-5.6271,-5.6308,-5.6455,-5.6822,-5.6822,-5.6124,-5.4876,-5.4546,-5.4142,-5.3702,-5.3849,-5.4546,-5.5647,-5.6088,-5.6969,-5.7807,-5.592,-5.52,-5.5094,-5.4409,-5.3848,-5.3518,-4.4302,0.0,0.0,0.0,-4.3804,-4.3778,-4.3877,-4.5168,-4.6428,-4.7192,-4.8218,-4.8977,-4.921,-5.0744,0.0,0.0,-5.3977,-5.4038,0.0,0.0,-5.1918,-5.2284,-5.0576,0.0,-5.1387,-5.0183,-4.969,-4.9963,-4.9165,-4.8951,-4.9207,-4.8605,-4.8435,-4.8731,-4.9501,-5.0502,-5.1681,0.0,-5.4027,-5.5135,-5.479,-5.5307,-5.6251,-5.5815,-5.6367,-5.7189,-5.6014,-5.6492,-5.7556,-5.6703,-5.5948,-5.5543,-5.6543,-5.56,-5.3974,0.0,0.0,0.0,-5.0183,0.0,0.0,0.0,0.0,0.0,0.0,-4.6686,-4.6436,-4.6628,-4.6676,0.0,0.0,0.0,0.0,0.0,0.0,-4.7878,-4.716,-4.8349,-4.9242,-4.909,-4.9147,-4.9458,-5.0069,-5.0378,-5.078,-5.1449,-5.1705,-5.2129,-5.2858,-5.3298,-5.3812,-5.4363,-5.462,-5.539,-5.6785,-5.6822,-5.6822,-5.6822,-5.6602,-5.5757,-5.4399,-5.4179,-5.3739,-5.3261,-5.4069,-5.484,-5.5647,-5.6455,-5.7262,-5.7867,-5.6554,-5.5893,-5.561,-5.4668,-5.3979,-5.3518,-4.4229,-4.3998,0.0,0.0,0.0,-4.3772,-4.4562,-4.603,-4.6983,-4.6825,-4.9781,0.0,0.0,0.0,0.0,0.0,0.0,-5.7997,-5.838,0.0,-5.2844,0.0,0.0,-5.1832,0.0,-5.1278,-5.0715,-5.1611,-4.9723,-4.9248,-5.0024,-4.8863,-4.8806,-4.9731,-4.9734,-5.11,-5.3367,-5.2652,-5.3711,-5.5787,-5.487,-5.5426,-5.6698,-5.6014,-5.5735,-5.5647,-5.5611,-5.6124,-5.6689,-5.577,-5.5839,-5.6088,-5.4537,-5.4547,-5.4642,0.0,0.0,0.0,-5.0615,-5.0407,-5.0698,-4.9873,-4.8542,-4.7441,-4.7237,-4.5996,-4.5058,0.0,0.0,0.0,0.0,0.0,0.0,0.0,0.0,0.0,0.0,-4.7272,-4.6941,-4.6043,-4.6851,-4.8113,-4.9762,-4.9861,-4.9951,-5.0249,-5.0977,-5.158,-5.2013,-5.3518,-5.4363,-5.4399,-5.5133,-5.5941,-5.6785,-5.6822,-5.6822,-5.6785,-5.6014,-5.5207,-5.4363,-5.3592,-5.3203,-5.3261,-5.4069,-5.484,-5.5647,-5.6455,-5.7262,-5.7927,-5.7141,-5.6367,-5.5524,-5.4042,-5.3517,-5.3518,0.0,0.0,0.0,0.0,0.0,0.0,-4.6389,-4.7035,-4.8585,-5.1918,-5.3291,0.0,0.0,-5.9945,-6.1039,0.0,0.0,-5.9017,-5.9183,-5.5875,0.0,0.0,0.0,-5.224,0.0,0.0,-5.1499,-5.1744,-5.0333,-4.9821,-5.0098,-4.9491,-4.9357,-4.9669,-5.025,-5.1536,0.0,0.0,0.0,0.0,0.0,-5.661,-5.614,-5.6375,-5.6734,-5.7189,-5.7189,-5.7373,-5.7556,-5.7217,-5.6868,-5.6447,-5.5981,-5.5181,-5.425,-5.3425,-5.3571,-5.3781,-5.2854,-5.364,-5.4163,-5.2095,-5.1226,-5.0429,-4.8493,-4.7218,-4.6392,0.0,0.0,0.0,0.0,0.0,0.0,0.0,0.0,0.0,0.0,-4.6601,-4.6364,-4.6569,-4.7496,-4.8313,-4.8866,-4.9213,-4.9668,-5.0283,-5.0738,-5.1522,-5.2726,-5.3812,-5.4876,-5.5941,-5.6235,-5.6785,-5.7593,-5.7593,-5.7336,-5.6785,-5.5978,-5.5486,-5.517,-5.4363,-5.4289,-5.484,-5.5647,-5.6161,-5.6455,-5.7262,-5.774,-5.7867,-5.6606,-5.5948,-5.5581,-5.4606,-5.3913,-5.3518,-4.4281,0.0,0.0,0.0,0.0,-4.6042,-4.7411,-4.8633,-5.0815,0.0,-5.6256,0.0,-6.2886,0.0,-6.3397,0.0,-6.2581,-6.0806,-5.9153,-5.7516,0.0,-5.5566,-5.3982,-5.3609,0.0,0.0,0.0,0.0,-5.1262,-5.0711,-5.0952,-5.0415,-5.026,-5.0512,-5.1092,-5.2317,-5.4084,-5.441,-5.5656,0.0,0.0,-5.7522,0.0,-5.7065,-5.7395,-5.7698,-5.7909,-5.7997,-5.7997,-5.7997,-5.74,-5.6694,-5.6763,-5.5573,-5.4166,-5.4269,-5.4188,-5.407,-5.3734,-5.4875,-5.5606,-5.3172,-5.2663,-5.1986,-4.9203,-4.7983,-4.7263,-4.6794,0.0,0.0,0.0,0.0,0.0,0.0,0.0,0.0,0.0,-4.6534,-4.6427,-4.6926,-4.7335,-4.764,-4.7882,-4.8294,-4.8789,-4.9425,-5.0232,-5.1161,-5.2286,-5.3922,-5.528,-5.6345,-5.6932,-5.7483,-5.7997,-5.7997,-5.774,-5.7226,-5.6418,-5.6014,-5.5978,-5.517,-5.5097,-5.5633,-5.6161,-5.6528,-5.6859,-5.7373,-5.774,-5.7867,-5.6606,-5.5948,-5.5581,-5.4575,-5.3913,-5.3518,-4.4524,-4.4153,0.0,0.0,-4.5354,-4.6882,-4.7694,-5.0686,-5.3674,0.0,-5.8905,-6.1674,-6.3959,-6.5592,-6.6223,-6.54,-6.5336,-6.3443,-5.8855,-5.9756,0.0,0.0,-5.532,-5.5791,-5.5625,0.0,0.0,0.0,0.0,-5.1825,-5.2475,-5.1449,-5.1366,-5.212,-5.214,0.0,-5.5559,-5.4859,-5.5904,-5.7997,-5.7997,-5.796,-5.7923,-5.7997,-5.7588,-5.7089,-5.7749,-5.7997,-5.7997,-5.796,-5.7446,-5.6785,-5.6712,-5.5647,-5.4399,-5.4399,-5.4399,-5.4194,-5.3353,-5.4246,-5.5007,-5.3249,-5.2803,-5.2104,-4.9466,-4.8338,-4.7795,-4.7629,-4.7666,0.0,0.0,0.0,0.0,0.0,0.0,0.0,0.0,0.0,-4.6998,-4.6998,-4.6378,0.0,0.0,-4.7254,-4.7508,-4.7845,-4.9425,-5.054,-5.0892,-5.3849,-5.5574,-5.5647,-5.7189,-5.7997,-5.7997,-5.7997,-5.7997,-5.7997,-5.7189,-5.6822,-5.6822,-5.6014,-5.5706,-5.5743,-5.5706,-5.6124,-5.6859,-5.6822,-5.7262,-5.7927,-5.7202,-5.6367,-5.5466,-5.4044,-5.3518,-5.3518,-4.5126,-4.5317,-4.571,-4.6318,-4.6566,-4.7319,-4.9185,-5.2673,-5.6679,-6.1185,-6.4289,-6.7411,-7.0903,-7.0395,-6.9463,-6.8665,-6.7098,0.0,0.0,0.0,0.0,-5.8835,-5.758,-5.6557,-5.5768,-5.4965,-5.4354,-5.3981,0.0,-5.2419,-5.2587,-5.2155,-5.1959,-5.2055,-5.2688,-5.3955,-5.5596,-5.5521,-5.6456,-5.7997,-5.7997,-5.7675,-5.7302,-5.7822,-5.7588,-5.7089,-5.7749,-5.7997,-5.7923,-5.7299,-5.6969,-5.6602,-5.539,-5.473,-5.4399,-5.4399,-5.4399,-5.4473,-5.4855,-5.5236,-5.5397,-5.4838,-5.4267,-5.3478,-5.2047,-5.1624,-5.1005,-4.9128,-5.0635,-5.1704,-4.9698,-5.051,-5.0777,0.0,0.0,0.0,0.0,0.0,0.0,-4.6998,-4.7465,-4.7582,-4.7066,-4.7903,-4.8525,-4.8611,-4.9646,-5.093,-5.2506,-5.3705,-5.5021,-5.6455,-5.7483,-5.7997,-5.7997,-5.7997,-5.7997,-5.7997,-5.7189,-5.7116,-5.7666,-5.6859,-5.6822,-5.7336,-5.6748,-5.6969,-5.7666,-5.7042,-5.7262,-5.7927,-5.7202,-5.6067,-5.4757,-5.3815,-5.3518,-5.3518,-4.5589,-4.5782,-4.6411,-4.7239,-4.8576,-5.0231,-5.2319,-5.4096,-5.7311,-6.313,-6.5469,-6.7808,-7.112,-7.1103,-7.0555,-6.9849,-6.8095,0.0,-6.4423,0.0,0.0,-5.9535,-5.8275,-5.7007,-5.5735,-5.5147,0.0,-5.387,0.0,-5.3069,-5.3125,-5.2875,-5.2676,-5.261,0.0,-5.4018,-5.5184,-5.5919,-5.672,-5.7519,-5.785,-5.7785,0.0,-5.7836,-5.7785,-5.75,-5.7873,-5.7997,-5.7886,-5.7079,-5.6565,-5.6051,-5.4803,-5.4179,-5.3885,-5.3885,-5.3885,-5.3959,-5.4436,-5.4803,-5.506,-5.4972,-5.4899,-5.4474,-5.3171,-5.293,-5.244,-5.0723,-5.2032,-5.2937,-5.1228,-5.1732,-5.1499,0.0,0.0,0.0,0.0,0.0,0.0,0.0,-4.7423,-4.7621,-4.6987,-4.8429,-4.9133,-4.8424,-4.9445,-5.0424,-5.1179,-5.2921,-5.4387,-5.5519,-5.7157,-5.7997,-5.7997,-5.7997,-5.7997,-5.7997,-5.7556,-5.7556,-5.796,-5.7519,-5.7556,-5.796,-5.7152,-5.7262,-5.7923,-5.7152,-5.7262,-5.7867,-5.6799,-5.6067,-5.5443,-5.4011,-5.3518,-5.3518,-4.6263,-4.6343,0.0,0.0,-5.1166,-5.4569,-5.6441,-5.6366,-5.8181,-6.3925,-6.5411,-6.6572,-6.8319,-6.96,-7.0073,-6.9418,-6.8155,-6.6271,-6.3652,-6.3847,-6.25,-5.8895,-5.8456,-5.7528,-5.5889,-5.5085,-5.4478,0.0,0.0,-5.3694,-5.3961,-5.3538,-5.3339,-5.3318,0.0,0.0,0.0,-5.6206,-5.6859,-5.7042,-5.7703,-5.7997,-5.7997,-5.7886,-5.785,-5.7813,-5.7703,-5.774,-5.7703,-5.6932,-5.6124,-5.528,-5.4509,-5.3775,-5.3203,-5.3335,-5.3277,-5.3203,-5.3335,-5.3812,-5.4289,-5.4363,-5.4913,-5.5038,-5.3536,-5.3258,-5.3075,-5.2181,-5.2608,-5.3208,-5.3308,-5.2803,-5.1477,0.0,0.0,0.0,0.0,0.0,0.0,0.0,0.0,0.0,-4.6813,-4.8673,-4.9307,-4.791,-4.8981,-4.9523,-4.9097,-5.2014,-5.3822,-5.4109,-5.6649,-5.7997,-5.7997,-5.7997,-5.7997,-5.7997,-5.7997,-5.7997,-5.7997,-5.7997,-5.7997,-5.796,-5.7152,-5.7262,-5.7923,-5.7152,-5.7262,-5.7844,-5.6411,-5.6232,-5.6483,-5.4425,-5.3584,-5.3518,-4.8621,0.0,0.0,0.0,-5.4199,-5.8631,-6.0844,-6.3756,-6.63,-6.8051,-7.0603,-7.1482,-6.9452,-6.901,-6.8403,-6.7178,-6.6261,0.0,0.0,0.0,0.0,-6.167,-6.0554,-5.9108,-5.7195,-5.6171,-5.5706,0.0,0.0,-5.4127,-5.4778,-5.3973,-5.3518,0.0,0.0,0.0,-5.5708,-5.647,0.0,-5.7813,-5.7923,-5.7997,-5.7923,-5.7262,-5.7005,-5.6932,-5.6271,-5.6455,-5.6895,-5.6088,-5.528,-5.4473,-5.3665,-5.3314,-5.3335,-5.3995,-5.3739,-5.3314,-5.3995,-5.3812,-5.3592,-5.4216,-5.4509,-5.4546,-5.4231,-5.4671,-5.4745,-5.3256,-5.4099,-5.4884,-5.4137,-5.3167,-5.1989,-5.0604,-4.9788,0.0,0.0,0.0,0.0,0.0,0.0,-5.0243,-4.6956,-4.7944,-4.8668,-4.8379,-4.8542,-4.9383,-5.1005,-5.2028,-5.3426,-5.5229,-5.7056,-5.7997,-5.7997,-5.7997,-5.7997,-5.7997,-5.7997,-5.7997,-5.7997,-5.7997,-5.7997,-5.796,-5.7152,-5.7262,-5.7923,-5.7152,-5.7262,-5.7927,-5.704,-5.6367,-5.578,-5.4757,-5.4009,-5.3518,-4.9662,0.0,0.0,0.0,-5.7246,-6.1949,-6.535,-6.9084,-7.0959,-6.9398,-6.9709,-6.959,-6.8338,-6.8638,-6.8369,-6.7025,-6.6316,-6.5742,-6.5264,-6.3723,-6.2365,-6.1357,-5.9923,-5.8538,-5.7164,-5.6624,-5.624,-5.6027,-5.5246,-5.4859,-5.4922,-5.4452,-5.3964,-5.3518,0.0,-5.4445,0.0,0.0,-5.6638,-5.7409,-5.7813,-5.774,-5.7336,-5.6969,-5.6528,-5.6124,-5.5721,-5.5574,-5.55,-5.5097,-5.473,-5.4252,-5.3445,-5.3203,-5.3277,-5.3665,-5.3518,-5.3277,-5.3665,-5.3482,-5.3277,-5.3702,-5.3775,-5.3775,-5.3775,-5.4069,-5.4142,-5.3371,-5.4142,-5.4796,-5.4194,-5.289,-5.1697,-5.1115,-5.0626,-5.0482,0.0,0.0,-5.1424,0.0,0.0,0.0,0.0,-4.7533,-4.7836,-4.8403,-4.8416,-4.9077,-5.0635,-5.1697,-5.3044,-5.4669,-5.6864,-5.7997,-5.7997,-5.7997,-5.7997,-5.7997,-5.7997,-5.7997,-5.7997,-5.7997,-5.7997,-5.796,-5.7593,-5.7629,-5.796,-5.7593,-5.7666,-5.7927,-5.7202,-5.6668,-5.6177,-5.5029,-5.4391,-5.4044,-5.0895,-5.1384,0.0,-5.5491,-6.0248,-6.4807,-6.8193,-7.1965,-7.3442,-7.0716,-6.897,-6.7919,-6.7764,-6.8375,-6.8316,-6.7164,-6.6075,-6.4971,-6.3906,-6.2254,-6.1018,-6.0314,-5.8984,-5.7955,-5.7221,-5.6963,-5.6654,0.0,-5.5997,-5.5581,-5.5118,-5.4872,-5.4354,-5.3674,-5.389,-5.4716,-5.5892,-5.5845,-5.6308,-5.7116,-5.774,-5.7629,-5.7042,-5.6675,-5.6161,-5.5537,-5.5207,-5.4693,-5.4142,-5.4142,-5.4142,-5.4032,-5.3387,-5.3203,-5.3203,-5.3203,-5.3203,-5.3203,-5.3203,-5.3203,-5.3203,-5.3203,-5.3203,-5.3203,-5.3203,-5.3203,-5.3203,-5.3203,-5.3849,-5.4261,-5.3835,-5.2767,-5.1833,-5.1516,-5.1342,-5.1367,-5.1832,0.0,0.0,0.0,0.0,0.0,-4.8409,-4.7959,-4.7946,-4.8393,-4.8429,-4.8866,-4.9892,-5.1266,-5.2589,-5.3836,-5.6154,-5.7464,-5.7647,-5.7863,-5.7997,-5.7997,-5.7997,-5.7997,-5.7997,-5.7997,-5.7997,-5.7997,-5.7997,-5.7997,-5.7997,-5.7997,-5.7997,-5.795,-5.7376,-5.704,-5.6721,-5.532,-5.4726,-5.4482,-5.3495,0.0,-5.629,-5.767,-6.2974,-6.7054,-6.7107,-7.0812,-7.3731,-7.4139,-7.3394,-7.211,-7.0107,-6.8223,-6.6889,-6.6254,-6.3662,-6.2291,-6.2879,-6.141,-6.0324,-5.9966,-5.9374,-5.8909,-5.852,-5.7383,-5.7183,0.0,-5.6593,-5.586,-5.5771,-5.5172,-5.4394,-5.3575,-5.5032,-5.5744,-5.5859,-5.6426,-5.7152,-5.7886,-5.796,-5.796,-5.774,-5.6271,-5.5647,-5.539,-5.3959,-5.3408,-5.3314,-5.3314,-5.3314,-5.3298,-5.3203,-5.3203,-5.3203,-5.3203,-5.3203,-5.3203,-5.3203,-5.3203,-5.3203,-5.3203,-5.3203,-5.3203,-5.3203,-5.3203,-5.3203,-5.3203,-5.3849,-5.4114,-5.3105,-5.3581,-5.3792,-5.2783,-5.2842,-5.3485,-5.4935,0.0,-5.4078,-5.3677,0.0,0.0,-4.8803,-4.9947,-5.0209,-4.8601,-4.8439,-4.8888,-5.0039,-5.0783,-5.2022,-5.3753,-5.4805,-5.5689,-5.6357,-5.7454,-5.7997,-5.7997,-5.7997,-5.7997,-5.7997,-5.7997,-5.7997,-5.7997,-5.7997,-5.7997,-5.7997,-5.7997,-5.7997,-5.7997,-5.7927,-5.7474,-5.6773,-5.592,-5.5173,-5.4482,-5.557,-5.6818,-5.8496,-6.101,-6.4706,-6.8008,-7.0019,-7.1688,-7.2822,-7.3168,-7.2937,-7.2188,-7.0776,-6.9082,-6.7258,-6.5249,-6.369,-6.2405,-6.1435,-6.0309,-5.9632,-5.9493,-5.8846,-5.8405,-5.8282,-5.778,-5.7735,-5.8179,-5.7663,-5.7159,-5.6705,-5.6471,-5.6097,-5.566,-5.5244,-5.5865,-5.7199,-5.694,-5.7262,-5.796,-5.7483,-5.7005,-5.6418,-5.5317,-5.4583,-5.4069,-5.3424,-5.3203,-5.3203,-5.3203,-5.3203,-5.3203,-5.3203,-5.3203,-5.3203,-5.3203,-5.3203,-5.3203,-5.3203,-5.3203,-5.3203,-5.3203,-5.3203,-5.3203,-5.3203,-5.3203,-5.3203,-5.3203,-5.3482,-5.3549,-5.3133,-5.3251,-5.3361,-5.3075,-5.3398,-5.4137,-5.5427,0.0,0.0,-5.4942,0.0,-5.2462,0.0,-5.0371,-5.0159,-4.9383,-4.937,-4.9573,-4.9839,-5.1751,-5.3158,-5.3836,-5.5793,-5.6969,-5.7274,-5.7744,-5.7997,-5.7997,-5.7997,-5.7997,-5.7997,-5.7997,-5.7997,-5.7997,-5.7997,-5.7997,-5.7997,-5.7997,-5.7997,-5.7997,-5.7997,-5.7546,-5.6773,-5.6004,-5.5483,-5.5173,-5.7785,-5.8872,-6.0614,-6.3274,-6.5581,-6.7939,-7.0494,-7.0999,-7.1091,-7.1091,-7.1091,-7.0937,-7.0591,-6.9121,-6.7142,-6.4632,-6.3467,-6.2086,-6.0149,-5.9281,-5.8877,-5.8877,-5.829,-5.7904,-5.7679,-5.7904,-5.795,-5.7821,-5.8156,-5.7928,-5.7201,-5.7244,-5.7032,-5.6624,-5.5917,-5.6389,-5.7743,-5.7344,-5.7483,-5.7923,-5.7116,-5.6455,-5.5831,-5.4803,-5.4069,-5.3518,-5.3277,-5.3203,-5.3203,-5.3203,-5.3203,-5.3203,-5.3203,-5.3203,-5.3203,-5.3203,-5.3203,-5.3203,-5.3203,-5.3203,-5.3203,-5.3203,-5.3203,-5.3203,-5.3203,-5.3203,-5.3203,-5.3203,-5.3203,-5.3203,-5.3203,-5.3039,-5.2995,-5.3182,-5.3514,-5.4115,-5.5111,-5.5023,0.0,-5.5074,-5.3953,-5.2688,-5.1522,-5.123,-5.0778,-5.0031,-5.0642,-5.0766,-5.029,-5.2372,-5.3709,-5.3895,-5.6022,-5.7235,-5.7491,-5.7804,-5.7997,-5.7997,-5.7997,-5.7997,-5.7997,-5.7997,-5.7997,-5.7997,-5.7997,-5.7997,-5.7997,-5.7997,-5.7997,-5.7973,-5.775,-5.7619,-5.7453,-5.6443,-5.6335,-5.6619,-6.0172,-6.1534,-6.2895,-6.391,-6.5605,-6.6822,-6.686,-6.7789,-6.8462,-6.8462,-6.8462,-6.8783,-6.9629,-6.7859,-6.605,-6.4518,-6.2476,-6.0661,-5.9305,-5.8474,-5.7997,-5.7997,-5.7997,-5.7679,-5.6938,-5.7631,-5.7655,-5.6912,-5.7774,-5.7773,-5.7,-5.7073,-5.6565,-5.5706,-5.7398,-5.7669,-5.6859,-5.7666,-5.7997,-5.7923,-5.7116,-5.6785,-5.6602,-5.5023,-5.4399,-5.4289,-5.3482,-5.3203,-5.3203,-5.3203,-5.3203,-5.3203,-5.3203,-5.3203,-5.3203,-5.3203,-5.3203,-5.3203,-5.3203,-5.3203,-5.3203,-5.3203,-5.3203,-5.3203,-5.3203,-5.3203,-5.3203,-5.3203,-5.3203,-5.3203,-5.3203,-5.3203,-5.3203,-5.3203,-5.3203,-5.3497,-5.4289,-5.3739,0.0,-5.3763,-5.3918,-5.3285,-5.1573,-5.2935,-5.2921,-5.0395,-5.2044,-5.2715,-5.1645,-5.2302,-5.3072,-5.379,-5.4672,-5.5496,-5.62,-5.7394,-5.7997,-5.7997,-5.7997,-5.7997,-5.7997,-5.7997,-5.7997,-5.7997,-5.7997,-5.7997,-5.7997,-5.7997,-5.7997,-5.795,-5.7227,-5.7824,-5.9005,-5.7449,-5.7894,-5.906,-6.1858,-6.3368,-6.4653,-6.4605,-6.6116,-6.7197,-6.6881,-6.72,-6.7513,-6.7513,-6.7132,-6.6907,-6.7077,-6.6513,-6.5342,-6.3334,-6.1742,-6.0283,-5.8969,-5.8334,-5.7997,-5.7997,-5.7997,-5.7904,-5.7679,-5.7867,-5.7904,-5.7655,-5.802,-5.8068,-5.781,-5.728,-5.7125,-5.7226,-5.7234,-5.7359,-5.7629,-5.7886,-5.7997,-5.7886,-5.6528,-5.5978,-5.5794,-5.4179,-5.3592,-5.3555,-5.3277,-5.3203,-5.3203,-5.3203,-5.3203,-5.3203,-5.3203,-5.3203,-5.3203,-5.3203,-5.3203,-5.3203,-5.3203,-5.3203,-5.3203,-5.3203,-5.3203,-5.3203,-5.3203,-5.3203,-5.3203,-5.3203,-5.3203,-5.3203,-5.3203,-5.3203,-5.3203,-5.3203,-5.3203,-5.3482,-5.4289,-5.3702,-5.3476,-5.4137,-5.3734,-5.3463,-5.3478,-5.3441,-5.3507,-5.3599,-5.3689,-5.298,-5.1239,-5.3389,-5.4669,-5.4672,-5.6218,-5.7175,-5.7431,-5.7804,-5.7997,-5.7997,-5.7997,-5.7997,-5.7997,-5.7997,-5.7997,-5.7997,-5.7997,-5.7997,-5.7997,-5.7997,-5.7997,-5.7973,-5.775,-5.8286,-5.9089,-5.8093,-5.8709,-5.9915,-6.2705,-6.371,-6.4501,-6.4633,-6.55,-6.6167,-6.6157,-6.643,-6.6513,-6.6205,-6.5809,-6.5391,-6.496,-6.4628,-6.3962,-6.2703,-6.1435,-6.0133,-5.8791,-5.826,-5.7997,-5.7997,-5.7997,-5.7844,-5.757,-5.7844,-5.7844,-5.7607,-5.795,-5.8111,-5.8111,-5.7596,-5.7588,-5.796,-5.7483,-5.7519,-5.7997,-5.7997,-5.7813,-5.7446,-5.6124,-5.5427,-5.4987,-5.3702,-5.3203,-5.3203,-5.3203,-5.3203,-5.3203,-5.3203,-5.3203,-5.3203,-5.3203,-5.3203,-5.3203,-5.3203,-5.3203,-5.3203,-5.3203,-5.3203,-5.3203,-5.3203,-5.3203,-5.3203,-5.3203,-5.3203,-5.3203,-5.3203,-5.3203,-5.3203,-5.3203,-5.3203,-5.3203,-5.3203,-5.3203,-5.3408,-5.3885,-5.3518,-5.3308,-5.3676,-5.388,-5.4027,-5.4166,-5.4063,-5.4188,-5.4838,-5.4414,-5.374,-5.2727,-5.4734,-5.5871,-5.5756,-5.7208,-5.7997,-5.7997,-5.7997,-5.7997,-5.7997,-5.7997,-5.7997,-5.7997,-5.7997,-5.7997,-5.7997,-5.7997,-5.7997,-5.7997,-5.7997,-5.7997,-5.7973,-5.7703,-5.8445,-5.9553,-5.8823,-5.9733,-6.118,-6.2796,-6.277,-6.2937,-6.4084,-6.398,-6.4024,-6.481,-6.5364,-6.5436,-6.4628,-6.4512,-6.4205,-6.3397,-6.2589,-6.2247,-6.2633,-6.1413,-6.0096,-5.8925,-5.8356,-5.807,-5.807,-5.807,-5.7715,-5.6989,-5.7655,-5.7679,-5.6964,-5.7679,-5.7997,-5.7997,-5.7997,-5.7997,-5.7997,-5.7997,-5.7997,-5.7997,-5.7997,-5.7556,-5.6748,-5.5904,-5.5097,-5.4326,-5.3518,-5.3203,-5.3203,-5.3203,-5.3203,-5.3203,-5.3203,-5.3203,-5.3203,-5.3203,-5.3203,-5.3203,-5.3203,-5.3203,-5.3203,-5.3203,-5.3203,-5.3203,-5.3203,-5.3203,-5.3203,-5.3203,-5.3203,-5.3203,-5.3203,-5.3203,-5.3203,-5.3203,-5.3203,-5.3203,-5.3203,-5.313,-5.3151,-5.3167,-5.313,-5.3023,-5.2753,-5.4146,-5.4861,-5.409,-5.4729,-5.5071,-5.4649,-5.4561,-5.4891,-5.5699,-5.6204,-5.6583,-5.6873,-5.7593,-5.7997,-5.7997,-5.7997,-5.7997,-5.7997,-5.7997,-5.7997,-5.7997,-5.7997,-5.7997,-5.7997,-5.7997,-5.7997,-5.7997,-5.7997,-5.7997,-5.795,-5.7289,-5.8419,-6.031,-5.9699,-6.0872,-6.2705,-6.1688,-6.2216,-6.2704,-6.2959,-6.3255,-6.337,-6.3223,-6.3587,-6.3858,-6.3628,-6.3628,-6.3538,-6.332,-6.2589,-6.2373,-6.3054,-6.1026,-5.9827,-6.0134,-5.9366,-5.8914,-5.8914,-5.8914,-5.855,-5.775,-5.7927,-5.7927,-5.775,-5.7927,-5.7997,-5.7997,-5.7997,-5.7997,-5.7997,-5.7997,-5.7997,-5.7997,-5.7997,-5.7556,-5.6748,-5.5904,-5.5097,-5.4326,-5.3518,-5.3203,-5.3203,-5.3203,-5.3203,-5.3203,-5.3203,-5.3203,-5.3203,-5.3203,-5.3203,-5.3203,-5.3203,-5.3203,-5.3203,-5.3203,-5.3203,-5.3203,-5.3203,-5.3203,-5.3203,-5.3203,-5.3203,-5.3203,-5.3203,-5.3203,-5.3203,-5.3203,-5.3203,-5.3203,-5.3203,-5.2674,-5.2491,-5.3115,-5.2674,-5.269,-5.3851,-5.4349,-5.4972,-5.599,-5.5742,-5.588,-5.6765,-5.6267,-5.6267,-5.7094,-5.7242,-5.7447,-5.7703,-5.7886,-5.7997,-5.7997,-5.7997,-5.7997,-5.7997,-5.7997,-5.7997,-5.7997,-5.7997,-5.7997,-5.7997,-5.7997,-5.7997,-5.7997,-5.7997,-5.7997,-5.8033,-5.8493,-5.9358,-6.0432,-6.0872,-6.18,-6.278,-6.0649,-6.1131,-6.172,-6.2468,-6.2667,-6.2797,-6.2894,-6.3156,-6.3166,-6.2781,-6.2743,-6.2589,-6.2204,-6.1781,-6.1759,-6.2309,-6.0871,-6.0315,-6.1145,-6.0305,-5.9588,-5.9221,-5.9184,-5.8841,-5.8033,-5.7997,-5.7997,-5.7997,-5.7997,-5.7997,-5.7997,-5.7997,-5.7997,-5.7997,-5.7997,-5.7997,-5.7997,-5.7997,-5.7556,-5.6748,-5.6308,-5.5684,-5.4913,-5.4473,-5.4069,-5.3739,-5.3739,-5.3518,-5.3203,-5.3203,-5.3203,-5.3203,-5.3203,-5.3203,-5.3203,-5.3203,-5.3203,-5.3203,-5.3203,-5.3203,-5.3203,-5.3203,-5.3203,-5.3203,-5.3203,-5.3203,-5.3203,-5.3203,-5.3203,-5.3203,-5.3203,-5.3203,-5.3078,-5.2711,-5.2395,-5.2294,-5.2595,-5.2374,-5.2733,-5.4231,-5.473,-5.5427,-5.6675,-5.6418,-5.6447,-5.7188,-5.6836,-5.6762,-5.7201,-5.7567,-5.7857,-5.7997,-5.7997,-5.7997,-5.7997,-5.7997,-5.7997,-5.7997,-5.7997,-5.7997,-5.7997,-5.7997,-5.7997,-5.7997,-5.7997,-5.7997,-5.7997,-5.7997,-5.8217,-5.8584,-5.9038,-5.9942,-6.1006,-6.1447,-6.2108,-6.278,-5.9628,-5.9845,-6.0388,-6.1957,-6.1989,-6.2041,-6.2808,-6.2935,-6.2666,-6.1985,-6.1908,-6.1639,-6.0858,-6.0746,-6.0853,-6.1285,-6.0808,-6.0867,-6.1713,-6.0892,-6.0052,-5.9221,-5.9184,-5.8841,-5.8033,-5.7997,-5.7997,-5.7997,-5.7997,-5.7997,-5.7997,-5.7997,-5.7997,-5.7997,-5.7997,-5.7997,-5.7997,-5.7997,-5.7556,-5.6822,-5.6822,-5.6308,-5.5596,-5.5596,-5.5097,-5.4399,-5.4399,-5.3885,-5.3203,-5.3203,-5.3203,-5.3203,-5.3203,-5.3203,-5.3203,-5.3203,-5.3203,-5.3203,-5.3203,-5.3203,-5.3203,-5.3203,-5.3203,-5.3203,-5.3203,-5.3203,-5.3203,-5.3203,-5.3203,-5.3203,-5.3203,-5.3203,-5.302,-5.2391,-5.2309,-5.2308,-5.2291,-5.2419,-5.3022,-5.4429,-5.528,-5.6088,-5.6895,-5.6969,-5.6969,-5.6969,-5.6969,-5.6969,-5.6969,-5.7629,-5.7997,-5.7997,-5.7997,-5.7997,-5.7997,-5.7997,-5.7997,-5.7997,-5.7997,-5.7997,-5.7997,-5.7997,-5.7997,-5.7997,-5.7997,-5.7997,-5.7997,-5.7997,-5.8474,-5.9184,-5.9331,-6.0309,-6.1594,-6.1741,-6.2218,-6.278,-5.8818,-5.8927,-5.9233,-6.0304,-6.0428,-6.0567,-6.113,-6.1204,-6.1127,-6.1012,-6.1012,-6.0935,-6.0819,-6.0456,-6.0519,-6.13,-6.0527,-6.0343,-6.1164,-6.0683,-6.0052,-5.9221,-5.9184,-5.8841,-5.8033,-5.7997,-5.7997,-5.7997,-5.7997,-5.7997,-5.7997,-5.7997,-5.7997,-5.7997,-5.7997,-5.7997,-5.7997,-5.7997,-5.7556,-5.6822,-5.6822,-5.6308,-5.5596,-5.5596,-5.5097,-5.4399,-5.4399,-5.3885,-5.3203,-5.3203,-5.3203,-5.3203,-5.3203,-5.3203,-5.3203,-5.3203,-5.3203,-5.3203,-5.3203,-5.3203,-5.3203,-5.3203,-5.3203,-5.3203,-5.3203,-5.3203,-5.3203,-5.3203,-5.3203,-5.3203,-5.3203,-5.3203,-5.3265,-5.3504,-5.2711,-5.241,-5.3372,-5.3259,-5.3653,-5.5244,-5.6124,-5.6932,-5.774,-5.7813,-5.7813,-5.7813,-5.7813,-5.7813,-5.7813,-5.7923,-5.7997,-5.7997,-5.7997,-5.7997,-5.7997,-5.7997,-5.7997,-5.7997,-5.7997,-5.7997,-5.7997,-5.7997,-5.7997,-5.7997,-5.7997,-5.7997,-5.7997,-5.7997,-5.8474,-5.9258,-5.9942,-6.0786,-6.1667,-6.2365,-6.267,-6.278,-5.8282,-5.8716,-5.9212,-5.9625,-6.0146,-6.0533,-6.0757,-6.0781,-6.0781,-6.0781,-6.0781,-6.0781,-6.0781,-6.0365,-6.0319,-6.092,-6.0285,-5.9924,-6.0063,-6.0267,-6.0052,-5.9221,-5.9184,-5.8841,-5.8033,-5.7997,-5.7997,-5.7997,-5.7997,-5.7997,-5.7997,-5.7997,-5.7997,-5.7997,-5.7997,-5.7997,-5.7997,-5.7997,-5.7776,-5.7446,-5.7446,-5.6969,-5.6235,-5.6235,-5.5464,-5.4399,-5.4399,-5.3885,-5.3203,-5.3203,-5.3203,-5.3203,-5.3203,-5.3203,-5.3203,-5.3203,-5.3203,-5.3203,-5.3203,-5.3203,-5.3203,-5.3203,-5.3203,-5.3203,-5.3203,-5.3203,-5.3314,-5.3775,-5.3849,-5.3849,-5.3849,-5.3849,-5.3784,-5.35,-5.2791,-5.2514,-5.3346,-5.3448,-5.3967,-5.5442,-5.6308,-5.7116,-5.7923,-5.7997,-5.7997,-5.7997,-5.7997,-5.7997,-5.7997,-5.7997,-5.7997,-5.7997,-5.7997,-5.7997,-5.7997,-5.7997,-5.7997,-5.7997,-5.7997,-5.7997,-5.7997,-5.7997,-5.7997,-5.7997,-5.7997,-5.7997,-5.8033,-5.8474,-5.9134,-5.9942,-6.075,-6.1557,-6.2291,-6.2658,-6.3099,-6.3429,-5.8348,-5.8913,-5.9424,-5.9526,-6.0161,-6.0736,-6.1038,-6.0935,-6.0858,-6.1089,-6.0935,-6.0781,-6.0781,-6.0297,-6.0058,-6.0295,-5.9769,-5.9316,-5.8938,-5.9501,-5.9575,-5.8951,-5.8914,-5.8621,-5.7997,-5.7997,-5.7997,-5.7997,-5.7997,-5.7997,-5.7997,-5.7997,-5.7997,-5.7997,-5.7997,-5.7997,-5.7997,-5.7997,-5.7997,-5.796,-5.7813,-5.7336,-5.6785,-5.6602,-5.5647,-5.4399,-5.4399,-5.3885,-5.3203,-5.3203,-5.3203,-5.3203,-5.3203,-5.3203,-5.3203,-5.3203,-5.3203,-5.3203,-5.3203,-5.3203,-5.3203,-5.3203,-5.3203,-5.3203,-5.3203,-5.3314,-5.3665,-5.4289,-5.4546,-5.4693,-5.4693,-5.4693,-5.4524,-5.3976,-5.3476,-5.3335,-5.3822,-5.4155,-5.4729,-5.575,-5.6602,-5.7336,-5.7923,-5.7997,-5.7997,-5.7997,-5.7997,-5.7997,-5.7997,-5.7997,-5.7997,-5.7997,-5.7997,-5.7997,-5.7997,-5.7997,-5.7997,-5.7997,-5.7997,-5.7997,-5.7997,-5.7997,-5.7997,-5.7997,-5.7997,-5.7997,-5.807,-5.8877,-5.9661,-6.0493,-6.13,-6.2108,-6.278,-6.278,-6.3356,-6.398,-5.9284,-5.9337,-5.9526,-5.9962,-6.0118,-6.0578,-6.1822,-6.132,-6.1089,-6.1908,-6.1281,-6.0781,-6.0781,-5.9977,-5.9462,-5.9502,-5.8681,-5.8116,-5.807,-5.8143,-5.8143,-5.8107,-5.8107,-5.807,-5.7997,-5.7997,-5.7997,-5.7997,-5.7997,-5.7997,-5.7997,-5.7997,-5.7997,-5.7997,-5.7997,-5.7997,-5.7997,-5.7997,-5.7997,-5.7923,-5.7189,-5.6859,-5.6712,-5.5978,-5.5133,-5.4399,-5.4399,-5.3885,-5.3203,-5.3203,-5.3203,-5.3203,-5.3203,-5.3203,-5.3203,-5.3203,-5.3203,-5.3203,-5.3203,-5.3203,-5.3203,-5.3203,-5.3203,-5.3203,-5.3203,-5.3775,-5.4326,-5.4399,-5.4987,-5.55,-5.55,-5.55,-5.5609,-5.5933,-5.562,-5.5491,-5.5933,-5.6314,-5.6593,-5.6712,-5.7409,-5.7923,-5.7997,-5.7997,-5.7997,-5.7997,-5.7997,-5.7997,-5.7997,-5.7997,-5.7997,-5.7997,-5.7997,-5.7997,-5.7997,-5.7997,-5.7997,-5.7997,-5.7997,-5.7997,-5.7997,-5.7997,-5.7997,-5.7997,-5.7997,-5.7997,-5.807,-5.8877,-5.9661,-6.0493,-6.13,-6.2108,-6.278,-6.278,-6.3356,-6.409,-5.9389,-5.9625,-5.9885,-6.0089,-6.0338,-6.0725,-6.1231,-6.1012,-6.0935,-6.1243,-6.1012,-6.0781,-6.0781,-6.0203,-5.9728,-5.9424,-5.8796,-5.8326,-5.802,-5.7997,-5.7997,-5.7997,-5.7997,-5.7997,-5.7997,-5.7997,-5.7997,-5.7997,-5.7997,-5.7997,-5.7997,-5.7997,-5.7997,-5.7997,-5.7997,-5.7703,-5.7262,-5.7262,-5.6969,-5.6455,-5.6161,-5.5757,-5.528,-5.495,-5.4363,-5.3665,-5.3665,-5.3482,-5.3203,-5.3203,-5.3203,-5.3203,-5.3203,-5.3203,-5.3203,-5.3203,-5.3203,-5.3314,-5.3812,-5.3959,-5.3959,-5.3959,-5.4326,-5.4693,-5.4693,-5.4913,-5.528,-5.5794,-5.6124,-5.6345,-5.6345,-5.6345,-5.641,-5.6543,-5.6035,-5.5823,-5.647,-5.6694,-5.6822,-5.6822,-5.7519,-5.7997,-5.7997,-5.7997,-5.7997,-5.7997,-5.7997,-5.7997,-5.7997,-5.7997,-5.7997,-5.7997,-5.7997,-5.7997,-5.7997,-5.7997,-5.7997,-5.7997,-5.7997,-5.7997,-5.7997,-5.7997,-5.7997,-5.8033,-5.8547,-5.8767,-5.8877,-6.0162,-6.086,-6.1227,-6.2034,-6.2548,-6.278,-6.278,-6.3686,-6.4787,-5.9883,-6.0113,-6.0324,-6.0324,-6.0597,-6.0896,-6.1166,-6.0973,-6.0896,-6.1166,-6.0973,-6.0781,-6.0781,-6.0365,-5.9962,-5.9625,-5.9065,-5.8549,-5.8238,-5.8074,-5.7997,-5.7997,-5.7997,-5.7997,-5.7997,-5.7997,-5.7997,-5.7997,-5.7997,-5.7997,-5.7997,-5.7997,-5.7997,-5.7997,-5.7997,-5.7556,-5.6822,-5.6822,-5.6345,-5.5596,-5.5317,-5.4876,-5.4363,-5.4106,-5.3702,-5.3203,-5.3203,-5.3203,-5.3203,-5.3203,-5.3203,-5.3203,-5.3203,-5.3203,-5.3203,-5.3203,-5.3203,-5.3408,-5.4179,-5.4583,-5.4766,-5.4766,-5.517,-5.5596,-5.5596,-5.5794,-5.6124,-5.6712,-5.7005,-5.7189,-5.7189,-5.7189,-5.7189,-5.7189,-5.6712,-5.6528,-5.7116,-5.7189,-5.7189,-5.7189,-5.7666,-5.7997,-5.7997,-5.7997,-5.7997,-5.7997,-5.7997,-5.7997,-5.7997,-5.7997,-5.7997,-5.7997,-5.7997,-5.7997,-5.7997,-5.7997,-5.7997,-5.7997,-5.7997,-5.7997,-5.7997,-5.8253,-5.84,-5.8437,-5.9245,-5.9588,-5.9661,-6.1043,-6.1594,-6.1667,-6.2511,-6.278,-6.2817,-6.3099,-6.409,-6.5264,-6.0997,-6.0874,-6.0781,-6.0781,-6.0781,-6.1089,-6.1947,-6.1358,-6.1089,-6.1985,-6.1331,-6.0781,-6.0781,-6.0378,-6.0103,-6.0103,-5.9248,-5.8733,-5.8713,-5.826,-5.7997,-5.7997,-5.7997,-5.7997,-5.7997,-5.7997,-5.7997,-5.7997,-5.7997,-5.7997,-5.7997,-5.7997,-5.7997,-5.7997,-5.7997,-5.7556,-5.6785,-5.6785,-5.6308,-5.55,-5.4693,-5.4399,-5.4289,-5.3518,-5.3203,-5.3203,-5.3203,-5.3203,-5.3203,-5.3203,-5.3203,-5.3203,-5.3203,-5.3203,-5.3203,-5.3203,-5.3203,-5.3408,-5.4216,-5.4987,-5.5596,-5.5633,-5.5611,-5.5611,-5.5611,-5.6235,-5.6822,-5.6822,-5.7446,-5.7997,-5.7997,-5.7997,-5.7997,-5.7997,-5.7997,-5.7997,-5.7997,-5.7997,-5.7997,-5.7997,-5.7997,-5.7997,-5.7997,-5.7997,-5.7997,-5.7997,-5.7997,-5.7997,-5.7997,-5.7997,-5.7997,-5.7997,-5.7997,-5.7997,-5.7997,-5.7997,-5.7997,-5.7997,-5.7997,-5.7997,-5.8033,-5.8841,-5.9184,-5.9258,-6.0052,-6.0419,-6.0456,-6.1263,-6.1594,-6.1704,-6.2511,-6.278,-6.289,-6.3759,-6.4604,-6.5411,-6.0997,-6.0874,-6.0781,-6.0781,-6.0781,-6.0896,-6.1127,-6.0973,-6.0896,-6.1127,-6.0973,-6.0781,-6.0781,-6.0659,-6.0469,-6.0132,-5.9855,-5.9389,-5.8736,-5.826,-5.7997,-5.7997,-5.7997,-5.7997,-5.7997,-5.7997,-5.7997,-5.7997,-5.7997,-5.7997,-5.7997,-5.7997,-5.7997,-5.796,-5.7409,-5.6712,-5.5904,-5.5354,-5.4656,-5.3922,-5.3665,-5.3555,-5.3555,-5.3277,-5.3203,-5.3203,-5.3203,-5.3203,-5.3203,-5.3203,-5.3203,-5.3203,-5.3203,-5.3203,-5.3314,-5.3885,-5.3665,-5.3607,-5.5574,-5.5831,-5.5721,-5.6308,-5.6859,-5.7262,-5.7262,-5.7483,-5.7629,-5.7629,-5.7813,-5.7997,-5.7997,-5.7997,-5.7997,-5.7997,-5.7997,-5.7997,-5.7997,-5.7997,-5.7997,-5.7997,-5.7997,-5.7997,-5.7997,-5.851,-5.8621,-5.8033,-5.851,-5.8841,-5.8841,-5.8841,-5.8584,-5.8033,-5.7997,-5.7997,-5.7997,-5.7997,-5.7997,-5.7997,-5.7997,-5.829,-5.8877,-5.9074,-5.9515,-6.0089,-6.0896,-6.1227,-6.13,-6.2108,-6.2438,-6.2475,-6.2732,-6.3172,-6.3723,-6.398,-6.4971,-6.6182,-6.1014,-6.0874,-6.0781,-6.0781,-6.0781,-6.0781,-6.0781,-6.0781,-6.0781,-6.0781,-6.0781,-6.0781,-6.0781,-6.0781,-6.071,-6.0391,-6.0203,-5.969,-5.8756,-5.8439,-5.8172,-5.802,-5.7997,-5.7997,-5.7997,-5.7997,-5.7997,-5.7997,-5.7997,-5.7997,-5.7997,-5.7997,-5.7997,-5.796,-5.7152,-5.6345,-5.5559,-5.473,-5.3959,-5.3203,-5.3203,-5.3203,-5.3203,-5.3203,-5.3203,-5.3203,-5.3203,-5.3203,-5.3203,-5.3203,-5.3203,-5.324,-5.3592,-5.3482,-5.3298,-5.3775,-5.3812,-5.4069,-5.5831,-5.6198,-5.6271,-5.7079,-5.7629,-5.7997,-5.7997,-5.7997,-5.7997,-5.7997,-5.7997,-5.7997,-5.7997,-5.7997,-5.7997,-5.7997,-5.7997,-5.7997,-5.7997,-5.7997,-5.7997,-5.7997,-5.829,-5.8474,-5.8474,-5.9208,-5.9465,-5.8988,-5.9391,-5.9661,-5.9661,-5.9661,-5.9465,-5.8951,-5.8951,-5.8951,-5.8951,-5.8951,-5.8621,-5.7997,-5.8327,-5.8731,-5.9221,-5.9869,-6.0419,-6.0933,-6.1741,-6.2071,-6.2108,-6.2622,-6.278,-6.278,-6.278,-6.3135,-6.3613,-6.398,-6.4897,-6.6072,-6.1073,-6.0884,-6.0819,-6.0896,-6.0858,-6.0819,-6.0896,-6.0858,-6.0781,-6.0781,-6.0781,-6.0781,-6.0781,-6.0781,-6.0781,-6.0781,-6.0365,-5.9744,-5.8815,-5.8696,-5.8503,-5.802,-5.7997,-5.7997,-5.7997,-5.7997,-5.7997,-5.7997,-5.7997,-5.7997,-5.7997,-5.7997,-5.796,-5.785,-5.7042,-5.6235,-5.5427,-5.462,-5.3885,-5.3203,-5.3203,-5.3203,-5.3203,-5.3203,-5.3261,-5.3298,-5.3203,-5.3277,-5.3387,-5.3335,-5.3314,-5.3445,-5.4179,-5.3959,-5.3424,-5.3497,-5.3995,-5.4693,-5.5574,-5.6308,-5.7005,-5.7813,-5.7997,-5.7997,-5.7997,-5.7997,-5.7997,-5.7997,-5.7997,-5.7997,-5.7997,-5.7997,-5.7997,-5.7997,-5.7997,-5.8033,-5.8107,-5.8107,-5.8143,-5.8217,-5.8877,-5.9294,-5.9294,-5.9979,-6.0456,-6.0603,-6.0566,-6.0529,-6.0529,-6.0529,-6.0456,-6.0419,-6.0419,-6.0419,-6.0419,-6.0419,-5.9648,-5.8217,-5.8988,-5.9331,-5.9441,-6.0933,-6.163,-6.1741,-6.2475,-6.278,-6.278,-6.278,-6.278,-6.278,-6.278,-6.2879,-6.3025,-6.387,-6.4714,-6.5521,-6.124,-6.1011,-6.1012,-6.1716,-6.1243,-6.1012,-6.1716,-6.1243,-6.0781,-6.0781,-6.0781,-6.0781,-6.0781,-6.0781,-6.0781,-6.0781,-6.0365,-5.9855,-5.9284,-5.8913,-5.8503,-5.802,-5.7997,-5.7997,-5.7997,-5.7997,-5.7997,-5.7997,-5.7997,-5.7997,-5.7997,-5.7997,-5.7666,-5.7042,-5.6198,-5.539,-5.462,-5.3812,-5.3371,-5.3203,-5.3203,-5.3203,-5.3203,-5.3203,-5.3592,-5.4069,-5.3424,-5.3995,-5.4987,-5.4363,-5.4142,-5.4179,-5.4363,-5.4693,-5.5207,-5.5831,-5.5684,-5.5647,-5.7079,-5.7152,-5.7005,-5.7813,-5.7997,-5.7997,-5.7997,-5.7997,-5.7997,-5.7997,-5.7997,-5.7997,-5.7997,-5.7997,-5.7997,-5.7997,-5.7997,-5.8217,-5.8877,-5.8927,-5.9171,-5.9795,-6.0052,-6.0162,-6.0162,-6.0309,-6.0933,-6.2181,-6.1704,-6.1337,-6.1337,-6.1337,-6.1043,-6.0419,-6.0419,-6.0419,-6.0419,-6.0419,-6.0236,-5.9869,-6.0052,-6.0456,-6.108,-6.1447,-6.1924,-6.2548,-6.2707,-6.278,-6.278,-6.278,-6.278,-6.278,-6.278,-6.3209,-6.3906,-6.4751,-6.5558,-6.6366,-6.1179,-6.0964,-6.0935,-6.1408,-6.1089,-6.0935,-6.1408,-6.1089,-6.0781,-6.0781,-6.0781,-6.0781,-6.0781,-6.0781,-6.0781,-6.0781,-6.0597,-6.0146,-5.9441,-5.9158,-5.8696,-5.8042,-5.7997,-5.7997,-5.7997,-5.7997,-5.7997,-5.7997,-5.7997,-5.7997,-5.7997,-5.7997,-5.7776,-5.7336,-5.6528,-5.5941,-5.5464,-5.4289,-5.3775,-5.3739,-5.3371,-5.3203,-5.3203,-5.3203,-5.3482,-5.3775,-5.3371,-5.3739,-5.4509,-5.484,-5.473,-5.4546,-5.5317,-5.5574,-5.5706,-5.6088,-5.6198,-5.6345,-5.7189,-5.7409,-5.7483,-5.7886,-5.7997,-5.7997,-5.7997,-5.7997,-5.7997,-5.7997,-5.7997,-5.7997,-5.7997,-5.7997,-5.8143,-5.851,-5.8584,-5.8841,-5.9685,-5.9795,-5.9942,-6.0346,-6.075,-6.1117,-6.152,-6.1557,-6.1887,-6.2743,-6.2401,-6.2181,-6.2181,-6.2181,-6.1998,-6.1557,-6.1557,-6.1557,-6.1557,-6.1557,-6.1557,-6.1557,-6.1153,-6.119,-6.1594,-6.1998,-6.2401,-6.278,-6.278,-6.278,-6.278,-6.278,-6.278,-6.278,-6.278,-6.3099,-6.3576,-6.442,-6.5485,-6.6623,-6.1089,-6.0905,-6.0858,-6.1012,-6.0896,-6.0858,-6.1012,-6.0896,-6.0781,-6.0781,-6.0781,-6.0781,-6.0781,-6.0781,-6.0781,-6.0781,-6.0781,-6.0391,-5.9458,-5.9389,-5.899,-5.8042,-5.7997,-5.7997,-5.7997,-5.7997,-5.7997,-5.7997,-5.7997,-5.7997,-5.7997,-5.7997,-5.7923,-5.7776,-5.7116,-5.6638,-5.6308,-5.4987,-5.4326,-5.4142,-5.3482,-5.3203,-5.3203,-5.3203,-5.3277,-5.3408,-5.324,-5.3277,-5.3628,-5.5097,-5.5244,-5.506,-5.6381,-5.6455,-5.6037,-5.6037,-5.6492,-5.7005,-5.7005,-5.7483,-5.7997,-5.7997,-5.7997,-5.7997,-5.7997,-5.7997,-5.7997,-5.7997,-5.8107,-5.8143,-5.8033,-5.8217,-5.8584,-5.9111,-5.9294,-5.9685,-6.0493,-6.0603,-6.0676,-6.0786,-6.141,-6.2071,-6.2768,-6.278,-6.278,-6.278,-6.278,-6.278,-6.278,-6.278,-6.278,-6.278,-6.278,-6.278,-6.278,-6.278,-6.278,-6.278,-6.2108,-6.1814,-6.1814,-6.2511,-6.278,-6.278,-6.278,-6.278,-6.278,-6.278,-6.278,-6.278,-6.278,-6.278,-6.289,-6.3943,-6.5301,-6.6806,-6.1259,-6.102,-6.105,-6.1793,-6.1281,-6.105,-6.1831,-6.1293,-6.0781,-6.0781,-6.0781,-6.0781,-6.0781,-6.0781,-6.0781,-6.0781,-6.0781,-6.0391,-5.9458,-5.9389,-5.899,-5.8042,-5.7997,-5.7997,-5.7997,-5.7997,-5.7997,-5.7997,-5.7997,-5.7997,-5.7997,-5.7997,-5.7629,-5.6969,-5.6859,-5.6051,-5.473,-5.4473,-5.3995,-5.3371,-5.3261,-5.3203,-5.3203,-5.3203,-5.3628,-5.4142,-5.3445,-5.3665,-5.4363,-5.528,-5.5978,-5.6528,-5.6748,-5.7189,-5.7666,-5.7666,-5.774,-5.785,-5.785,-5.7923,-5.7997,-5.7997,-5.7997,-5.7997,-5.7997,-5.7997,-5.7997,-5.7997,-5.8547,-5.8841,-5.8143,-5.9134,-5.9905,-5.9294,-5.9795,-6.0529,-6.13,-6.1447,-6.1704,-6.2401,-6.2585,-6.2695,-6.278,-6.278,-6.278,-6.278,-6.278,-6.278,-6.278,-6.278,-6.278,-6.278,-6.278,-6.278,-6.278,-6.278,-6.278,-6.278,-6.2695,-6.2658,-6.2658,-6.2743,-6.278,-6.278,-6.278,-6.278,-6.278,-6.278,-6.278,-6.278,-6.278,-6.278,-6.2964,-6.4567,-6.6145,-6.754,-6.1301,-6.1491,-6.1587,-6.1393,-6.1447,-6.1473,-6.1408,-6.105,-6.0781,-6.0781,-6.0781,-6.0781,-6.0781,-6.0781,-6.0781,-6.0781,-6.0781,-6.0391,-5.9458,-5.9389,-5.899,-5.8042,-5.7997,-5.7997,-5.7997,-5.7997,-5.7997,-5.7997,-5.7997,-5.7997,-5.7997,-5.7997,-5.7813,-5.7483,-5.7483,-5.7079,-5.6381,-5.5941,-5.528,-5.4509,-5.4069,-5.3592,-5.3203,-5.3203,-5.3445,-5.3739,-5.3849,-5.4399,-5.517,-5.6014,-5.6528,-5.6895,-5.7336,-5.7703,-5.7997,-5.7997,-5.7997,-5.7997,-5.7997,-5.7997,-5.7997,-5.7997,-5.7997,-5.7997,-5.7997,-5.7997,-5.8143,-5.8584,-5.8927,-5.9221,-5.9318,-5.9905,-6.0419,-6.0529,-6.086,-6.1337,-6.2181,-6.2291,-6.2401,-6.2768,-6.278,-6.278,-6.278,-6.278,-6.2592,-6.2156,-6.2541,-6.2412,-6.152,-6.1888,-6.1942,-6.1464,-6.1915,-6.2348,-6.2794,-6.2786,-6.3257,-6.42,-6.3246,-6.278,-6.278,-6.278,-6.278,-6.278,-6.278,-6.278,-6.278,-6.278,-6.278,-6.278,-6.278,-6.3367,-6.4284,-6.5044,-6.6329,-6.7687]},{"header":{"parameterUnit":"m.s-1","parameterCategory":1,"la1":30.6,"la2":28.766,"lo1":-90.7593,"lo2":-88.6598,"dy":0.0162,"dx":0.0183,"nx":116,"ny":114,"refTime":"2023-04-26T18:00:00:Z","depth":0,"parameterNumber":3,"parameterNumberName":"V-component_of_WINDS"},"data":[0.0,0.0,0.0,0.0,0.0,0.0,0.0,0.0,0.0,0.0,0.0,0.0,0.0,0.0,0.0,0.0,0.0,0.0,0.0,0.0,0.0,0.0,0.0,0.0,0.0,0.0,0.0,0.0,0.0,0.0,0.0,0.0,0.0,0.0,0.0,0.0,0.0,0.0,0.0,0.0,0.0,0.0,0.0,0.0,0.0,0.0,0.0,0.0,0.0,0.0,0.0,0.0,0.0,0.0,0.0,0.0,0.0,0.0,0.0,0.0,0.0,0.0,0.0,0.0,0.0,0.0,0.0,0.0,0.0,0.0,0.0,0.0,0.0,0.0,0.0,0.0,0.0,0.0,0.0,0.0,0.0,0.0,0.0,0.0,0.0,0.0,0.0,0.0,0.0,0.0,0.0,0.0,0.0,0.0,0.0,0.0,0.0,0.0,0.0,0.0,0.0,0.0,0.0,0.0,0.0,0.0,0.0,0.0,0.0,0.0,0.0,0.0,0.0,0.0,0.0,0.0,0.0,0.0,0.0,0.0,0.0,0.0,0.0,0.0,0.0,0.0,0.0,0.0,0.0,0.0,0.0,0.0,0.0,0.0,0.0,0.0,0.0,0.0,0.0,0.0,0.0,0.0,0.0,0.0,0.0,0.0,0.0,0.0,0.0,0.0,0.0,0.0,0.0,0.0,0.0,0.0,0.0,0.0,0.0,0.0,0.0,0.0,0.0,0.0,0.0,0.0,0.0,0.0,0.0,0.0,0.0,0.0,0.0,0.0,0.0,0.0,0.0,0.0,0.0,0.0,0.0,0.0,0.0,0.0,0.0,0.0,0.0,0.0,0.0,0.0,0.0,0.0,0.0,0.0,0.0,0.0,0.0,0.0,0.0,0.0,0.0,0.0,0.0,0.0,0.0,0.0,0.0,0.0,0.0,0.0,0.0,0.0,0.0,0.0,0.0,0.0,0.0,0.0,0.0,0.0,0.0,0.0,0.0,0.0,0.0,0.0,0.0,0.0,0.0,0.0,0.0,0.0,0.0,0.0,0.0,0.0,0.0,0.0,0.0,0.0,0.0,0.0,0.0,0.0,0.0,0.0,0.0,0.0,0.0,0.0,0.0,0.0,0.0,0.0,0.0,0.0,0.0,0.0,0.0,0.0,0.0,0.0,0.0,0.0,0.0,0.0,0.0,0.0,0.0,0.0,0.0,0.0,0.0,0.0,0.0,0.0,0.0,0.0,0.0,0.0,0.0,0.0,0.0,0.0,0.0,0.0,0.0,0.0,0.0,0.0,0.0,0.0,0.0,0.0,0.0,0.0,0.0,0.0,0.0,0.0,0.0,0.0,0.0,0.0,0.0,0.0,0.0,0.0,0.0,0.0,0.0,0.0,0.0,0.0,0.0,0.0,0.0,0.0,0.0,0.0,0.0,0.0,0.0,0.0,0.0,0.0,0.0,0.0,0.0,0.0,0.0,0.0,0.0,0.0,0.0,0.0,0.0,0.0,0.0,0.0,0.0,0.0,0.0,0.0,0.0,0.0,0.0,0.0,0.0,0.0,0.0,0.0,0.0,0.0,0.0,0.0,0.0,0.0,0.0,0.0,0.0,0.0,0.0,0.0,0.0,0.0,0.0,0.0,0.0,0.0,0.0,0.0,0.0,0.0,0.0,0.0,0.0,0.0,0.0,0.0,0.0,0.0,0.0,0.0,0.0,0.0,0.0,0.0,0.0,0.0,0.0,0.0,0.0,0.0,0.0,0.0,0.0,0.0,0.0,0.0,0.0,0.0,0.0,0.0,0.0,0.0,0.0,0.0,0.0,0.0,0.0,0.0,0.0,0.0,0.0,0.0,0.0,0.0,0.0,0.0,0.0,0.0,0.0,0.0,0.0,0.0,0.0,0.0,0.0,0.0,0.0,0.0,0.0,0.0,0.0,0.0,0.0,0.0,0.0,0.0,0.0,0.0,0.0,0.0,0.0,0.0,0.0,0.0,0.0,0.0,0.0,0.0,0.0,0.0,0.0,0.0,0.0,0.0,0.0,0.0,0.0,0.0,0.0,0.0,0.0,0.0,0.0,0.0,0.0,0.0,0.0,0.0,0.0,0.0,0.0,0.0,0.0,0.0,0.0,0.0,0.0,0.0,0.0,0.0,0.0,0.0,0.0,0.0,0.0,0.0,0.0,0.0,0.0,0.0,0.0,0.0,0.0,0.0,0.0,0.0,0.0,0.0,0.0,0.0,0.0,0.0,0.0,0.0,0.0,0.0,0.0,0.0,0.0,0.0,0.0,0.0,0.0,0.0,0.0,0.0,0.0,0.0,0.0,0.0,0.0,0.0,0.0,0.0,0.0,0.0,0.0,0.0,0.0,0.0,0.0,0.0,0.0,0.0,0.0,0.0,0.0,0.0,0.0,0.0,0.0,0.0,0.0,0.0,0.0,0.0,0.0,0.0,0.0,0.0,0.0,0.0,0.0,0.0,0.0,0.0,0.0,0.0,0.0,0.0,0.0,0.0,0.0,0.0,0.0,0.0,0.0,0.0,0.0,0.0,0.0,0.0,0.0,0.0,0.0,0.0,0.0,0.0,0.0,0.0,0.0,0.0,0.0,0.0,0.0,0.0,0.0,0.0,0.0,0.0,0.0,0.0,0.0,0.0,0.0,0.0,0.0,0.0,0.0,0.0,0.0,0.0,0.0,0.0,0.0,0.0,0.0,0.0,0.0,0.0,0.0,0.0,0.0,0.0,0.0,0.0,0.0,0.0,0.0,0.0,0.0,0.0,0.0,0.0,0.0,0.0,0.0,0.0,0.0,0.0,0.0,0.0,0.0,0.0,0.0,0.0,0.0,0.0,0.0,0.0,0.0,0.0,0.0,0.0,0.0,0.0,0.0,0.0,0.0,0.0,0.0,0.0,0.0,0.0,0.0,0.0,0.0,0.0,0.0,0.0,0.0,0.0,0.0,0.0,0.0,0.0,0.0,0.0,0.0,0.0,0.0,0.0,0.0,0.0,0.0,0.0,0.0,0.0,0.0,0.0,0.0,0.0,0.0,0.0,0.0,0.0,0.0,0.0,0.0,0.0,0.0,0.0,0.0,0.0,0.0,0.0,0.0,0.0,0.0,0.0,0.0,0.0,0.0,0.0,0.0,0.0,0.0,0.0,0.0,0.0,0.0,0.0,0.0,0.0,0.0,0.0,0.0,0.0,0.0,0.0,0.0,0.0,0.0,0.0,0.0,0.0,0.0,0.0,0.0,0.0,0.0,0.0,0.0,0.0,0.0,0.0,0.0,0.0,0.0,0.0,0.0,0.0,0.0,0.0,0.0,0.0,0.0,0.0,0.0,0.0,0.0,0.0,0.0,0.0,0.0,0.0,0.0,0.0,0.0,0.0,0.0,0.0,0.0,0.0,0.0,0.0,0.0,0.0,0.0,0.0,0.0,0.0,0.0,0.0,0.0,0.0,0.0,0.0,0.0,0.0,0.0,0.0,0.0,0.0,0.0,0.0,0.0,0.0,0.0,0.0,0.0,0.0,0.0,0.0,0.0,0.0,0.0,0.0,0.0,0.0,0.0,0.0,0.0,0.0,0.0,0.0,0.0,0.0,0.0,0.0,0.0,0.0,0.0,0.0,0.0,0.0,0.0,0.0,0.0,0.0,0.0,0.0,0.0,0.0,0.0,0.0,0.0,0.0,0.0,0.0,0.0,0.0,0.0,0.0,0.0,0.0,0.0,0.0,0.0,0.0,0.0,0.0,0.0,0.0,0.0,0.0,0.0,0.0,0.0,0.0,0.0,0.0,0.0,0.0,0.0,0.0,0.0,0.0,0.0,0.0,0.0,0.0,0.0,0.0,0.0,0.0,0.0,0.0,0.0,0.0,0.0,0.0,0.0,0.0,0.0,0.0,0.0,0.0,0.0,0.0,0.0,0.0,0.0,0.0,0.0,0.0,0.0,0.0,0.0,0.0,0.0,0.0,0.0,0.0,0.0,0.0,0.0,0.0,0.0,0.0,0.0,0.0,0.0,0.0,0.0,0.0,0.0,0.0,0.0,0.0,0.0,0.0,0.0,0.0,0.0,0.0,0.0,0.0,0.0,0.0,0.0,0.0,0.0,0.0,0.0,0.0,0.0,0.0,0.0,0.0,0.0,0.0,0.0,0.0,0.0,0.0,0.0,0.0,0.0,0.0,0.0,0.0,0.0,0.0,0.0,0.0,0.0,0.0,0.0,0.0,0.0,0.0,0.0,0.0,0.0,0.0,0.0,0.0,0.0,0.0,0.0,0.0,0.0,0.0,0.0,0.0,0.0,0.0,0.0,0.0,0.0,0.0,0.0,0.0,0.0,0.0,0.0,0.0,0.0,0.0,0.0,0.0,0.0,0.0,0.0,0.0,0.0,0.0,0.0,0.0,0.0,0.0,0.0,0.0,0.0,0.0,0.0,0.0,0.0,0.0,0.0,0.0,0.0,0.0,0.0,0.0,0.0,0.0,0.0,0.0,0.0,0.0,0.0,0.0,0.0,0.0,0.0,0.0,0.0,0.0,0.0,0.0,0.0,0.0,0.0,0.0,0.0,0.0,0.0,0.0,0.0,0.0,0.0,0.0,0.0,0.0,0.0,0.0,0.0,0.0,0.0,0.0,0.0,0.0,0.0,0.0,0.0,0.0,0.0,0.0,0.0,0.0,0.0,0.0,0.0,0.0,0.0,0.0,0.0,0.0,0.0,0.0,0.0,0.0,0.0,0.0,0.0,0.0,0.0,0.0,0.0,0.0,0.0,0.0,0.0,0.0,0.0,0.0,0.0,0.0,0.0,0.0,0.0,0.0,0.0,0.0,0.0,0.0,0.0,0.0,0.0,0.0,0.0,0.0,0.0,0.0,0.0,0.0,0.0,0.0,0.0,0.0,0.0,0.0,0.0,0.0,0.0,0.0,0.0,0.0,0.0,0.0,0.0,0.0,0.0,0.0,0.0,0.0,0.0,0.0,0.0,0.0,0.0,0.0,0.0,0.0,0.0,0.0,0.0,0.0,0.0,0.0,0.0,0.0,0.0,0.0,0.0,0.0,0.0,0.0,0.0,0.0,0.0,0.0,0.0,0.0,0.0,0.0,0.0,0.0,0.0,0.0,0.0,0.0,0.0,0.0,0.0,0.0,0.0,0.0,0.0,0.0,0.0,0.0,0.0,0.0,0.0,0.0,0.0,0.0,0.0,0.0,0.0,0.0,0.0,0.0,0.0,0.0,0.0,0.0,0.0,0.0,0.0,0.0,0.0,0.0,0.0,0.0,0.0,0.0,0.0,0.0,0.0,0.0,0.0,0.0,0.0,0.0,0.0,0.0,0.0,0.0,0.0,0.0,0.0,0.0,0.0,0.0,0.0,0.0,0.0,0.0,0.0,0.0,0.0,0.0,0.0,0.0,0.0,0.0,0.0,0.0,0.0,0.0,0.0,0.0,0.0,0.0,0.0,0.0,0.0,0.0,0.0,0.0,0.0,0.0,0.0,0.0,0.0,0.0,0.0,0.0,0.0,0.0,0.0,0.0,0.0,0.0,0.0,0.0,0.0,0.0,0.0,0.0,0.0,0.0,0.0,0.0,0.0,0.0,0.0,0.0,0.0,0.0,0.0,0.0,0.0,0.0,0.0,0.0,0.0,0.0,0.0,0.0,0.0,0.0,0.0,0.0,0.0,0.0,0.0,0.0,0.0,0.0,0.0,0.0,0.0,0.0,0.0,0.0,0.0,0.0,0.0,0.0,0.0,0.0,0.0,0.0,0.0,0.0,0.0,0.0,0.0,0.0,0.0,0.0,0.0,0.0,0.0,0.0,0.0,0.0,0.0,0.0,0.0,0.0,0.0,0.0,0.0,0.0,0.0,0.0,0.0,0.0,0.0,0.0,0.0,0.0,0.0,0.0,0.0,0.0,0.0,0.0,0.0,0.0,0.0,0.0,0.0,0.0,0.0,0.0,0.0,0.0,0.0,0.0,0.0,0.0,0.0,0.0,0.0,0.0,0.0,0.0,0.0,0.0,0.0,0.0,0.0,0.0,0.0,0.0,0.0,0.0,0.0,0.0,0.0,0.0,0.0,0.0,0.0,0.0,0.0,0.0,0.0,0.0,3.1534,2.9939,0.0,0.0,0.0,0.0,0.0,0.0,0.0,0.0,0.0,0.0,0.0,0.0,0.0,0.0,0.0,0.0,0.0,0.0,0.0,0.0,0.0,0.0,0.0,0.0,0.0,0.0,0.0,0.0,0.0,0.0,0.0,0.0,0.0,0.0,0.0,0.0,0.0,1.5142,1.6869,2.1027,2.7314,2.5209,2.2326,1.877,0.0,0.0,0.0,0.0,0.0,0.0,0.0,0.0,0.0,0.0,0.0,0.0,0.0,0.0,0.0,0.0,0.0,0.0,0.0,0.0,0.0,0.0,0.0,0.0,0.0,0.0,0.0,0.0,0.0,0.0,0.0,0.0,0.0,0.0,0.0,0.0,0.0,0.0,0.0,0.0,0.0,0.0,0.0,0.0,0.0,0.0,0.0,0.0,0.0,0.0,0.0,0.0,0.0,0.0,0.0,0.0,0.0,0.0,0.0,0.0,0.0,0.0,0.0,0.0,0.0,0.0,0.0,0.0,0.0,0.0,3.4016,3.2091,0.0,0.0,0.0,0.0,0.0,0.0,0.0,0.0,0.0,0.0,0.0,0.0,0.0,0.0,0.0,0.0,0.0,0.0,0.0,0.0,0.0,0.0,0.0,1.4757,1.5184,1.521,1.4934,1.4916,0.0,0.0,0.0,0.0,0.0,0.0,0.0,1.5216,1.5819,1.6694,2.2346,2.8121,3.3972,3.5851,3.3412,2.7196,2.194,0.0,0.0,0.0,0.0,0.0,0.0,0.0,0.0,0.0,0.0,0.0,0.0,0.0,0.0,0.0,0.0,0.0,0.0,0.0,0.0,0.0,0.0,0.0,0.0,0.0,0.0,0.0,0.0,0.0,0.0,0.0,0.0,0.0,0.0,0.0,0.0,0.0,0.0,0.0,0.0,0.0,0.0,0.0,0.0,0.0,0.0,0.0,0.0,0.0,0.0,0.0,0.0,0.0,0.0,0.0,0.0,0.0,0.0,0.0,0.0,0.0,0.0,0.0,3.8407,3.8769,3.9873,3.8888,3.97,4.1646,3.7269,3.5295,3.5035,3.3092,0.0,0.0,0.0,0.0,0.0,0.0,0.0,0.0,0.0,0.0,0.0,0.0,0.0,0.0,0.0,0.0,0.0,0.0,0.0,0.0,0.0,1.5147,1.5202,1.5194,1.5146,1.5282,1.5598,0.0,0.0,0.0,0.0,0.0,1.5725,1.486,1.6855,2.1919,3.3059,3.9852,4.2415,4.3838,4.4281,4.3489,3.6624,3.0762,2.6058,0.0,0.0,0.0,0.0,0.0,0.0,0.0,0.0,0.0,0.0,0.0,0.0,0.0,0.0,0.0,0.0,0.0,0.0,0.0,0.0,0.0,0.0,0.0,0.0,0.0,0.0,0.0,0.0,0.0,0.0,0.0,0.0,0.0,0.0,0.0,0.0,0.0,0.0,0.0,0.0,0.0,3.2892,3.382,0.0,0.0,0.0,0.0,0.0,0.0,0.0,0.0,0.0,0.0,0.0,0.0,0.0,3.9573,4.0893,4.3689,4.4093,4.2209,4.3081,4.2759,4.1407,4.1696,4.2583,4.3783,4.2719,0.0,3.7316,3.5453,0.0,0.0,0.0,0.0,0.0,0.0,0.0,0.0,0.0,0.0,0.0,0.0,0.0,0.0,0.0,0.0,0.0,0.0,0.0,0.0,0.0,2.0031,2.125,2.4272,2.5325,2.4342,2.078,2.0757,0.0,0.0,0.0,1.4518,1.4885,1.7232,2.3112,3.2616,3.9927,4.5798,5.0213,5.1901,5.3238,5.4145,5.0987,4.351,3.3323,3.3301,0.0,0.0,0.0,0.0,0.0,0.0,0.0,0.0,0.0,0.0,0.0,0.0,0.0,0.0,0.0,0.0,0.0,0.0,0.0,0.0,0.0,0.0,0.0,0.0,0.0,0.0,0.0,0.0,0.0,0.0,0.0,0.0,0.0,0.0,0.0,0.0,0.0,0.0,0.0,3.0212,3.2012,3.1897,3.2147,3.1622,0.0,0.0,0.0,0.0,0.0,0.0,0.0,0.0,0.0,4.1096,4.306,4.4864,4.6452,4.8537,4.85,4.63,4.6478,4.5824,4.46,4.4924,4.5769,4.6889,4.7219,4.5589,4.2525,3.8724,3.5953,3.413,0.0,0.0,0.0,0.0,3.4656,3.5234,0.0,0.0,0.0,0.0,0.0,0.0,0.0,0.0,0.0,0.0,0.0,0.0,2.3996,2.5911,2.8523,3.2745,3.4068,3.2653,2.784,2.7432,2.5257,2.0458,1.7961,1.7317,1.8749,2.4177,3.1754,4.1464,4.5858,5.0767,5.6098,5.802,5.9661,6.0992,6.1226,5.3964,4.1561,4.1152,3.7269,3.118,0.0,0.0,0.0,0.0,0.0,0.0,0.0,0.0,0.0,0.0,0.0,0.0,0.0,0.0,0.0,0.0,0.0,0.0,0.0,0.0,0.0,0.0,0.0,0.0,0.0,0.0,0.0,0.0,0.0,0.0,0.0,0.0,0.0,0.0,0.0,0.0,0.0,3.1664,3.2878,3.1552,3.3913,3.4481,0.0,0.0,0.0,0.0,0.0,0.0,3.9084,4.1069,4.3457,4.6434,4.8661,5.0495,5.193,5.2723,5.2117,5.022,4.8822,4.7755,4.6997,4.7019,4.7512,4.846,4.9233,4.8422,4.6135,4.1624,3.8699,3.7021,3.6243,3.6529,3.7385,3.7591,3.8136,3.9093,0.0,0.0,0.0,0.0,0.0,0.0,0.0,0.0,0.0,0.0,0.0,2.4224,2.6239,3.163,3.554,3.6538,3.638,3.6225,3.626,3.3929,3.274,3.3152,2.6138,2.5131,3.1334,3.7797,4.2365,4.4961,5.1768,5.6398,5.8934,6.0809,6.2363,6.3633,6.4453,6.0082,5.1907,4.9739,4.5494,3.9553,3.1602,0.0,0.0,0.0,0.0,0.0,0.0,0.0,0.0,0.0,0.0,0.0,0.0,0.0,0.0,0.0,0.0,0.0,0.0,0.0,0.0,0.0,0.0,0.0,0.0,0.0,0.0,0.0,0.0,0.0,0.0,0.0,0.0,0.0,0.0,0.0,0.0,0.0,0.0,3.6368,4.0205,0.0,0.0,0.0,0.0,3.9228,3.9897,4.1917,4.554,4.7031,4.9622,5.3575,5.5564,5.6631,5.6735,5.6005,5.4921,5.3547,5.0096,4.814,4.7419,4.6922,4.6795,4.6853,4.7564,4.7186,4.5767,4.3491,4.1538,3.9702,3.7817,3.8291,4.0103,4.109,4.1902,4.2693,0.0,0.0,0.0,0.0,0.0,0.0,0.0,0.0,1.4833,1.9877,2.3404,2.9161,3.8873,4.209,4.526,4.9526,4.9688,4.7763,4.3487,4.1731,3.7406,2.963,2.9679,3.2599,3.8448,4.0903,4.5305,5.1902,5.6456,5.9425,6.0878,6.2992,6.4492,6.5502,6.6356,6.5446,6.311,5.9399,5.3772,4.7077,4.353,3.6769,0.0,0.0,0.0,0.0,0.0,0.0,0.0,0.0,0.0,0.0,0.0,0.0,0.0,0.0,0.0,0.0,0.0,0.0,0.0,0.0,0.0,0.0,0.0,0.0,0.0,0.0,0.0,0.0,0.0,0.0,0.0,0.0,0.0,0.0,0.0,0.0,0.0,3.8255,4.2316,0.0,4.0281,4.1815,4.3515,4.4851,4.648,4.8769,5.1856,5.177,5.3419,5.7221,5.6326,5.628,5.7465,5.6106,5.4321,5.2085,5.0836,4.921,4.7257,4.8035,4.8184,4.7929,4.8681,4.8762,4.8192,4.614,4.4253,4.2449,4.1802,4.2188,4.3199,4.3655,4.3973,4.428,0.0,0.0,0.0,0.0,0.0,0.0,0.0,0.0,1.5217,2.2683,2.6971,3.41,4.6714,5.0661,5.4082,5.8251,5.8053,5.5541,5.0493,4.6695,4.0875,3.2522,3.5399,3.9131,4.3186,4.6109,5.091,5.7667,6.0123,6.1741,6.2608,6.4648,6.6079,6.6958,6.8021,6.8911,6.9426,6.6143,6.1137,5.5094,5.1164,4.4297,3.5812,0.0,0.0,0.0,0.0,0.0,0.0,0.0,0.0,0.0,0.0,0.0,0.0,0.0,0.0,0.0,0.0,0.0,0.0,0.0,0.0,0.0,0.0,0.0,0.0,0.0,0.0,0.0,0.0,0.0,0.0,0.0,0.0,0.0,0.0,3.8851,4.2845,4.0808,4.5517,4.7779,4.4854,4.6445,4.8297,4.9722,5.1091,5.2798,5.5002,5.468,5.5538,5.8052,5.6595,5.6108,5.6874,5.527,5.3443,5.1434,5.0724,4.9456,4.7657,4.83,4.8392,4.8061,4.8417,4.8522,4.8439,4.7131,4.584,4.4668,4.4281,4.4677,4.5437,4.554,4.5741,4.5875,0.0,0.0,0.0,0.0,0.0,0.0,0.0,1.0763,1.4391,2.2467,3.0403,3.9075,4.8901,5.6772,6.1381,6.1667,6.0162,5.8506,5.687,4.8313,4.3218,4.3082,4.3485,4.4524,4.6197,5.4243,5.9505,6.1758,6.2704,6.3482,6.4169,6.5886,6.7113,6.8007,6.9556,7.0364,7.048,6.9618,6.7337,6.3439,5.3752,5.0025,4.8696,0.0,0.0,0.0,0.0,0.0,0.0,0.0,0.0,0.0,0.0,0.0,0.0,0.0,0.0,0.0,0.0,0.0,0.0,0.0,0.0,0.0,0.0,0.0,0.0,0.0,0.0,0.0,0.0,0.0,0.0,0.0,0.0,0.0,3.5663,4.2098,4.6259,4.4408,5.0103,5.3133,5.029,5.1636,5.2905,5.3563,5.3356,5.3732,5.4974,5.5579,5.5998,5.6265,5.6727,5.6424,5.5298,5.3734,5.2569,5.19,4.9836,4.8786,4.8711,4.7631,4.7093,4.7079,4.6552,4.6326,4.6301,4.6326,4.6326,4.62,4.5095,4.5482,4.6678,4.6652,4.7053,4.7391,0.0,0.0,0.0,0.0,0.0,0.0,0.928,1.0484,1.5876,2.8707,3.3853,4.193,5.6767,6.1337,6.3334,6.3418,6.0823,5.6963,5.1695,4.597,4.3439,4.4897,4.4307,4.7692,5.5692,5.781,6.0097,6.2704,6.3938,6.4656,6.4879,6.7356,6.8526,6.8705,7.0369,7.1221,7.1338,7.048,6.9316,6.7608,6.2724,5.7389,5.1848,0.0,0.0,0.0,0.0,0.0,0.0,0.0,0.0,0.0,0.0,0.0,0.0,0.0,0.0,0.0,0.0,0.0,0.0,0.0,0.0,0.0,0.0,0.0,0.0,0.0,0.0,0.0,0.0,0.0,0.0,0.0,3.4542,3.8358,3.9347,4.4774,4.895,4.9742,5.2348,5.3723,5.2927,5.3432,5.3826,5.3993,5.439,5.4984,5.5844,5.4862,5.5285,5.7417,5.4531,5.3321,5.4199,5.2142,5.0805,5.0245,4.9671,4.8937,4.8134,4.7832,4.728,4.6552,4.6803,4.6677,4.6351,4.6753,4.6677,4.6276,4.5974,4.5834,4.5813,4.5323,4.4817,4.4174,0.0,0.0,0.0,0.0,0.0,0.0,0.9323,1.0392,1.6141,3.0331,3.492,4.2887,5.8676,6.219,6.3136,6.261,5.7788,5.2585,4.7369,4.2313,4.1743,4.6669,4.7279,5.2001,6.152,6.199,6.3062,6.5033,6.5453,6.5816,6.6204,6.8085,6.9137,6.9486,7.0794,7.1475,7.1596,7.1478,7.1242,7.0844,6.9323,6.4771,5.8381,5.3605,4.8083,4.2579,4.0126,3.6116,3.1933,3.1901,0.0,0.0,0.0,0.0,0.0,0.0,0.0,0.0,0.0,0.0,0.0,0.0,0.0,0.0,0.0,0.0,0.0,0.0,0.0,0.0,0.0,0.0,0.0,0.0,3.5876,4.0043,4.2758,4.7657,5.153,5.321,5.4066,5.4589,5.4924,5.347,5.2589,5.2704,5.1767,5.1495,5.2082,5.1946,5.2506,5.3988,5.246,5.188,5.2362,5.1068,5.0142,4.959,4.959,4.9138,4.8259,4.8033,4.7456,4.6652,4.6753,4.6753,4.6652,4.6753,4.6728,4.6627,0.0,0.0,0.0,0.0,4.4292,4.3237,0.0,0.0,0.0,0.0,0.0,0.0,0.9497,1.0285,1.5606,2.9012,3.4287,4.2245,5.6508,6.021,6.0929,5.9091,5.2284,4.6608,4.324,3.8947,4.024,4.858,5.2016,5.7243,6.4792,6.6017,6.6944,6.7684,6.6938,6.688,6.7599,6.8383,6.9275,7.0233,7.0922,7.1341,7.1556,7.2373,7.2813,7.3005,7.3621,7.1093,6.6005,5.706,5.3266,5.1941,4.6503,4.2438,3.9637,3.9884,0.0,0.0,0.0,0.0,0.0,0.0,0.0,0.0,0.0,0.0,0.0,0.0,0.0,0.0,0.0,0.0,0.0,0.0,0.0,0.0,0.0,0.0,0.0,0.0,3.7044,4.1427,4.538,4.9632,5.2937,5.4386,5.4344,5.441,5.496,5.1692,4.9677,5.004,4.7329,4.5943,4.6559,4.8287,0.0,0.0,0.0,5.1548,5.0619,5.0544,5.0243,4.969,4.969,4.9364,4.8761,4.8184,4.7631,4.7043,4.6627,4.6677,4.7043,4.6602,4.6652,4.6979,4.6426,4.6225,4.615,4.5522,4.4669,4.3714,0.0,0.0,0.0,0.0,0.0,0.0,0.9123,0.9805,1.5018,2.8137,3.2835,4.0057,5.3304,5.6162,5.5147,5.0195,4.6264,4.2042,3.7228,4.1297,4.6214,5.1412,5.8084,6.3411,6.7165,6.7392,6.7528,6.7684,6.7476,6.7393,6.7462,6.9109,6.9987,7.0226,7.1089,7.1472,7.1556,7.2373,7.2698,7.2873,7.4384,7.2193,6.7743,6.5493,6.2639,5.9412,5.6458,5.2503,4.8083,4.3784,3.8936,3.3516,2.6492,2.6184,0.0,0.0,0.0,0.0,0.0,0.0,0.0,0.0,0.0,0.0,0.0,0.0,0.0,0.0,0.0,0.0,0.0,0.0,0.0,3.5872,3.8669,4.1719,4.5062,4.668,4.8234,5.0215,4.9049,4.7981,4.7767,4.6634,4.5921,4.6035,4.5749,4.6325,4.7981,4.873,5.0041,5.2004,5.1622,5.1548,5.1774,5.1348,5.082,5.0268,5.0268,0.0,4.8761,4.8184,4.7631,4.7068,4.7029,4.6968,4.7068,4.7029,4.6778,4.6426,4.5874,4.5648,4.5522,4.4493,4.3991,4.3714,0.0,0.0,0.0,0.0,0.0,0.0,0.9313,0.9858,1.3688,2.3298,2.701,3.2643,4.2728,4.5105,4.4613,4.1272,3.9161,3.7242,3.5575,4.3084,5.093,5.841,6.3366,6.7156,6.9908,6.9369,6.885,6.8307,6.7476,6.7244,6.7538,6.8446,6.934,7.0177,7.0877,7.1454,7.1908,7.276,7.3253,7.3555,7.4678,7.1304,6.562,6.6327,6.4163,6.0588,5.9104,5.6212,5.2709,5.0076,4.382,3.638,3.2167,2.9136,2.664,0.0,0.0,0.0,0.0,0.0,0.0,0.0,0.0,0.0,0.0,0.0,0.0,0.0,0.0,2.8734,3.0297,0.0,3.5096,3.7193,3.906,4.1265,4.409,4.3774,4.4332,4.7115,4.6595,4.5823,4.5377,4.3973,4.3274,4.3751,4.2933,4.3,4.4395,4.6585,4.8308,4.9581,5.122,5.2101,5.2101,5.1825,5.1272,5.0419,5.0419,4.9841,4.8761,4.8184,4.7631,4.7129,4.6853,4.6878,4.7068,4.7068,4.6803,4.6276,4.5999,4.5723,4.5372,4.4518,4.4041,4.3714,0.0,0.0,0.0,0.0,0.0,0.0,0.0,0.9796,1.2145,1.8344,2.1141,2.5154,3.2076,3.3962,3.4028,3.2348,3.2518,3.3702,3.5931,4.5229,5.4928,6.4517,6.6863,6.9114,7.1592,7.0593,6.9618,6.8715,6.7375,6.694,6.7427,6.7888,6.8815,7.0129,7.0844,7.1552,7.2283,7.3283,7.3894,7.4166,7.452,7.0087,6.3123,6.2348,6.039,5.7884,5.7047,5.5593,5.4137,5.4683,4.8245,3.9844,3.9019,3.3278,2.6733,2.6182,2.8048,0.0,0.0,0.0,0.0,0.0,0.0,0.0,0.0,0.0,2.4186,2.6778,2.8644,3.0451,3.2801,3.4751,3.6444,3.8066,3.9336,4.0841,4.2782,4.1594,4.1525,4.4156,4.4436,4.4173,4.3692,4.1975,4.1214,4.1885,4.0404,3.9916,4.0983,4.4156,4.6324,4.7118,5.05,5.2335,5.2277,5.2151,5.1599,5.0569,5.0469,4.9891,4.8912,4.8234,4.7682,4.7255,4.6702,4.6652,4.6918,4.7043,4.6803,4.6301,4.6301,4.5974,4.5422,4.4844,4.4342,4.3865,0.0,0.0,0.0,0.0,0.0,0.0,0.0,0.0,1.0907,1.7022,1.9452,2.2745,2.8338,2.9695,2.8235,2.3232,2.8329,3.3412,3.7124,4.9038,5.8462,6.4078,6.6797,6.8878,7.038,6.9119,6.8297,6.801,6.7338,6.6992,6.6919,6.8876,6.9921,7.0167,7.1473,7.2091,7.2283,7.3899,7.4305,7.3924,7.3668,7.0001,6.3587,5.3579,5.0537,5.1452,5.0277,5.0344,5.1192,5.2628,4.853,4.2579,4.095,3.6406,3.0818,2.6318,2.5108,2.4526,2.1238,2.0183,2.0119,2.0503,2.0147,2.0733,0.0,0.0,2.743,3.2264,3.5066,3.6802,3.7242,3.926,4.0605,3.9794,4.043,4.1113,4.1384,4.0916,4.0504,4.0524,4.0162,3.9745,3.9308,3.9366,3.9456,3.9554,4.0017,4.1207,4.3052,4.3952,4.6006,4.9511,5.0079,5.1114,5.276,5.2352,5.18,5.1172,5.067,5.0092,4.9464,4.8385,4.7883,4.7782,4.7255,4.6803,4.6451,4.6928,4.6803,4.6301,4.6301,4.5974,4.5422,4.4844,4.4593,4.4392,0.0,0.0,0.0,0.0,0.0,0.0,0.0,0.0,0.0,1.2237,1.3588,1.5331,1.7905,1.9254,1.904,1.6741,2.539,3.2435,3.5824,4.7748,5.7208,6.2856,6.4728,6.6557,6.8529,6.7921,6.7316,6.6754,6.6101,6.6018,6.6352,6.7656,6.8754,6.9721,7.1444,7.2803,7.3918,7.4998,7.5464,7.5436,7.4282,6.9437,6.1706,5.0159,4.3768,4.0746,3.8809,3.8888,0.0,4.4829,4.1435,3.5954,3.8359,3.4134,2.7925,2.5793,2.6417,2.7361,2.5664,2.3456,2.1841,2.2613,2.2442,2.2845,2.5553,2.7004,2.8997,3.3556,3.6108,3.7774,3.8577,3.9938,4.0928,4.072,4.0937,4.1074,4.084,4.043,3.9805,3.8867,3.8789,3.8867,3.8926,3.9101,3.9414,3.9922,4.0312,4.1008,4.2124,4.3408,4.5351,4.8144,4.9391,5.041,5.1233,5.1014,4.99,4.8001,4.8816,4.8731,4.7946,4.7943,4.7581,4.6979,4.6753,4.6527,4.6326,4.6552,4.6527,4.6301,4.6301,4.6175,4.5849,4.4945,4.4418,4.4041,0.0,0.0,0.0,0.0,0.0,0.0,0.0,0.0,0.0,0.0,0.9441,1.0171,1.0918,1.2221,1.31,1.3168,2.2618,3.0143,3.3875,4.4514,5.3505,5.9783,6.1619,6.3462,6.5543,6.5399,6.5049,6.4615,6.4227,6.4398,6.5127,6.6308,6.7597,6.9071,7.1213,7.3112,7.4756,7.5875,7.6491,7.657,7.4908,6.9648,6.1361,4.7812,3.8929,3.3261,3.0032,2.9485,3.127,3.7942,3.5726,3.1133,3.6637,3.2623,2.5922,2.615,2.681,2.7345,2.681,2.4688,0.0,2.3464,2.3638,2.4301,2.6648,2.8295,3.0442,3.4585,3.6797,3.8301,3.9219,4.0117,4.0801,4.1113,4.1074,4.084,4.041,3.9883,3.9082,3.7891,3.793,3.8262,3.8789,3.918,3.9707,4.0469,4.0644,4.084,4.1152,4.256,4.4172,4.6146,4.8121,4.9153,4.9153,4.9464,4.8216,4.5572,4.6635,4.6719,4.5873,4.6655,4.6724,4.6301,4.6301,4.6301,4.6301,4.6301,4.6301,4.6301,4.6301,4.6225,4.5974,4.4995,4.4367,4.3915,0.0,0.0,0.0,0.0,0.0,0.0,0.0,0.0,0.0,0.0,0.0,0.0,0.0,1.2325,1.3099,1.3364,1.972,2.6097,3.1724,3.988,4.7447,5.4161,5.7521,5.9797,6.1057,6.0649,6.0762,6.1434,6.1652,6.2176,6.2944,6.5583,6.7295,6.826,7.0999,7.2803,7.401,7.6299,7.7053,7.657,7.5151,7.107,6.3867,4.5637,3.6117,3.1863,2.6619,2.4953,2.6334,3.4283,3.4222,3.1862,3.7585,3.3802,2.7343,2.7881,2.4609,2.0828,2.0917,2.0767,2.0771,2.1452,2.2032,2.363,2.8248,3.0226,3.229,3.6387,3.8613,3.9824,3.9863,4.0566,4.1152,4.1172,4.082,4.0391,3.998,3.916,3.8281,3.7422,3.6973,3.7051,3.7891,3.9121,4.0059,4.0488,4.0918,4.1152,4.1172,4.125,4.2196,4.4172,4.6072,4.7102,4.7102,4.81,4.7516,4.5572,4.4678,4.396,4.3557,4.4308,4.5302,4.6301,4.6301,4.6301,4.6301,4.6301,4.6301,4.6301,4.6301,4.5974,4.5447,4.4844,4.4618,4.4443,0.0,0.0,0.0,0.0,0.0,0.0,0.0,0.0,0.0,0.0,0.0,0.0,0.0,0.0,0.0,0.0,1.8064,2.2754,2.6506,3.4598,4.1399,4.6285,5.1709,5.525,5.6692,5.8124,5.8973,5.9259,5.9838,6.0784,6.2121,6.3874,6.5917,6.8184,7.0057,7.2259,7.4679,7.5914,7.6842,7.7302,7.5052,6.8809,5.9446,4.6247,3.6518,2.9056,0.0,1.914,1.9367,2.6998,2.8498,2.7774,3.0996,2.9613,2.6417,2.4322,2.2991,2.2276,2.2517,2.234,2.2486,2.3804,2.4024,2.4641,2.7716,3.0098,3.2431,3.4738,3.6043,3.6733,3.6444,3.7099,3.7754,3.8024,3.9443,4.0371,3.9961,3.9883,3.9023,3.6719,3.7324,3.7715,3.7148,3.8008,3.9121,4.043,4.0664,4.0859,4.1152,4.1172,4.2119,4.4021,4.4752,4.5052,4.5052,4.5143,4.4031,4.1818,4.2145,4.2435,4.295,4.4692,4.5151,4.4645,4.6165,4.6652,4.6301,4.6301,4.61,4.5773,4.5773,4.5422,4.4844,4.4292,4.4091,4.3966,0.0,0.0,0.0,0.0,0.0,0.0,0.0,0.0,0.0,0.0,0.0,0.0,0.0,0.0,0.0,0.0,0.0,1.9249,2.243,2.8495,3.3813,3.7928,4.2653,4.5696,4.6876,4.8456,4.9419,4.969,5.2643,5.5019,5.6922,6.0326,6.34,6.6134,6.8022,7.022,7.2407,7.1037,7.0899,7.1267,6.7133,6.1137,5.356,4.3267,3.5609,0.0,2.0669,1.7381,1.7748,2.2411,2.386,2.4098,2.6133,2.6357,2.5303,2.2694,2.2494,2.3151,2.3373,2.3414,2.3605,2.4888,2.5153,2.5671,2.7775,2.9712,3.1436,3.2864,3.3456,3.3687,3.3364,3.4078,3.4814,3.5028,3.6668,3.805,3.8379,3.8399,3.7909,3.666,3.7441,3.7851,3.7187,3.7598,3.8652,4.0391,4.0664,4.0879,4.1152,4.1172,4.1753,4.2999,4.3718,4.3794,4.3075,4.3189,4.1994,3.9414,3.9867,4.071,4.1876,4.3659,4.4302,4.4079,4.5995,4.6652,4.6301,4.61,4.5799,4.5472,4.5271,4.4945,4.4568,4.4016,4.379,4.3714,0.0,0.0,0.0,0.0,0.0,0.0,0.0,0.0,0.0,0.0,0.0,0.0,0.0,0.0,0.0,0.0,0.0,0.0,1.9423,2.1985,2.5213,2.9285,3.1299,3.2438,3.28,3.3082,3.3618,3.4353,4.0953,4.5329,4.7646,5.4538,5.9039,6.14,6.3951,6.5719,6.651,6.1669,5.9643,5.9173,5.2615,4.8993,4.6462,3.6987,3.3136,3.1534,2.1663,1.9355,2.0968,2.0614,2.0653,2.1228,2.3195,2.407,2.406,2.3047,2.2997,2.3295,2.3422,2.3745,2.409,2.4588,2.5371,2.6516,2.845,2.9103,2.9702,3.0825,3.1029,3.0888,3.0662,3.169,3.2523,3.2227,3.2945,3.4042,3.568,3.5242,3.5459,0.0,0.0,0.0,0.0,0.0,3.873,4.0391,4.0879,4.1133,4.1172,4.1172,4.1172,4.1172,4.2999,4.3075,4.125,4.2174,4.1273,3.8574,3.8164,3.8837,4.0543,4.1461,4.2788,4.4492,4.5797,4.6326,4.6225,4.5698,4.5447,4.5347,4.4794,4.4568,4.4468,4.3915,4.3714,4.3639,0.0,0.0,0.0,0.0,0.0,0.0,0.0,0.0,0.0,0.0,0.0,0.0,0.0,0.0,0.0,0.0,0.0,0.0,1.5033,1.9131,2.1835,2.2604,2.785,3.0643,3.0412,3.2505,3.3744,3.3949,3.6148,3.7868,3.9064,4.1264,4.3743,4.6334,4.7003,4.8659,5.0856,4.9568,4.9695,5.0521,4.7393,4.2785,3.7406,3.341,2.8485,2.3368,2.0692,2.0263,2.0915,2.0509,2.0556,2.0939,2.1495,2.2131,2.2673,2.2928,2.3535,2.4237,2.4636,2.5096,2.5574,2.5876,2.6279,2.6638,2.674,2.7798,2.8744,2.8697,2.8204,2.7659,2.7368,2.9279,3.0612,2.9561,3.4041,0.0,3.6973,3.8368,0.0,3.8359,0.0,3.9023,3.8457,3.9004,3.9707,4.0469,4.0332,4.0508,4.1133,4.1172,4.1172,4.1172,4.1695,4.1695,4.1172,4.0825,3.9934,3.8574,3.8457,3.9209,4.0724,4.223,4.3539,4.4666,4.6217,4.6451,4.5673,4.5547,4.4995,4.4217,4.4066,4.3765,4.3338,4.2841,4.264,4.2615,0.0,0.0,0.0,0.0,0.0,0.0,0.0,0.0,0.0,0.0,0.0,0.0,0.0,0.0,0.0,0.0,0.0,0.0,0.0,1.5965,1.7512,1.735,2.0892,2.2705,2.2275,2.4038,2.4992,2.4992,2.7977,2.9991,3.114,3.3803,3.6428,3.8905,3.9463,4.0756,4.238,3.9487,3.8807,0.0,0.0,3.0949,2.7638,2.6656,2.395,2.0619,2.0748,2.0922,2.1045,0.0,0.0,2.121,2.1565,2.2483,2.3472,2.3703,0.0,2.5183,2.5646,2.6058,2.6373,2.6533,2.6707,2.6573,2.578,2.6485,2.706,2.6324,2.5572,2.4992,2.4845,2.6256,2.7287,0.0,0.0,0.0,3.4273,3.625,3.7821,0.0,3.9585,0.0,4.0019,4.0449,4.084,4.1055,4.0703,4.0664,4.1152,4.1172,4.1172,4.1172,4.1172,4.0996,4.0625,4.0137,3.9453,3.8574,3.8574,3.8997,3.9861,4.1953,4.3148,4.3775,4.5821,4.6276,4.5472,4.5221,4.4593,4.379,4.3539,4.3237,4.2936,4.269,4.2414,4.2213,0.0,0.0,0.0,0.0,0.0,0.0,0.0,0.0,0.0,0.0,0.0,0.0,0.0,0.0,0.0,0.0,0.0,0.0,0.0,0.0,1.3597,1.3812,1.3634,1.3438,1.3168,1.3564,1.3769,1.3769,1.9014,2.2179,2.3433,2.8165,3.1453,3.3417,3.4558,3.5491,3.5829,3.0138,2.7873,2.7513,2.0906,1.8664,1.9442,0.0,2.028,2.094,2.1292,2.1363,0.0,0.0,2.1321,2.1758,2.2415,2.3732,2.4983,2.478,2.5281,2.6012,2.6429,2.672,2.6934,2.6894,2.6787,2.6408,2.5411,2.5204,2.5032,2.4321,2.3591,2.3131,2.3288,2.3871,2.4328,2.4375,0.0,2.8403,3.0398,3.2559,3.4928,3.7654,3.9742,4.1151,4.1855,4.1894,4.1855,4.1797,4.1465,4.123,4.1172,4.1172,4.1172,4.1172,4.1172,4.0762,3.9902,3.9902,3.9453,3.8574,3.8574,3.872,3.9024,4.1118,4.2349,4.2901,4.5019,4.577,4.5321,4.4844,4.4242,4.3639,4.3162,4.2986,4.2961,4.2886,4.2564,4.2112,0.0,0.0,0.0,0.0,0.0,0.0,0.0,0.0,0.0,0.0,1.0691,0.9954,0.0,0.0,0.0,0.0,0.0,0.0,0.0,0.0,0.0,1.3882,1.3808,1.3786,1.3925,1.4102,1.4201,1.4201,1.5142,1.5397,1.5084,1.5745,1.658,1.7485,1.7888,1.875,1.9888,1.8909,1.8993,1.9578,1.8246,1.8382,1.9424,1.9446,0.0,0.0,2.15,0.0,0.0,2.1693,2.1732,2.179,2.2054,2.2852,2.3846,2.4766,2.5479,2.6171,2.6908,2.7321,2.7482,2.7255,2.664,2.5932,2.5243,2.4553,0.0,0.0,2.407,2.3555,2.3736,2.5335,2.6256,2.5138,3.003,3.3411,3.1484,3.4789,3.7675,0.0,3.8995,4.0142,4.2145,4.2324,0.0,4.1836,4.1738,4.1543,4.1191,4.1172,4.1172,4.1172,4.1172,4.0762,3.9902,3.9902,3.9453,3.8574,3.8574,3.9405,4.0829,4.045,4.197,4.4713,4.4308,4.439,4.4769,4.4669,4.4041,4.3112,4.3011,4.2986,4.2911,4.2514,4.1957,4.148,0.0,0.0,0.0,0.0,0.0,0.0,0.0,1.0572,1.0814,1.1339,1.1315,1.0881,0.9906,0.9679,0.9576,0.0,0.0,0.0,0.0,0.0,0.0,0.0,1.4018,1.4037,1.4317,1.4492,1.4604,1.4604,0.0,1.4109,1.3869,1.3346,1.3427,1.4055,1.4174,1.4771,1.5678,1.5929,1.6467,1.7167,1.7469,1.8202,1.9079,0.0,0.0,0.0,0.0,0.0,0.0,0.0,2.3092,2.2736,2.2699,2.3969,2.5482,2.5526,2.6708,2.788,2.7608,2.7709,2.7856,2.7562,2.66,2.5718,2.5517,0.0,0.0,0.0,2.4906,2.4506,2.4316,2.5029,0.0,2.4792,2.801,3.0226,2.9385,3.2538,3.5481,3.6972,3.8465,4.0308,4.2822,4.2891,4.2598,4.2168,4.1933,4.1621,4.1191,4.1172,4.1172,4.1172,4.0957,4.0527,3.9902,3.9648,3.9219,3.8574,3.8574,3.8945,3.9505,3.9813,4.0697,4.2146,4.3222,4.3732,4.379,4.4369,4.4141,4.3388,4.3087,4.2986,4.2936,4.274,4.2233,4.1731,0.0,0.0,0.0,0.0,0.0,0.0,0.0,1.1005,1.1348,1.1667,1.1902,1.1824,1.118,1.0519,1.0143,0.0,0.0,0.0,0.0,0.0,0.0,0.0,0.0,0.0,0.0,0.0,0.0,1.49,1.4577,0.0,0.0,0.0,0.0,0.0,1.4517,1.4855,1.5436,1.5779,1.6251,0.0,0.0,1.7953,0.0,0.0,0.0,0.0,0.0,0.0,0.0,0.0,2.4357,2.3856,2.3699,2.5319,2.7156,2.6377,2.7748,2.9266,2.7989,2.7869,2.8154,2.7776,2.6507,2.546,2.6005,2.5048,0.0,2.5859,2.5686,2.5238,2.5042,2.4729,2.4542,0.0,2.5643,2.6655,2.7136,3.0129,3.3215,0.0,3.8066,0.0,4.3405,4.332,0.0,4.2461,4.1953,4.1523,4.1191,4.1172,4.1172,4.1172,4.084,4.041,3.9902,3.9531,3.9082,3.8574,3.8574,3.834,3.791,3.8897,3.9322,3.9315,4.164,4.2529,4.247,4.3619,4.3573,4.2774,4.2962,4.2793,4.2544,4.2849,4.2559,4.1907,0.0,0.0,0.0,0.0,0.0,0.0,0.0,1.1512,1.1915,1.2672,1.2475,1.2231,1.2157,1.1292,1.0443,0.0,0.0,0.0,0.0,0.0,0.0,0.0,0.0,0.0,0.0,0.0,0.0,1.49,1.486,0.0,0.0,0.0,0.0,0.0,0.0,1.4727,1.5617,1.5808,0.0,0.0,0.0,0.0,0.0,0.0,0.0,0.0,0.0,0.0,0.0,0.0,0.0,2.4755,2.4729,2.5704,2.6708,2.6614,0.0,0.0,2.7621,2.7792,2.8154,2.7776,2.6199,2.5063,2.6583,0.0,2.3496,2.6323,2.583,2.5144,2.5813,2.5825,2.5553,2.5121,2.6996,2.8131,2.6992,3.075,3.4162,3.5742,0.0,0.0,4.3405,4.332,4.2891,4.2461,4.168,4.1211,4.1172,4.1172,4.1172,4.1172,4.1133,4.0723,3.9902,3.9863,3.9414,3.8574,3.8574,3.834,3.791,3.7622,3.8125,3.9181,3.9118,3.9606,4.0626,4.1808,4.1111,3.9582,4.2062,4.2093,4.1019,4.2432,4.2308,4.1351,0.0,0.0,0.0,0.0,0.0,0.0,1.0857,1.1444,1.1979,1.2471,1.2709,1.2673,1.2157,1.1848,1.1477,1.0919,0.0,0.0,0.0,0.0,0.0,0.0,0.0,0.0,0.0,0.0,1.5192,1.5192,1.5002,0.0,0.0,0.0,0.0,0.0,0.0,1.4623,1.5042,1.5534,0.0,0.0,0.0,0.0,0.0,0.0,0.0,0.0,0.0,0.0,2.3622,0.0,0.0,0.0,2.4959,2.5311,0.0,0.0,2.7391,2.9045,2.7877,2.7963,2.839,2.827,2.6914,2.6014,2.7506,0.0,2.4675,2.7117,2.6794,2.6107,2.6108,2.6048,2.5849,2.5505,2.6602,2.7284,2.6658,2.9127,3.1983,3.4657,3.6552,0.0,0.0,0.0,4.2129,4.1699,4.1367,4.1172,4.1172,4.1172,4.1172,4.1172,4.0918,4.0625,4.0273,3.9746,3.9297,3.8945,3.8437,3.8086,3.791,3.748,3.747,3.7771,3.8564,3.9647,4.0822,4.0699,4.1298,4.2195,4.0692,4.0904,4.2012,4.1672,4.1879,4.2283,0.0,0.0,0.0,0.0,0.0,1.0208,1.0649,1.1343,1.1899,1.2117,1.2636,1.2709,1.1898,1.2199,1.2239,1.1765,1.1377,0.0,0.0,0.0,0.0,0.0,0.0,0.0,0.0,0.0,1.5465,1.5382,1.5061,1.5017,0.0,0.0,1.4633,1.4885,0.0,0.0,0.0,0.0,0.0,0.0,0.0,0.0,0.0,0.0,0.0,0.0,0.0,0.0,0.0,0.0,0.0,0.0,0.0,0.0,0.0,0.0,2.6904,2.8738,2.7611,2.7848,2.8444,2.8364,2.7228,2.6549,0.0,0.0,2.5393,2.7471,2.7259,2.6622,2.6456,2.6428,2.6328,2.5952,2.6219,2.6502,2.65,2.8105,0.0,0.0,0.0,3.7254,4.0994,4.16,4.1621,4.1211,4.1172,4.1172,4.1172,4.1172,4.1172,4.1172,4.0879,4.0644,4.0527,3.9785,3.9336,3.9199,3.8457,3.7988,3.7734,3.7441,3.6992,3.6553,3.7705,3.8695,3.9433,3.9119,3.992,4.1328,3.9574,3.9989,4.1558,4.1362,4.1815,4.2434,0.0,0.0,0.0,0.0,0.0,0.0,1.0921,1.1329,1.1647,1.1712,1.2231,1.2305,1.1477,1.2219,1.2516,1.1876,1.2401,0.0,0.0,0.0,0.0,0.0,0.0,0.0,0.0,0.0,1.5616,1.5382,1.5061,1.49,1.49,1.4618,1.4633,1.49,0.0,0.0,0.0,0.0,0.0,0.0,0.0,0.0,0.0,0.0,0.0,0.0,0.0,0.0,0.0,0.0,0.0,0.0,0.0,0.0,0.0,0.0,2.6226,2.7695,2.66,2.7223,2.8154,2.7776,2.6753,2.6096,0.0,0.0,2.4907,2.7133,2.6868,2.6423,2.7179,2.7309,2.7071,2.6399,2.6278,2.6427,2.6729,2.8146,0.0,0.0,0.0,3.5481,3.8671,4.0666,4.1621,4.1211,4.1172,4.1172,4.1172,4.1172,4.1172,4.1172,4.1172,4.0957,4.0527,4.0098,3.9668,3.9199,3.8769,3.8125,3.7305,3.7305,3.6836,3.6035,3.6035,3.5781,3.5552,3.667,3.5963,3.4644,3.888,3.9639,3.8639,4.1785,4.2283,4.13,0.0,0.0,0.0,0.0,0.0,0.0,0.0,1.0985,1.1316,1.1477,1.1885,1.2046,1.1639,1.2332,1.2672,1.2373,1.2818,0.0,0.0,0.0,0.0,0.0,0.0,0.0,0.0,0.0,1.5865,1.5616,1.5513,1.5386,1.5221,1.5102,1.5197,1.5468,1.5714,1.6021,0.0,0.0,0.0,0.0,0.0,0.0,0.0,0.0,0.0,0.0,0.0,0.0,0.0,0.0,0.0,0.0,0.0,0.0,0.0,2.1895,2.3633,0.0,2.5618,2.5984,2.6481,2.7158,2.663,2.6277,2.7659,2.6586,2.5729,2.7057,2.6853,2.6526,2.6955,2.7167,2.7366,2.7582,2.7603,2.7633,0.0,0.0,0.0,3.3367,3.6785,3.9391,0.0,4.1055,4.1308,4.1191,4.1172,4.1172,4.1172,4.1172,4.1172,4.1172,4.1172,4.0957,4.0527,4.0391,3.9941,3.9199,3.8476,3.7988,3.7715,3.7129,3.6719,3.6465,3.6465,3.7348,3.868,3.7529,3.7861,3.9077,3.8999,3.9347,3.9931,4.0961,4.1569,4.1907,0.0,0.0,0.0,0.0,0.0,0.0,0.0,1.0801,1.1068,1.1068,1.1589,1.1848,1.1515,1.2295,1.2749,1.2439,1.3345,0.0,0.0,0.0,0.0,0.0,0.0,0.0,1.6196,1.6196,1.6072,1.5865,1.5745,1.5602,1.5479,1.5178,1.5247,1.5684,1.593,1.6232,0.0,0.0,0.0,0.0,0.0,0.0,2.0189,0.0,0.0,0.0,0.0,0.0,0.0,0.0,0.0,0.0,0.0,0.0,0.0,0.0,2.2018,2.3327,0.0,2.4856,2.5413,2.6156,2.5944,0.0,0.0,2.6252,2.5849,2.6607,2.6665,2.658,2.6729,2.7069,2.7476,2.7995,2.8218,2.8221,0.0,0.0,0.0,3.3851,0.0,0.0,3.9872,4.0627,4.1172,4.1172,4.1172,4.1172,4.1172,4.1016,4.0918,4.0918,4.1094,4.1035,4.0781,4.0449,4.0,3.9453,3.8418,3.7832,3.7656,3.6992,3.6582,3.6426,3.6426,3.7072,0.0,3.6761,3.7065,3.8386,3.8276,3.8817,3.9791,4.0836,4.1484,4.1806,0.0,0.0,0.0,0.0,0.0,0.0,0.0,1.0703,1.0968,1.0631,1.1391,1.1775,1.1254,1.2309,1.2799,1.2222,0.0,0.0,0.0,0.0,0.0,0.0,0.0,0.0,1.6396,1.6396,1.6288,1.6098,1.5776,1.5639,1.5599,1.5011,1.5042,1.5654,1.5925,1.6412,0.0,0.0,0.0,0.0,0.0,0.0,0.0,0.0,0.0,0.0,0.0,0.0,0.0,0.0,0.0,0.0,0.0,0.0,0.0,0.0,0.0,0.0,0.0,2.3793,2.4687,0.0,0.0,0.0,0.0,0.0,0.0,2.5936,2.6369,2.6626,2.6569,2.6993,2.747,2.7824,2.8237,2.8278,0.0,2.9648,0.0,0.0,3.6232,3.7811,3.7677,3.9833,4.1172,4.1172,4.1172,4.1172,4.1133,4.0742,4.0508,4.0469,4.0879,4.1074,4.1035,4.0234,3.9824,3.9746,3.8476,3.7656,3.7226,3.6777,3.6367,3.5976,3.5976,3.5536,3.4845,3.4884,3.4373,3.3902,3.704,3.8238,3.8467,4.1125,4.1756,4.115,0.0,0.0,0.0,0.0,0.0,0.0,0.0,0.0,0.0,0.0,1.1627,1.1993,1.2171,1.2923,1.3307,0.0,0.0,0.0,0.0,0.0,0.0,0.0,0.0,0.0,1.6253,1.6253,1.6133,1.5947,1.587,1.5882,1.5965,1.6,1.6081,1.6252,1.6991,1.7751,0.0,0.0,0.0,0.0,0.0,0.0,0.0,0.0,0.0,0.0,1.9945,1.9916,0.0,0.0,0.0,0.0,0.0,0.0,0.0,0.0,2.1081,2.1643,2.1839,0.0,2.2747,2.3913,2.3586,2.3357,0.0,0.0,0.0,0.0,0.0,0.0,0.0,2.7342,2.7854,2.8307,2.8615,2.8562,2.7977,3.0858,0.0,3.6723,3.8986,3.9736,3.8124,3.9928,4.1172,4.1172,4.1172,4.1035,4.0684,4.0586,4.0371,4.0059,4.0137,4.0019,3.9668,3.9473,3.9043,3.8379,3.7754,3.7226,3.6797,3.6035,3.5644,3.5547,3.5547,3.5745,3.6119,3.6385,3.6036,3.5539,3.8326,3.8654,3.7888,4.0508,4.1178,4.0701,0.0,0.0,0.0,0.0,0.0,0.0,0.0,0.0,0.0,0.0,0.0,1.2285,1.2479,1.2975,0.0,0.0,0.0,0.0,0.0,0.0,0.0,0.0,0.0,1.6397,1.6206,1.6206,1.6325,1.6621,1.6461,1.6718,1.7367,1.6879,1.6774,1.7033,1.7547,1.8081,0.0,0.0,0.0,0.0,1.9966,0.0,0.0,0.0,0.0,0.0,2.0042,2.0095,0.0,1.8953,1.9111,1.9682,0.0,0.0,0.0,0.0,2.1296,2.1946,2.2063,2.198,2.2113,2.3169,2.2979,2.284,2.3936,0.0,0.0,0.0,0.0,0.0,0.0,2.6924,2.7376,2.8401,2.7771,2.7716,0.0,0.0,3.3725,3.7866,3.9022,3.9544,3.9484,4.0548,4.1172,4.1172,4.0996,4.0781,4.0527,4.0137,3.9726,3.9297,3.9101,3.916,3.9512,3.9121,3.8672,3.8223,3.7402,3.6894,3.6641,3.5976,3.5566,3.541,3.5605,3.5587,3.5405,3.5851,3.5486,3.4943,3.7138,3.7722,3.7591,3.9515,4.0364,4.0475,0.0,0.0,0.0,0.0,0.0,0.0,0.0,0.0,0.0,0.0,0.0,0.0,0.0,0.0,0.0,0.0,0.0,0.0,0.0,0.0,0.0,0.0,1.6251,1.6078,1.5968,1.6134,1.6517,1.7242,1.698,1.7436,1.8542,1.747,1.7209,1.7646,1.7728,1.801,0.0,1.9217,1.9741,2.0072,2.0229,0.0,0.0,0.0,0.0,0.0,0.0,0.0,0.0,1.939,1.9772,2.0533,1.9431,0.0,0.0,0.0,0.0,0.0,2.2502,2.2418,2.228,2.26,2.2621,2.2672,2.3237,0.0,0.0,0.0,0.0,0.0,0.0,2.6417,0.0,0.0,0.0,0.0,3.071,3.0726,3.2139,3.6988,3.7592,3.8329,4.0009,4.0686,4.1055,4.0976,4.0644,4.0391,4.0332,3.9551,3.8906,3.8496,3.8066,3.8359,3.9492,3.8691,3.8281,3.8262,3.7109,3.6543,3.6465,3.6016,3.5586,3.5215,3.5566,3.5059,3.4004,3.4434,3.4141,3.3524,3.5005,3.617,3.7183,3.8274,3.928,4.0084,0.0,0.0,0.0,0.0,0.0,0.0,0.0,0.0,0.0,0.0,0.0,0.0,0.0,0.0,0.0,0.0,0.0,0.0,0.0,0.0,0.0,1.5694,1.5792,1.5519,1.4946,1.5771,1.6118,1.5996,1.6461,1.6821,1.7056,1.7183,1.7269,1.7359,1.754,1.8002,1.8649,1.8807,1.929,1.992,1.9553,0.0,0.0,0.0,0.0,0.0,0.0,0.0,0.0,1.8535,1.8798,1.9455,1.9429,0.0,0.0,0.0,0.0,0.0,2.2451,2.2559,2.2533,2.268,2.2358,2.2168,2.2686,0.0,0.0,0.0,0.0,0.0,0.0,2.6774,2.7749,0.0,0.0,2.8114,0.0,0.0,3.0476,3.2439,3.5779,3.7131,3.5476,3.8501,4.0469,4.0117,4.0019,3.9824,3.9434,3.8945,3.8476,3.8027,3.7617,3.75,3.7695,3.7207,3.6973,3.6953,3.6387,3.5937,3.5566,3.5117,3.4668,3.4277,3.4336,3.4043,3.3555,3.3984,3.3867,3.3466,3.4326,3.4921,3.5584,3.7095,3.8036,3.8599,0.0,0.0,0.0,0.0,0.0,0.0,0.0,0.0,0.0,0.0,0.0,0.0,0.0,0.0,0.0,0.0,0.0,0.0,0.0,0.0,1.4641,1.5078,1.5486,1.5557,1.5181,1.5849,1.6381,1.6674,1.6741,1.7244,1.8093,1.7936,1.759,1.7208,1.7832,1.8278,1.8638,1.9105,1.955,1.9899,0.0,0.0,0.0,0.0,0.0,0.0,0.0,0.0,0.0,0.0,2.0093,2.0381,2.0394,0.0,0.0,0.0,0.0,0.0,2.2553,2.3203,2.3657,2.272,2.2132,2.1846,2.1821,0.0,0.0,0.0,0.0,0.0,0.0,0.0,2.6303,2.5737,2.714,2.8494,2.9216,2.9189,2.9769,3.1646,3.3149,3.4513,3.578,3.7491,3.8899,3.9827,3.9668,3.9434,3.9219,3.8574,3.8027,3.7598,3.7187,3.6836,3.6621,3.6191,3.6211,3.666,3.623,3.5801,3.5391,3.5176,3.4707,3.4082,3.4316,3.4043,3.3437,3.3633,3.3476,3.307,3.3155,3.3692,3.4567,3.6726,3.7619,3.7947,0.0,0.0,0.0,0.0,0.0,0.0,0.0,0.0,0.0,0.0,0.0,0.0,0.0,0.0,0.0,0.0,0.0,0.0,0.0,1.4875,1.5163,1.4919,1.5292,1.5431,1.5382,1.592,1.6501,1.7079,1.6941,1.7577,1.8925,1.8466,1.7869,1.7244,1.8065,1.843,1.8566,1.9346,1.9753,1.9962,0.0,0.0,0.0,0.0,0.0,0.0,0.0,0.0,0.0,0.0,0.0,0.0,0.0,0.0,0.0,2.1727,2.2128,2.2604,2.2823,2.3668,2.421,2.3029,0.0,2.2529,2.1684,2.1618,2.1845,0.0,0.0,0.0,0.0,2.5282,0.0,2.5243,2.7206,2.8531,2.7647,2.8012,2.9048,3.0825,3.0809,3.2139,3.5912,3.6439,3.7385,3.9421,3.916,3.8945,3.9043,3.8242,3.7637,3.7305,3.6797,3.6348,3.6016,3.5703,3.582,3.6367,3.6035,3.5605,3.5098,3.5176,3.4746,3.3945,3.4258,3.3965,3.3281,3.3281,3.3027,3.2598,3.2187,3.2653,3.3847,3.5866,3.6958,3.769,0.0,0.0,0.0,0.0,0.0,0.0,0.0,0.0,0.0,0.0,0.0,0.0,0.0,0.0,0.0,0.0,0.0,0.0,0.0,1.4186,1.4475,1.5478,1.5036,1.4754,1.4745,1.5716,1.6102,1.5822,1.6421,1.7131,1.7905,1.8062,1.791,1.7576,1.7965,1.8257,1.8506,1.8886,1.9384,1.9882,1.9962,0.0,0.0,0.0,0.0,0.0,0.0,0.0,0.0,0.0,0.0,0.0,0.0,0.0,2.1329,2.1929,2.2097,2.2367,2.3338,2.3375,2.3291,2.3808,2.4708,2.4951,2.3078,2.3204,2.3699,2.3642,2.3475,0.0,0.0,2.5574,2.6939,2.7947,2.8258,2.8279,2.7744,2.7729,2.7825,2.8002,2.9491,3.1258,3.3055,3.4691,3.6442,3.8526,3.8262,3.8184,3.8594,3.7812,3.7324,3.7305,3.6504,3.6055,3.6016,3.5996,3.5801,3.5488,3.5449,3.5,3.418,3.457,3.4277,3.3476,3.3496,3.3262,3.2832,3.2832,3.2598,3.2168,3.1738,3.219,3.3218,3.3769,3.548,3.753,0.0,0.0,0.0,0.0,0.0,0.0,0.0,0.0,0.0,0.0,0.0,0.0,0.0,0.0,0.0,0.0,0.0,0.0,0.0,1.4652,1.4842,1.5848,1.5424,1.5031,1.483,1.5423,1.5568,1.5327,1.6329,1.7175,1.7822,1.811,1.8218,1.8189,1.8698,1.904,1.9276,1.9647,1.9929,2.0172,2.0428,2.0423,0.0,0.0,0.0,0.0,0.0,0.0,0.0,0.0,2.162,2.1893,2.1879,2.1829,2.1795,2.203,2.208,2.2316,2.3438,2.3705,2.379,2.4244,2.5136,0.0,0.0,2.3186,2.3526,2.3978,2.3851,2.4001,2.5375,0.0,2.5991,2.764,2.7658,2.7412,2.7417,2.7268,2.7148,2.7148,2.744,2.8856,3.1918,3.2682,3.4337,3.7559,3.7617,3.7598,3.7773,3.7226,3.6914,3.6914,3.6328,3.5898,3.5625,3.5351,3.498,3.457,3.5137,3.5059,3.4453,3.4355,3.3848,3.3047,3.3301,3.3027,3.2402,3.2402,3.2148,3.1719,3.1289,3.1366,3.1845,3.2945,3.3939,3.488,0.0,0.0,0.0,0.0,0.0,0.0,0.0,0.0,0.0,0.0,0.0,0.0,0.0,0.0,0.0,0.0,0.0,0.0,1.4977,1.4852,1.5033,1.5756,1.5284,1.4878,1.4638,1.4795,1.4935,1.5029,1.6342,1.7243,1.7762,1.8358,1.8649,1.8655,1.9107,1.9446,1.9628,1.9957,2.011,2.0235,2.0583,2.0531,0.0,0.0,0.0,0.0,0.0,0.0,0.0,0.0,2.2077,2.2384,2.2182,2.208,2.2131,2.2232,2.208,2.2064,2.307,2.3478,2.3649,2.3913,0.0,0.0,2.3823,2.3718,2.3993,2.4331,2.4239,2.4503,2.5835,2.5371,2.5324,2.6924,2.6829,2.6653,2.6947,2.7119,2.7059,2.6613,2.7087,2.8535,3.139,3.1946,3.3534,3.7074,3.7168,3.7148,3.7285,3.6894,3.668,3.668,3.6113,3.5684,3.5391,3.4922,3.4551,3.4277,3.4746,3.4726,3.4297,3.4141,3.3672,3.3008,3.3164,3.2832,3.2209,3.2012,3.1699,3.1289,3.0996,3.0898,3.0995,3.2035,3.2701,3.3247,0.0,0.0,0.0,0.0,0.0,0.0,0.0,0.0,0.0,0.0,0.0,0.0,0.0,0.0,0.0,0.0,0.0,0.0,1.4307,1.4559,1.4783,1.509,1.4447,1.4097,1.4097,1.3857,1.4102,1.4915,1.6377,1.7291,1.7628,1.8698,1.9138,1.899,1.9125,1.9274,1.9407,1.9567,1.9716,1.9928,2.0201,2.0292,2.0292,0.0,0.0,0.0,0.0,0.0,0.0,0.0,2.1612,2.208,2.208,2.208,2.2182,2.2485,2.1979,2.1471,2.2299,2.2484,2.2536,2.286,0.0,0.0,2.4405,2.5,2.5375,2.4778,2.4693,2.4812,2.5137,2.5128,2.5349,2.5912,2.6001,2.6052,2.6333,2.7458,2.7629,2.6202,2.873,3.0769,3.1333,3.2731,3.4637,3.7105,3.6894,3.6855,3.7266,3.6894,3.666,3.666,3.584,3.5391,3.5391,3.4922,3.4687,3.4668,3.4258,3.3828,3.3437,3.3867,3.3828,3.3398,3.2969,3.2559,3.219,3.1699,3.1269,3.0898,3.0898,3.0898,3.0898,3.0898,3.1825,3.3077,0.0,0.0,0.0,0.0,0.0,0.0,0.0,0.0,0.0,0.0,0.0,0.0,0.0,0.0,0.0,0.0,0.0,0.0,1.4279,1.3717,1.3633,1.4349,1.3899,1.3688,1.3815,1.4111,1.4659,1.5475,1.5877,1.6832,1.8149,1.8488,1.8902,1.943,1.9685,1.9969,2.0193,2.0235,2.0395,2.0593,2.0394,2.0292,2.0246,0.0,0.0,0.0,0.0,0.0,0.0,0.0,0.0,0.0,2.208,2.208,2.2182,2.2485,2.2131,2.1928,2.347,2.2519,2.1677,2.4017,0.0,0.0,0.0,2.4426,0.0,0.0,2.6855,2.7664,2.9034,2.7693,2.6722,2.7668,2.6417,2.5371,2.5451,2.6663,2.7291,2.6648,2.8317,3.0213,3.1983,3.2556,3.3789,3.623,3.6289,3.6269,3.6387,3.6289,3.6074,3.5781,3.5527,3.5098,3.4473,3.4336,3.3412,3.1697,3.27,3.3418,3.3867,3.3691,3.3379,3.2969,3.2851,3.2383,3.168,3.125,3.0996,3.0898,3.0898,3.0898,3.0898,3.0898,3.117,3.1556,0.0,0.0,0.0,0.0,0.0,0.0,0.0,0.0,0.0,0.0,0.0,0.0,0.0,0.0,0.0,0.0,0.0,0.0,0.0,1.317,1.317,1.3844,1.3471,1.3441,1.3728,1.4449,1.5096,1.5576,1.5756,1.6632,1.8102,1.8442,1.895,1.9733,1.9932,2.0172,2.0403,2.0479,2.0539,2.0634,2.0549,2.0486,2.0348,0.0,0.0,0.0,0.0,0.0,0.0,0.0,0.0,0.0,2.1744,2.1844,2.2012,2.1912,2.161,2.1554,2.2231,2.1639,2.1209,2.2731,2.2782,2.2637,2.3458,0.0,0.0,0.0,2.806,2.9043,3.0024,2.8738,2.7742,2.8456,2.6914,2.5615,2.5615,2.6887,2.7483,2.6717,2.9237,3.1354,3.2169,3.2949,3.3954,3.5402,3.5488,3.5488,3.5488,3.5488,3.5371,3.5137,3.4961,3.425,3.2891,3.272,3.144,2.9204,3.0166,3.0954,3.1561,3.2694,3.3027,3.2773,3.1788,3.0564,2.937,2.9761,2.9903,2.9962,3.0645,3.0898,3.0898,3.0898,3.0898,3.0898,0.0,0.0,0.0,0.0,0.0,0.0,0.0,0.0,0.0,0.0,0.9966,0.0,0.0,0.0,0.0,0.0,0.0,0.0,0.0,1.2957,1.3221,1.3498,1.329,1.339,1.3887,1.4843,1.5377,1.5425,1.5879,1.6636,1.7638,1.8442,1.9136,1.9745,1.9954,2.0154,2.032,2.0509,2.0505,2.0383,2.0737,2.0687,2.0406,2.0154,0.0,0.0,0.0,0.0,0.0,0.0,0.0,0.0,2.1187,2.1419,2.1739,2.0982,2.0793,2.0648,1.9782,2.0321,2.0938,2.0213,2.1395,0.0,2.2552,2.5243,2.7776,2.7819,0.0,2.927,2.9476,2.8943,2.8627,2.8793,2.7436,2.6489,2.6583,2.7752,2.8132,2.6908,3.1065,3.3513,3.2241,3.3624,3.4668,3.4687,3.4707,3.4687,3.4648,3.4668,3.4648,3.4531,3.407,3.2853,3.091,3.0529,2.9249,2.7041,2.7483,2.7587,2.752,3.0976,3.251,3.2309,2.9898,2.78,2.6106,2.7572,2.817,2.8349,2.9844,3.045,3.045,3.045,3.0528,3.0645,0.0,0.0,0.0,0.0,0.0,0.0,0.0,0.0,0.0,0.0,0.0,0.0,0.0,0.0,0.0,0.0,0.0,0.0,0.0,1.3064,1.3218,1.3513,1.3435,1.3746,1.4506,1.4694,1.5118,1.5783,1.6039,1.6512,1.7185,1.8393,1.8801,1.8582,2.0423,2.0878,2.0325,2.1044,2.1187,2.0928,2.0661,2.0436,2.0154,1.9872,2.0377,0.0,0.0,0.0,0.0,0.0,0.0,0.0,2.1055,2.1088,2.1204,2.1235,2.072,2.0319,2.1434,2.075,0.0,2.168,2.2454,2.2984,2.3383,2.5285,2.722,2.8329,2.909,3.0309,3.2561,3.1968,3.099,3.0694,2.8257,2.6816,2.7976,2.8421,2.8893,2.9733,3.2022,3.3603,3.3623,3.4005,3.4336,3.4668,3.4707,3.4551,3.4219,3.4531,3.4238,3.3242,3.2192,3.1102,2.9994,2.9886,2.814,2.4903,2.8781,2.8632,2.509,2.8709,3.018,2.9764,2.7912,2.67,2.6045,2.6349,2.653,2.653,2.6893,2.7073,2.7073,2.7073,2.7871,2.892,0.0,0.0,0.0,0.0,0.0,0.0,0.0,0.0,0.0,0.0,0.0,0.0,0.0,0.0,0.0,0.0,0.0,0.0,0.0,0.0,1.3419,1.3701,1.4284,1.4515,1.4335,1.4888,1.5347,1.5668,1.6176,1.6597,1.7037,1.7721,1.8108,1.8288,1.9861,2.0473,2.0452,2.1221,2.1315,2.1006,2.0802,2.053,2.0295,2.0124,2.0406,2.0884,2.0933,0.0,0.0,0.0,0.0,0.0,0.0,0.0,2.1404,2.1144,2.0884,2.0744,2.0898,0.0,0.0,2.1962,0.0,2.3166,2.3487,2.4247,2.5309,2.6869,2.8202,2.9714,3.1856,3.1488,3.1047,3.1567,2.9518,2.813,2.8926,2.9021,2.9409,3.0373,3.2062,3.3281,3.3711,3.375,3.3769,3.3789,3.3789,3.3613,3.3184,3.3359,3.3184,3.2519,3.187,3.0916,2.9451,2.9433,2.7929,2.5092,2.7626,2.7505,2.5108,2.7266,2.7706,2.6715,2.5622,2.458,2.373,2.4532,2.5314,2.5984,2.5984,2.647,2.7134,2.7134,2.7692,2.8486,0.0,0.0,0.0,0.0,0.0,0.0,0.0,0.0,0.0,0.0,0.0,0.0,0.0,0.0,0.0,0.0,0.0,0.0,0.0,0.0,0.0,1.3978,1.4896,1.4975,1.4076,1.5022,1.5457,1.5268,1.6137,1.6557,1.6551,1.6995,1.7433,1.7929,1.8988,1.9765,2.0301,2.1134,2.1258,2.093,2.093,2.0661,2.0235,2.0284,2.034,2.0427,2.0541,2.0998,2.1509,2.1576,0.0,0.0,0.0,0.0,2.1737,2.1032,2.1098,2.113,1.9956,0.0,2.1162,2.171,2.2472,0.0,2.31,2.2899,2.3174,2.4616,2.6401,2.8143,2.9443,2.944,2.9741,3.1153,2.9865,2.8772,2.9101,2.8834,2.902,2.9987,3.1396,3.2502,3.3101,3.3203,3.3066,3.2715,3.2695,3.25,3.207,3.219,3.215,3.1953,3.1769,3.077,2.8974,2.8974,2.8008,2.5984,2.5984,2.5984,2.5984,2.6068,2.5328,2.4074,2.3444,2.2404,2.1235,2.2591,2.3931,2.5192,2.5497,2.6409,2.7632,2.7871,2.817,2.8605,0.0,0.0,0.0,0.0,0.0,0.0,0.0,0.0,0.0,0.0,0.0,0.0,0.0,0.0,0.0,0.0,0.0,0.0,0.0,0.0,0.0,1.4196,1.3944,1.4064,1.4592,1.4544,1.4594,1.4788,1.5857,1.5781,1.4789,1.681,1.7064,1.5927,1.8513,1.954,1.9488,2.098,2.1445,2.1066,2.1066,2.034,1.9241,1.9477,1.9585,1.9711,2.0291,2.075,2.1107,2.1492,2.1538,0.0,0.0,0.0,2.1442,2.1329,2.0863,2.0458,0.0,0.0,2.136,0.0,2.1697,2.2164,0.0,0.0,2.2164,0.0,2.3898,2.5621,2.7364,2.763,2.7659,2.7912,2.6439,2.5801,2.7407,2.6248,2.6391,2.9404,3.0,3.0717,3.2202,3.2344,3.2305,3.2246,3.2246,3.207,3.1621,3.1953,3.1816,3.1094,3.0036,2.9216,2.8498,2.8498,2.7684,2.5984,2.5984,2.5984,2.5924,2.4579,2.3882,2.3571,2.2118,2.1299,2.1109,2.1348,2.1538,2.1902,2.3325,2.4054,2.4425,2.5802,2.7194,2.8426,0.0,0.0,0.0,0.0,0.0,0.0,0.0,0.0,0.0,0.0,0.0,0.0,0.0,0.0,0.0,0.0,0.0,0.0,0.0,0.0,0.0,1.4075,1.4279,1.428,1.4033,1.4232,1.4351,1.4468,1.5746,1.5746,1.4619,1.6134,1.6249,1.5309,1.7365,1.8607,1.9241,1.993,2.0406,2.0573,1.9765,1.9314,1.9238,1.9143,1.9235,1.9418,1.941,1.9928,2.0654,2.1062,2.1478,2.1875,2.2245,0.0,0.0,0.0,2.0958,2.0636,2.0669,2.0674,2.0739,0.0,2.143,2.179,2.1951,2.1857,2.1815,2.1815,2.2236,2.3241,2.5107,2.5313,2.5485,2.6401,2.5905,2.5656,2.6463,2.5905,2.6032,2.7758,2.7961,2.873,3.0605,3.0808,3.11,3.1756,3.1797,3.1621,3.1191,3.1348,3.1289,3.0898,3.0388,3.0014,2.9785,2.9766,2.9471,2.8742,2.7811,2.7314,2.7314,2.568,2.3931,2.2153,2.1411,2.1109,2.1109,2.1109,2.2201,2.3854,2.3683,2.4733,2.6365,2.7073,2.7811,2.8545,0.0,0.0,0.0,0.0,0.0,0.0,0.0,0.0,0.0,0.0,0.0,0.0,0.0,0.0,0.0,0.0,0.0,0.0,0.0,0.0,0.0,1.392,1.4493,1.4449,1.3709,1.4013,1.4205,1.4194,1.5632,1.572,1.4595,1.557,1.5679,1.5137,1.6232,1.7309,1.8419,1.8716,1.9243,1.9813,1.8792,1.8622,1.8979,1.8815,1.886,1.8944,1.8505,1.9065,2.0065,2.0468,2.102,2.1711,2.2367,2.2195,0.0,0.0,0.0,0.0,0.0,0.0,2.0173,2.0637,2.1078,2.1457,0.0,0.0,2.14,0.0,2.1096,2.1339,2.2875,2.3068,2.3387,2.4578,2.4763,2.4763,2.4763,2.4763,2.5042,2.5762,2.5856,2.6637,2.858,2.8782,2.9105,2.9998,3.0099,2.9968,2.9667,2.9648,2.9787,3.0121,3.0121,3.0296,3.0723,3.0723,3.0664,3.0547,2.9423,2.8582,2.8061,2.7047,2.496,2.2151,2.1874,2.1475,2.1109,2.1109,2.2514,2.4701,2.4348,2.5696,2.7871,2.8724,2.9039,2.9216,0.0,0.0,0.0,0.0,0.0,0.0,0.0,0.0,0.0,0.0,0.0,0.0,1.4675,1.4424,1.4173,1.4234,0.0,0.0,0.0,0.0,0.0,1.3859,1.3919,0.0,1.4268,1.4027,1.3895,1.3918,1.5345,1.5419,1.4352,1.5494,1.5682,1.5121,1.5257,1.565,1.6251,1.7516,1.8369,1.878,1.9,1.8555,1.7917,1.8203,1.8131,1.791,1.7977,1.8508,1.9214,1.9547,1.9849,2.0237,2.098,2.1153,2.1168,0.0,0.0,0.0,0.0,1.9643,0.0,1.9864,2.0382,0.0,0.0,0.0,2.0722,2.0722,2.0481,2.0374,2.0792,2.1061,2.1235,2.1348,2.1348,2.1348,2.1348,2.1348,2.1978,2.3527,2.379,2.4394,2.6034,2.6216,2.6216,2.6261,2.6305,2.6305,2.6288,2.6227,2.6799,2.7944,2.7926,2.87,3.0234,3.0234,3.0039,2.9648,2.9982,2.907,2.7211,2.7948,2.7123,2.5011,2.3917,2.2591,2.1109,2.1109,2.1235,2.1664,2.4701,2.5984,2.653,2.9589,3.0762,3.0762,0.0,0.0,0.0,0.0,0.0,0.0,0.0,0.0,0.0,0.0,0.0,0.0,0.0,1.4985,1.4689,1.5818,1.4496,0.0,0.0,0.0,0.0,1.3909,1.4076,1.4112,1.4027,1.4112,1.4064,1.3883,1.5679,1.5914,1.4856,1.6171,1.6275,1.5355,1.5607,1.6011,1.6544,1.7173,1.7738,1.8203,1.7732,1.7723,1.7882,1.7468,1.771,1.8143,1.749,1.7847,1.8731,1.9347,0.0,0.0,0.0,0.0,0.0,0.0,0.0,0.0,0.0,0.0,0.0,1.944,2.0033,2.0669,2.06,2.0468,2.0388,2.0388,2.0307,2.0267,2.0374,2.0628,2.0895,2.1082,2.1109,2.1109,2.1109,2.1109,2.1281,2.1714,2.1916,2.2568,2.3978,2.4347,2.4901,2.5924,2.5984,2.5984,2.5984,2.583,2.6364,2.7791,2.7597,2.8216,2.9785,2.9785,2.9726,2.9626,2.9726,2.9426,2.8709,2.9013,2.8173,2.6452,2.6007,2.5256,2.4163,2.3139,2.3311,2.4332,2.5558,2.6651,2.7811,3.0079,3.0898,3.0898,0.0,0.0,0.0,0.0,0.0,0.0,0.0,0.0,0.0,1.4461,0.0,0.0,0.0,0.0,1.5793,1.6308,1.5156,1.4151,1.3606,1.3835,1.4027,1.4028,1.4208,1.4244,1.4158,1.4159,1.4208,1.4316,1.5877,1.6361,1.5813,1.6831,1.6941,1.6195,1.6201,1.6303,1.6407,1.6725,1.7028,1.7328,1.708,1.7143,1.729,1.7106,1.7367,1.7666,1.7092,1.735,1.8104,1.8844,0.0,0.0,0.0,0.0,0.0,0.0,0.0,0.0,1.8272,0.0,0.0,0.0,0.0,2.0287,2.0487,2.0358,2.0199,2.0067,2.0013,1.9973,2.0067,2.0254,2.0481,2.0762,2.0815,2.0815,2.0815,2.0815,2.0748,2.0548,2.0695,2.1156,2.2037,2.2432,2.3101,2.4116,2.427,2.4332,2.4332,2.4084,2.4567,2.5795,2.665,2.7566,2.8439,2.9056,2.9277,2.9196,2.9277,2.9277,2.916,2.9489,2.8914,2.7677,2.7881,2.7062,2.5441,2.3963,2.4009,2.4971,2.516,2.6167,2.7811,2.9471,3.0392,3.0898,0.0,0.0,0.0,0.0,0.0,0.0,0.0,0.0,1.4195,1.4998,0.0,0.0,0.0,0.0,0.0,1.5769,1.5499,1.4908,1.3661,1.4017,1.4267,1.4295,0.0,0.0,1.4714,1.4169,1.4328,1.5108,1.5989,1.6652,1.7078,1.7479,1.7551,1.7476,1.6977,1.6327,1.5695,1.6125,1.6189,1.6113,1.7171,1.6957,1.6054,1.7106,1.7039,1.6435,1.6944,1.7177,1.7332,1.8144,1.84,0.0,0.0,0.0,0.0,0.0,0.0,0.0,0.0,0.0,0.0,0.0,0.0,0.0,2.0416,0.0,2.0109,1.9824,1.9604,1.9439,1.972,1.9773,1.9853,2.0134,2.0153,2.0167,2.0167,2.0167,2.0214,2.0214,2.0214,2.0214,2.0214,2.0494,2.0668,2.0668,2.0922,2.1082,2.1096,2.0877,2.1166,2.1978,2.4975,2.646,2.6118,2.791,2.8637,2.8301,2.8711,2.8691,2.832,2.916,2.9297,2.8871,2.928,2.7655,2.4545,2.3458,2.2959,2.2943,2.3454,2.4594,2.6167,2.7811,2.9471,3.0898,0.0,0.0,0.0,0.0,0.0,0.0,1.3221,1.3619,1.4172,0.0,0.0,0.0,1.771,1.8527,1.8581,1.7524,1.6587,1.5919,1.5551,1.4569,1.4099,1.4316,1.4111,1.4243,1.4714,1.4544,1.4789,1.537,1.6221,1.666,1.6842,1.7525,1.777,1.7527,1.7396,1.7226,1.7055,1.6921,1.6737,1.6584,1.7546,1.7601,1.7193,1.7754,1.8059,1.8154,1.7935,1.7704,1.7695,1.8892,1.8452,1.7623,0.0,0.0,0.0,0.0,0.0,0.0,1.8279,0.0,0.0,0.0,0.0,0.0,0.0,0.0,1.9835,1.9747,1.9377,1.9065,1.9145,1.8998,1.8878,1.8958,1.9679,2.0167,2.0167,2.0054,1.992,1.992,1.992,1.992,1.992,2.0187,2.0361,2.0361,2.0428,2.0575,2.0788,2.1596,2.1992,2.2021,2.3707,2.519,2.6385,2.6701,2.7335,2.8301,2.8418,2.8398,2.8301,2.8535,2.8013,2.6883,2.6994,2.5927,2.4072,2.4488,2.4174,2.3454,2.3544,2.4594,2.6167,2.7811,2.9471,3.0898,0.0,0.0,0.0,0.0,0.0,1.3377,1.3463,1.4004,1.4581,0.0,0.0,0.0,1.8657,1.8979,1.8681,1.7853,1.6971,1.6209,1.5503,1.4704,1.4242,1.4279,1.4279,1.441,1.4871,1.4883,1.5145,1.5619,1.6515,1.6935,1.7064,1.7793,1.8001,1.7705,1.762,0.0,0.0,1.7255,1.6933,1.664,1.7759,1.7751,1.7177,1.8089,1.8479,1.8589,1.8609,1.85,1.8511,1.9367,1.9002,0.0,0.0,0.0,0.0,0.0,0.0,0.0,0.0,0.0,0.0,0.0,0.0,0.0,1.9993,1.986,1.9794,0.0,1.9334,1.9078,1.8945,1.8891,1.8811,1.8691,1.9345,1.9786,1.9546,1.9359,1.9252,1.9252,1.9252,1.9252,1.9252,1.9626,1.9867,1.9867,2.0094,2.0254,2.0307,2.0976,2.1244,2.0915,2.2326,2.3505,2.4434,2.504,2.5712,2.6445,2.6555,2.6646,2.6646,2.6755,2.6294,2.5339,2.5339,2.4485,2.3067,2.3684,2.3528,2.2915,2.2537,2.3779,2.595,2.7022,2.8861,3.0898,0.0,0.0,1.1404,1.3292,1.3437,1.3389,1.3607,1.4496,1.5185,0.0,1.7048,1.8784,1.981,1.922,1.8396,1.7384,1.6901,1.6097,1.4612,1.4626,1.4552,1.4368,1.4517,1.4785,1.5101,1.5026,1.5281,1.5802,1.6671,1.7198,1.741,1.8025,1.8185,1.7964,1.7687,0.0,0.0,0.0,1.6893,1.6514,1.7864,1.7614,1.661,1.8282,1.8682,1.8353,1.906,1.9326,1.943,1.9641,1.9707,0.0,0.0,0.0,0.0,0.0,1.9368,0.0,0.0,0.0,0.0,0.0,0.0,0.0,2.0351,2.0298,2.001,0.0,1.9442,1.9361,1.9047,1.9155,1.9223,1.898,1.9112,1.9082,1.8597,1.8517,1.849,1.849,1.8464,1.845,1.849,1.8958,1.9279,1.9319,1.9853,2.0054,1.9773,1.9786,1.9679,1.9426,2.093,2.1683,2.169,2.3267,2.4007,2.3898,2.4211,2.4318,2.4318,2.454,2.4433,2.4024,2.3991,2.3132,2.1788,2.1788,2.1744,2.173,2.1161,2.2883,2.5668,2.6094,2.8247,3.0898,0.0,0.0,1.1806,1.3776,1.4304,1.44,1.4448,1.5022,1.5508,1.5732,1.7277,1.8477,1.8724,1.9199,1.9045,1.7872,1.7139,1.651,1.5959,1.4934,1.443,1.4628,1.4467,1.4586,1.5101,1.4695,1.4913,1.5866,1.6049,1.6394,1.6873,1.7443,1.7667,1.7687,1.7635,1.7477,0.0,0.0,0.0,1.7006,1.7792,1.7792,1.7453,1.8751,1.9331,1.9457,1.9397,1.9404,1.9391,1.9402,1.9633,1.9902,0.0,0.0,0.0,1.9681,0.0,0.0,0.0,0.0,0.0,0.0,2.0395,0.0,2.0254,2.0325,2.0392,0.0,1.991,1.9639,1.9567,1.9035,1.8702,1.9151,1.8705,1.8428,1.8758,1.8637,1.849,1.849,1.8277,1.8169,1.8464,1.8597,1.8758,1.8998,1.9546,1.976,1.9466,1.9679,1.9773,1.972,1.9825,2.0681,2.2334,2.2402,2.3142,2.4523,2.4589,2.4622,2.4622,2.4466,2.3687,2.2455,2.2253,2.1379,2.026,2.026,2.0337,2.0703,2.2083,2.3853,2.5787,2.7372,2.9157,3.0898,0.0,1.1616,1.2032,1.398,1.44,1.4592,1.4844,1.5329,1.591,1.6446,1.7731,1.8898,1.9571,1.9535,1.9162,1.8391,1.7318,1.6544,1.6122,1.5018,1.4482,1.4669,1.4826,1.5008,1.5294,1.514,1.5375,1.5915,1.6341,1.66,1.6742,1.742,1.771,1.7582,1.7583,1.7542,0.0,0.0,1.7376,1.7198,1.7966,0.0,1.8333,1.9371,1.9833,2.004,2.0187,2.018,2.0006,1.9834,2.0017,0.0,2.0115,2.0183,2.0255,0.0,2.0153,2.0291,0.0,0.0,0.0,2.0503,0.0,0.0,0.0,2.04,2.0461,2.0321,2.0082,1.9837,1.957,1.9358,1.9257,1.9309,1.9034,1.896,1.9277,1.8809,1.849,1.849,1.8357,1.8263,1.8263,1.8397,1.8611,1.8905,1.9332,1.9519,1.943,1.9506,1.9586,1.9586,1.9586,2.0133,2.1121,2.1106,2.1534,2.2453,2.2617,2.2617,2.2453,2.2468,2.1935,2.0925,2.0769,2.0344,1.98,1.98,1.9973,2.0375,2.2355,2.4139,2.5846,2.773,2.9471,3.0898,0.0,0.0,1.2356,1.41,1.4448,1.4592,1.4987,1.5554,1.6295,1.7255,1.828,1.9295,2.0147,1.9457,1.8803,1.8533,1.6942,1.5988,1.6106,1.4934,1.4445,1.4775,1.5231,1.5523,1.5676,1.568,1.5692,1.574,1.6531,1.6794,1.647,1.7475,1.7806,1.7543,1.7943,1.7861,0.0,0.0,0.0,1.726,0.0,1.8542,1.8707,1.9528,1.9913,2.0093,2.0686,2.0788,2.0561,2.0368,2.0502,2.07,2.0357,2.0601,0.0,0.0,0.0,0.0,0.0,0.0,0.0,0.0,0.0,2.0798,0.0,0.0,0.0,2.0297,2.0249,2.0121,1.9711,1.9867,1.9994,1.9643,1.9602,1.9649,1.976,1.9164,1.8727,1.8659,1.8589,1.8425,1.8185,1.8577,1.8832,1.8905,1.9371,1.9591,1.943,1.943,1.943,1.943,1.9599,1.9773,1.988,2.012,2.0207,2.0321,2.0561,2.0521,2.0241,2.0428,2.0254,1.98,1.9746,1.9773,1.988,1.988,2.0094,2.0598,2.2748,2.4379,2.5846,2.8104,2.9707,3.0898,1.2096,1.2528,0.0,1.4459,1.4831,1.4939,1.4783,1.5603,1.6755,1.8087,1.9031,1.9134,1.7862,1.7835,1.7843,0.0,1.5058,1.4488,1.6749,1.4719,1.3953,1.5161,1.5199,1.5503,1.6287,1.5311,1.4936,1.5102,1.5789,1.5946,1.5677,1.7041,1.749,1.7345,1.9141,1.8803,0.0,0.0,1.8973,0.0,1.8172,1.8122,0.0,1.8402,1.8965,1.9449,2.0093,2.0307,2.0281,0.0,2.0837,2.1047,0.0,2.083,2.073,2.0823,0.0,0.0,0.0,0.0,0.0,0.0,2.0747,0.0,0.0,0.0,2.0576,2.0778,0.0,2.0762,2.0731,0.0,0.0,2.0632,1.9896,1.9439,1.9976,1.9762,1.9476,1.9252,1.8767,1.859,1.8765,1.9582,1.978,1.8975,1.9917,2.0213,1.943,1.943,1.943,1.943,1.9457,1.9666,2.0174,2.0153,2.0361,2.0628,2.0655,2.0521,2.0167,2.0,1.9867,1.9786,1.9533,1.9706,2.0127,2.0127,2.0508,2.1289,2.4188,2.544,2.6025,2.9381,3.0762,3.0898,1.2678,1.3143,0.0,0.0,1.4939,1.5131,1.5166,1.6087,1.7341,1.8928,1.9313,1.9415,1.9202,0.0,0.0,0.0,0.0,1.5932,0.0,1.5818,1.4944,1.4775,1.5132,1.5316,1.5247,1.4851,1.4665,1.4773,1.5724,1.6041,1.5779,1.7001,1.7529,1.7503,1.9381,0.0,1.7601,0.0,1.9669,0.0,0.0,1.8521,0.0,1.9158,1.9845,2.0337,2.0247,2.0454,2.0708,2.0733,2.1031,0.0,0.0,0.0,0.0,2.1246,0.0,0.0,0.0,0.0,0.0,0.0,0.0,0.0,2.095,0.0,2.0771,2.0873,0.0,0.0,0.0,0.0,0.0,0.0,2.0254,2.0099,2.0524,2.0223,1.9863,1.9549,1.9628,1.9564,1.9368,1.9278,1.9179,1.8905,1.9367,1.9573,1.9417,1.943,1.9439,1.9613,1.9626,1.9893,2.0481,2.0494,2.0548,2.0681,2.0681,2.0428,1.9973,1.9853,1.9706,1.9546,1.9599,1.9853,2.0254,2.0414,2.0735,2.1398,2.4605,2.5813,2.6131,2.855,3.0079,3.0898,1.3281,0.0,0.0,0.0,1.5083,1.5395,1.57,1.6496,1.759,1.9067,1.9237,1.9231,1.9384,1.9099,0.0,0.0,1.7799,1.7103,0.0,0.0,1.5626,1.45,1.5342,0.0,1.4372,1.4746,1.4896,1.48,1.5797,1.6201,1.6048,1.7093,1.7569,1.7556,1.9499,1.9512,1.8238,0.0,2.0133,1.8649,1.8933,1.9111,1.9369,1.9902,2.0446,2.0815,2.0388,2.0561,2.0949,2.0779,2.1127,2.153,2.1211,2.1273,2.1465,0.0,0.0,0.0,2.1237,0.0,0.0,0.0,0.0,0.0,0.0,2.0664,2.0553,2.0699,2.0782,0.0,0.0,0.0,0.0,0.0,0.0,2.057,2.0751,2.0461,2.0145,1.9896,2.0169,2.0234,1.9975,1.9401,1.9112,1.9108,1.9203,1.9296,1.9239,1.9399,1.9586,1.9786,1.988,2.016,2.0668,2.0681,2.0681,2.0681,2.0601,2.0294,1.98,1.972,1.9559,1.9386,1.9679,1.996,2.0254,2.0548,2.0842,2.1348,2.4224,2.5619,2.6227,2.8307,2.9844,3.0898,1.3786,1.4508,0.0,0.0,0.0,1.5878,1.6219,1.6754,1.7333,1.7974,1.855,0.0,0.0,0.0,0.0,0.0,0.0,1.6973,1.9039,0.0,1.5528,0.0,0.0,1.5909,0.0,1.5311,1.5687,1.5288,1.5976,1.6299,1.6314,1.7184,1.7463,1.7306,1.9653,1.9808,1.8506,2.0343,2.0416,1.9277,1.9296,1.9832,2.0566,2.0042,2.0011,2.0254,2.0241,2.0428,2.0703,2.0713,2.1086,2.153,2.1208,2.1075,2.1044,0.0,0.0,0.0,2.0707,2.1008,2.1324,2.117,2.0605,2.0199,2.0478,2.0,1.9709,0.0,0.0,0.0,0.0,0.0,0.0,0.0,0.0,0.0,0.0,2.0493,2.0471,2.0379,2.0189,2.0114,2.0421,2.059,2.0372,1.973,2.0016,1.9864,1.8931,1.9479,1.9786,1.98,2.0067,2.0361,2.0668,2.0681,2.0681,2.0668,2.0388,2.0094,1.9786,1.9506,1.943,1.9386,1.9679,1.996,2.0254,2.0548,2.0842,2.1299,2.3014,2.4655,2.6409,2.9648,3.082,3.0898,0.0,0.0,0.0,0.0,0.0,0.0,1.5973,1.6138,1.6433,1.6932,1.7508,0.0,0.0,1.7686,1.8661,0.0,0.0,1.9604,2.009,1.8899,0.0,0.0,0.0,1.5909,0.0,0.0,1.5255,1.5389,1.5991,1.6308,1.6338,1.7162,1.766,1.7833,2.0048,2.0301,0.0,0.0,0.0,0.0,0.0,2.0116,2.0156,2.031,2.058,2.0815,2.0815,2.0882,2.0949,2.0967,2.1121,2.1245,2.093,2.0837,2.0757,2.0508,2.0564,2.0779,2.0686,2.0927,2.1199,2.1114,2.0762,2.0439,2.0522,2.0225,1.9872,0.0,0.0,0.0,0.0,0.0,0.0,0.0,0.0,0.0,0.0,2.0566,2.0522,2.0734,2.0467,2.0445,2.0742,2.0008,1.9502,1.9428,1.9223,1.9135,1.9256,1.9586,1.9973,2.0361,2.0468,2.0668,2.0962,2.0962,2.0869,2.0668,2.0374,2.0127,2.008,1.9786,1.976,1.996,2.0254,2.0441,2.0548,2.0842,2.1015,2.1348,2.4101,2.5497,2.6288,2.8426,2.9962,3.0898,1.3485,0.0,0.0,0.0,0.0,1.5294,1.5634,1.5919,1.6022,0.0,1.6664,0.0,1.5971,0.0,1.9231,0.0,2.1015,2.1607,2.0657,2.0367,0.0,1.7187,1.715,1.6774,0.0,0.0,0.0,0.0,1.6163,1.6477,1.6617,1.7359,1.7921,1.826,1.9612,2.0017,1.9752,2.0886,2.1017,0.0,0.0,2.0582,0.0,2.0699,2.0819,2.0787,2.1006,2.1109,2.1109,2.1109,2.1034,2.0916,2.073,2.0571,2.0319,2.0155,2.026,2.0351,2.0358,2.0653,2.0929,2.0945,2.0744,2.0544,2.0443,2.0121,1.9819,1.9623,0.0,0.0,0.0,0.0,0.0,0.0,0.0,0.0,0.0,2.0718,2.067,2.0893,2.0643,2.0529,2.0757,1.9881,1.928,1.9158,1.8906,1.8874,1.9095,1.9626,2.012,2.0508,2.0722,2.0922,2.1109,2.1109,2.1015,2.0828,2.0535,2.0388,2.0374,2.008,2.0054,2.018,2.0441,2.0575,2.0695,2.0882,2.1015,2.1348,2.4101,2.5497,2.6288,2.8486,2.9962,3.0898,1.3083,1.4027,0.0,0.0,1.501,1.4726,1.5267,1.6042,1.6026,0.0,1.6059,1.6742,1.5208,1.8113,2.001,1.9761,2.2258,2.2935,2.0914,2.1528,0.0,0.0,1.8711,1.8532,1.5753,0.0,0.0,0.0,0.0,1.6839,1.7114,1.7715,1.819,1.8521,1.8464,0.0,2.0153,1.9561,2.0003,2.1109,2.1109,2.1096,2.1082,2.1109,2.0747,2.0286,2.0876,2.1109,2.1109,2.1096,2.0909,2.0668,2.0641,2.0254,1.98,1.98,1.98,1.9792,1.9815,2.0215,2.0635,2.064,2.06,2.0459,2.0111,1.9775,1.9554,1.9546,1.9866,0.0,0.0,0.0,0.0,0.0,0.0,0.0,0.0,0.0,2.0925,2.0925,2.0588,0.0,0.0,2.0241,1.9739,1.8907,1.9158,1.9085,1.8586,1.9599,2.0227,2.0254,2.0815,2.1109,2.1109,2.1109,2.1109,2.1109,2.0815,2.0681,2.0681,2.0388,2.0207,2.022,2.0207,2.0428,2.0695,2.0681,2.0842,2.1299,2.2966,2.4655,2.653,2.9726,3.0898,3.0898,1.3796,1.4998,1.5907,1.6062,1.5074,1.4636,1.5863,1.5415,1.4856,1.4548,1.6477,1.7355,1.6044,1.9357,2.1569,2.1239,2.3022,0.0,0.0,0.0,0.0,2.0618,1.9827,1.9198,1.8727,1.7793,1.7138,1.6762,0.0,1.6779,1.7023,1.7704,1.8272,1.8818,1.8787,1.9305,2.0167,1.9797,2.02,2.1109,2.1109,2.085,2.0503,2.0903,2.0747,2.0286,2.0876,2.1109,2.1082,2.0855,2.0735,2.0601,2.016,1.992,1.98,1.98,1.98,1.9826,2.0033,2.0241,2.0369,2.064,2.0492,2.0261,2.0175,2.0076,1.9835,1.9167,1.9818,2.0302,1.9639,2.0343,2.1033,0.0,0.0,0.0,0.0,0.0,0.0,2.0925,2.0638,2.0566,2.0771,2.021,1.9729,1.9517,1.9556,1.9487,1.9176,2.0213,2.0708,2.0548,2.0922,2.1109,2.1109,2.1109,2.1109,2.1109,2.0815,2.0788,2.0989,2.0695,2.0681,2.0869,2.0655,2.0735,2.0989,2.0762,2.0842,2.1299,2.2966,2.533,2.8051,3.0138,3.0898,3.0898,1.3884,1.5208,1.6151,1.6266,1.5199,1.4582,1.5374,1.5129,1.4755,1.4285,1.5945,1.7064,1.6665,1.9135,2.1067,2.1772,2.3364,0.0,2.321,0.0,0.0,2.1449,2.0565,2.0047,2.0011,1.8854,0.0,1.7244,0.0,1.7307,1.7261,1.8013,1.8589,1.8889,0.0,1.9129,1.9813,2.0077,2.0504,2.0935,2.1056,2.0889,0.0,2.0979,2.0889,2.0645,2.0992,2.1109,2.1069,2.0775,2.0588,2.0401,1.9947,1.972,1.9613,1.9613,1.9613,1.9639,1.9813,1.9947,2.004,2.028,2.0253,2.0164,2.0078,2.0053,1.9802,1.9154,1.9778,2.0254,1.9473,2.0443,2.1332,0.0,0.0,0.0,0.0,0.0,0.0,0.0,2.0928,2.0768,2.1043,2.037,1.9789,1.9564,1.9852,1.9926,1.971,2.0513,2.0945,2.0827,2.1016,2.1109,2.1109,2.1109,2.1109,2.1109,2.0949,2.0949,2.1096,2.0935,2.0949,2.1096,2.0802,2.0842,2.1082,2.0802,2.0842,2.1348,2.3745,2.533,2.6668,2.9785,3.0898,3.0898,1.3814,1.5002,0.0,0.0,1.5278,1.4431,1.4531,1.4971,1.4979,1.3952,1.5176,1.6367,1.7272,1.8405,1.9928,2.1971,2.3551,2.3957,2.2697,2.3081,2.244,2.0567,2.0988,2.0797,1.9929,1.9507,1.8758,0.0,0.0,1.8031,1.7598,1.8369,1.8823,1.8881,0.0,0.0,0.0,2.0318,2.0695,2.0762,2.1002,2.1109,2.1109,2.1069,2.1056,2.1042,2.1002,2.1015,2.1002,2.0722,2.0428,2.012,1.984,1.9573,1.943,1.9412,1.9457,1.943,1.9412,1.9586,1.976,1.9786,1.9987,2.01,1.9883,1.9846,1.9778,1.938,1.98,2.0092,1.96,2.06,2.1586,0.0,0.0,0.0,0.0,0.0,0.0,0.0,0.0,0.0,2.1334,2.0598,1.9984,1.9479,2.0163,2.0386,2.0086,2.0686,2.0998,2.0906,2.1039,2.1109,2.1109,2.1109,2.1109,2.1109,2.1109,2.1109,2.1109,2.1109,2.1109,2.1096,2.0802,2.0842,2.1082,2.0802,2.0842,2.1411,2.4455,2.4962,2.4486,2.8938,3.0704,3.0898,1.4518,0.0,0.0,0.0,1.4903,1.3806,1.4959,1.4353,1.3866,1.4077,1.541,1.6832,1.8042,1.9951,2.1814,2.3624,2.3872,0.0,0.0,0.0,0.0,2.0038,2.1147,2.0786,1.8515,1.8999,1.891,0.0,0.0,1.7718,1.7864,1.8059,1.8428,0.0,0.0,0.0,1.9386,2.0275,0.0,2.1042,2.1082,2.1109,2.1082,2.0842,2.0748,2.0722,2.0481,2.0548,2.0708,2.0414,2.012,1.9826,1.9533,1.947,1.9412,1.9653,1.9559,1.947,1.9653,1.9586,1.9506,1.9733,1.984,1.9853,1.9805,1.9966,1.9993,1.9515,1.9824,2.018,2.0174,2.0742,2.1269,2.1545,2.107,0.0,0.0,0.0,0.0,0.0,0.0,2.1197,2.1585,2.0909,2.0408,2.0287,2.0605,2.0518,1.9835,2.0757,2.1045,2.0375,2.0837,2.1109,2.1109,2.1109,2.1109,2.1109,2.1109,2.1109,2.1109,2.1109,2.1109,2.1096,2.0802,2.0842,2.1082,2.0802,2.0842,2.1299,2.3263,2.4655,2.5863,2.8051,2.9707,3.0898,1.5124,0.0,0.0,0.0,1.5005,1.4018,1.4563,1.3898,1.3472,1.4119,1.4738,1.5826,1.7514,1.9116,2.0739,2.2508,2.3484,2.3928,2.3754,2.3193,2.2238,2.0977,2.1293,2.0873,1.9474,1.9843,1.964,1.8814,1.8686,1.8489,1.8177,1.8351,1.845,1.8428,0.0,1.8614,0.0,0.0,2.0615,2.0895,2.1042,2.1015,2.0869,2.0735,2.0575,2.0428,2.0281,2.0227,2.0201,2.0054,1.992,1.9746,1.9452,1.943,1.9457,1.9533,1.9479,1.9457,1.9533,1.9466,1.9457,1.9546,1.9573,1.9573,1.9573,1.9679,1.9706,1.9426,1.9706,2.008,2.0465,2.0701,2.0952,2.1238,2.1294,2.1233,0.0,0.0,2.1104,0.0,0.0,0.0,0.0,2.1163,2.0862,2.0733,2.0801,2.0643,2.0137,2.0952,2.1162,2.0644,2.0908,2.1109,2.1109,2.1109,2.1109,2.1109,2.1109,2.1109,2.1109,2.1109,2.1109,2.1096,2.0962,2.0975,2.1096,2.0962,2.0989,2.1299,2.2966,2.4054,2.5085,2.7512,2.892,2.9726,1.55,1.5771,0.0,1.6899,1.5722,1.4664,1.4728,1.3826,1.3363,1.3906,1.3875,1.4514,1.6425,1.7683,1.9106,2.0935,2.2752,2.3647,2.326,2.2659,2.2058,2.1358,2.125,2.0879,2.0263,2.0522,2.0341,0.0,1.9624,1.9274,1.8576,1.8693,1.8517,1.8089,1.8425,1.8907,1.945,2.0051,2.0494,2.0788,2.1015,2.0975,2.0762,2.0628,2.0441,2.0214,2.0094,1.9907,1.9706,1.9706,1.9706,1.9666,1.9497,1.943,1.943,1.943,1.943,1.943,1.943,1.943,1.943,1.943,1.943,1.943,1.943,1.943,1.943,1.943,1.9599,1.9951,2.0531,2.0586,2.0614,2.0879,2.1201,2.1343,2.1139,0.0,0.0,0.0,0.0,0.0,2.1112,2.1165,2.1097,2.0854,2.0869,2.0742,2.0411,2.0974,2.1247,2.1071,2.1135,2.12,2.1267,2.1132,2.1109,2.1109,2.1109,2.1109,2.1109,2.1109,2.1109,2.1109,2.1109,2.1109,2.1109,2.1109,2.1109,2.1235,2.2529,2.3263,2.3931,2.6832,2.811,2.8664,1.5529,0.0,1.7883,1.9928,1.7612,1.5866,1.6965,1.4809,1.3084,1.324,1.3189,1.3691,1.5302,1.6852,1.855,2.0573,2.1843,2.2672,2.2886,2.2352,2.1214,1.934,2.0734,2.0644,1.8732,2.0039,2.0601,0.0,1.9694,1.9302,1.9203,1.8661,1.8398,1.8382,1.8949,1.9399,1.9781,2.0398,2.0802,2.1069,2.1096,2.1096,2.1015,2.0481,2.0254,2.016,1.9639,1.9439,1.947,1.947,1.947,1.9399,1.943,1.943,1.943,1.943,1.943,1.943,1.943,1.943,1.943,1.943,1.943,1.943,1.943,1.943,1.943,1.943,1.9599,1.9897,2.0252,2.01,1.9979,2.0328,1.9954,1.9798,2.0267,0.0,2.0219,2.0941,0.0,0.0,2.059,2.0689,2.0669,2.0567,2.0748,2.0689,2.0154,2.0711,2.1084,2.1174,2.1381,2.1586,2.1916,2.1339,2.1109,2.1109,2.1109,2.1109,2.1109,2.1109,2.1109,2.1109,2.1109,2.1109,2.1109,2.1109,2.1109,2.1109,2.1299,2.2278,2.3807,2.5558,2.7134,2.8664,1.5803,1.7371,1.8936,2.0044,1.7945,1.6249,1.6568,1.4422,1.284,1.2901,1.2861,1.3054,1.3597,1.5236,1.6847,1.8325,2.0005,2.1412,2.2284,2.1951,2.141,2.063,2.1056,2.0898,2.0068,2.0674,2.08,2.0602,2.0066,1.9612,1.9249,1.8964,1.8974,1.9165,1.9292,1.9646,2.0325,2.0584,2.0842,2.1096,2.0922,2.0748,2.0535,2.0134,1.9867,1.9679,1.9511,1.943,1.943,1.943,1.943,1.943,1.943,1.943,1.943,1.943,1.943,1.943,1.943,1.943,1.943,1.943,1.943,1.943,1.943,1.943,1.943,1.943,1.9466,1.9623,1.9734,1.9976,2.0017,1.9778,2.0031,2.0174,2.0174,0.0,0.0,2.0474,0.0,2.0401,0.0,2.0479,2.0585,2.0518,2.045,2.047,2.0644,2.0712,2.0873,2.1071,2.1208,2.13,2.1485,2.1231,2.1109,2.1109,2.1109,2.1109,2.1109,2.1109,2.1109,2.1109,2.1109,2.1109,2.1109,2.1109,2.1109,2.1109,2.1109,2.209,2.3807,2.5375,2.7211,2.9028,1.6297,1.7999,1.9622,2.0788,1.8728,1.686,1.6599,1.4284,1.2535,1.2535,1.2535,1.2508,1.2447,1.3514,1.4962,1.6866,1.8725,2.0398,2.1818,2.1577,2.143,2.143,2.1216,2.1362,2.1853,2.1362,2.1235,2.1475,2.0666,2.0017,1.9487,1.9362,1.9499,1.9843,1.9733,2.0038,2.0661,2.073,2.0922,2.1082,2.0788,2.0548,2.0321,1.9947,1.9679,1.9479,1.9457,1.943,1.943,1.943,1.943,1.943,1.943,1.943,1.943,1.943,1.943,1.943,1.943,1.943,1.943,1.943,1.943,1.943,1.943,1.943,1.943,1.943,1.943,1.943,1.943,1.9764,1.988,1.9488,1.9942,2.0233,2.0127,2.0027,0.0,2.0455,2.0441,2.0357,2.023,2.0439,2.0516,2.0277,2.0012,2.0125,2.0574,2.063,2.0751,2.1026,2.1155,2.1257,2.1352,2.1182,2.1109,2.1109,2.1109,2.1109,2.1109,2.1109,2.1109,2.1109,2.1109,2.1109,2.1109,2.1109,2.1109,2.1172,2.1664,2.2335,2.3285,2.5352,2.6795,2.7998,1.6899,1.8373,2.0057,2.2789,2.0292,1.7905,1.7915,1.4564,1.2149,1.2149,1.2149,1.2128,1.2277,1.1965,1.3138,1.6685,1.8358,1.9856,2.1512,2.1283,2.1109,2.1109,2.1109,2.1853,2.3512,2.1978,2.1915,2.3574,2.1601,2.0459,2.0185,1.9861,1.9892,2.0207,2.0467,2.0634,2.0695,2.0989,2.1109,2.1082,2.0788,2.0668,2.0601,2.0027,1.98,1.976,1.9466,1.943,1.943,1.943,1.943,1.943,1.943,1.943,1.943,1.943,1.943,1.943,1.943,1.943,1.943,1.943,1.943,1.943,1.943,1.943,1.943,1.943,1.943,1.943,1.943,1.943,1.943,1.943,1.943,1.9537,1.976,1.9559,0.0,2.1042,2.0968,2.0655,2.0315,2.0585,2.0513,1.9788,1.9523,1.9513,1.9696,2.0273,2.0772,2.1188,2.1398,2.1651,2.1996,2.1388,2.1109,2.1109,2.1109,2.1109,2.1109,2.1109,2.1109,2.1109,2.1109,2.1109,2.1109,2.1109,2.1109,2.1235,2.2904,2.2777,2.1988,2.5203,2.5549,2.4918,1.4922,1.6757,1.8845,2.0991,1.8413,1.6443,1.7686,1.4514,1.1904,1.1904,1.0633,1.0298,1.1677,1.1728,1.2479,1.4622,1.6183,1.7785,1.9374,2.0514,2.1109,2.1109,2.1109,2.1362,2.1853,2.1348,2.1362,2.1915,2.1046,2.0563,2.0472,2.0214,2.0299,2.0828,2.069,2.0806,2.0975,2.1069,2.1109,2.1069,2.0575,2.0374,2.0307,1.972,1.9506,1.9492,1.9457,1.943,1.943,1.943,1.943,1.943,1.943,1.943,1.943,1.943,1.943,1.943,1.943,1.943,1.943,1.943,1.943,1.943,1.943,1.943,1.943,1.943,1.943,1.943,1.943,1.943,1.943,1.943,1.943,1.9466,1.976,1.9546,1.9596,2.0174,2.0024,1.9856,1.9928,1.9914,2.0072,2.0709,2.0475,2.047,2.0832,2.0494,2.0644,2.1398,2.1299,2.1306,2.1401,2.1182,2.1109,2.1109,2.1109,2.1109,2.1109,2.1109,2.1109,2.1109,2.1109,2.1109,2.1109,2.1109,2.1109,2.1172,2.1664,2.1792,2.1872,2.3989,2.4845,2.5202,1.4909,1.5737,1.6906,1.8915,1.6787,1.52,1.6418,1.3817,1.1728,1.1674,1.0497,1.0138,1.1308,1.1396,1.1999,1.3686,1.5175,1.6747,1.8396,2.0132,2.1109,2.1109,2.1109,2.1411,2.2027,2.1411,2.1411,2.2041,2.1235,2.0792,2.0792,2.0608,2.0747,2.1096,2.0922,2.0935,2.1109,2.1109,2.1042,2.0909,2.0428,2.0174,2.0013,1.9546,1.943,1.943,1.943,1.943,1.943,1.943,1.943,1.943,1.943,1.943,1.943,1.943,1.943,1.943,1.943,1.943,1.943,1.943,1.943,1.943,1.943,1.943,1.943,1.943,1.943,1.943,1.943,1.943,1.943,1.943,1.943,1.9439,1.9613,1.9479,1.96,2.0068,2.0078,2.0133,2.0319,2.0146,2.026,2.064,2.0548,2.0562,2.0903,2.0805,2.0889,2.1194,2.1105,2.1109,2.1109,2.1109,2.1109,2.1109,2.1109,2.1109,2.1109,2.1109,2.1109,2.1109,2.1109,2.1109,2.1109,2.1109,2.1109,2.1172,2.179,2.1924,2.197,2.3542,2.421,2.4486,1.6167,1.5142,1.4603,1.6648,1.5287,1.4047,1.4294,1.2779,1.1538,1.1396,1.1375,1.1321,1.1179,1.1036,1.1607,1.3456,1.5099,1.6737,1.8226,2.0094,2.1136,2.1136,2.1136,2.1866,2.3387,2.1915,2.1853,2.345,2.1853,2.1109,2.1109,2.1109,2.1109,2.1109,2.1109,2.1109,2.1109,2.1109,2.0949,2.0655,2.0347,2.0054,1.9773,1.9479,1.943,1.943,1.943,1.943,1.943,1.943,1.943,1.943,1.943,1.943,1.943,1.943,1.943,1.943,1.943,1.943,1.943,1.943,1.943,1.943,1.943,1.943,1.943,1.943,1.943,1.943,1.943,1.943,1.943,1.943,1.9403,1.9345,1.9417,1.9403,1.9693,2.0515,2.092,2.1128,2.1171,2.1146,2.0796,2.0026,1.9926,2.0047,2.0341,2.1224,2.1437,2.077,2.0962,2.1109,2.1109,2.1109,2.1109,2.1109,2.1109,2.1109,2.1109,2.1109,2.1109,2.1109,2.1109,2.1109,2.1109,2.1109,2.1109,2.1235,2.2856,2.2865,2.2175,2.3666,2.3672,2.3133,1.4455,1.4078,1.4045,1.468,1.3157,1.239,1.3871,1.2504,1.126,1.1219,1.1219,1.1275,1.1165,1.1036,1.1138,1.1757,1.437,1.6241,1.6889,1.9792,2.1443,2.1443,2.1443,2.1528,2.1664,2.1299,2.1299,2.1664,2.1299,2.1109,2.1109,2.1109,2.1109,2.1109,2.1109,2.1109,2.1109,2.1109,2.0949,2.0655,2.0347,2.0054,1.9773,1.9479,1.943,1.943,1.943,1.943,1.943,1.943,1.943,1.943,1.943,1.943,1.943,1.943,1.943,1.943,1.943,1.943,1.943,1.943,1.943,1.943,1.943,1.943,1.943,1.943,1.943,1.943,1.943,1.943,1.943,1.943,1.9172,1.9105,1.9332,1.9172,1.9243,1.9933,2.005,2.028,2.0795,2.0564,2.0754,2.1507,2.1388,2.1388,2.1631,2.1902,2.1693,2.1002,2.1069,2.1109,2.1109,2.1109,2.1109,2.1109,2.1109,2.1109,2.1109,2.1109,2.1109,2.1109,2.1109,2.1109,2.1109,2.1109,2.1109,2.1122,2.1797,2.2046,2.207,2.2683,2.2876,2.2928,1.6038,1.4606,1.3612,1.3849,1.2323,1.1426,1.2582,1.1848,1.1138,1.107,1.1063,1.1036,1.0968,1.0894,1.1237,1.2323,1.4684,1.6232,1.6455,1.9813,2.1762,2.1628,2.1614,2.1416,2.1122,2.1109,2.1109,2.1109,2.1109,2.1109,2.1109,2.1109,2.1109,2.1109,2.1109,2.1109,2.1109,2.1109,2.0949,2.0655,2.0494,2.0267,1.9987,1.9826,1.9679,1.9559,1.9559,1.9479,1.943,1.943,1.943,1.943,1.943,1.943,1.943,1.943,1.943,1.943,1.943,1.943,1.943,1.943,1.943,1.943,1.943,1.943,1.943,1.943,1.943,1.943,1.943,1.943,1.9319,1.9185,1.959,1.9747,1.9273,1.9647,1.9913,1.9805,1.992,2.0174,2.0628,2.0535,2.0684,2.1382,2.1321,2.1293,2.1458,2.1595,2.1488,2.1109,2.1109,2.1109,2.1109,2.1109,2.1109,2.1109,2.1109,2.1109,2.1109,2.1109,2.1109,2.1109,2.1109,2.1109,2.1109,2.1109,2.1189,2.1323,2.1561,2.1817,2.2205,2.2365,2.2605,2.2928,1.8729,1.6175,1.4011,1.3806,1.233,1.1219,1.1145,1.1097,1.105,1.086,1.0847,1.0799,1.0731,1.0916,1.1829,1.3587,1.5585,1.688,1.7042,2.0153,2.1857,2.1628,2.1614,2.1416,2.1122,2.1109,2.1109,2.1109,2.1109,2.1109,2.1109,2.1109,2.1109,2.1109,2.1109,2.1109,2.1109,2.1109,2.0949,2.0681,2.0681,2.0494,2.0167,2.0167,2.0054,1.98,1.98,1.9613,1.943,1.943,1.943,1.943,1.943,1.943,1.943,1.943,1.943,1.943,1.943,1.943,1.943,1.943,1.943,1.943,1.943,1.943,1.943,1.943,1.943,1.943,1.943,1.943,1.9363,1.9263,2.0145,2.0473,1.9421,2.0187,2.0686,1.9945,2.012,2.0414,2.0708,2.0735,2.0735,2.0735,2.0735,2.0735,2.0735,2.0975,2.1109,2.1109,2.1109,2.1109,2.1109,2.1109,2.1109,2.1109,2.1109,2.1109,2.1109,2.1109,2.1109,2.1109,2.1109,2.1109,2.1109,2.1109,2.1283,2.1614,2.1668,2.1951,2.2418,2.2472,2.2645,2.2928,1.8828,1.8086,1.6775,1.3853,1.312,1.246,1.0985,1.0792,1.0778,1.0758,1.0758,1.0744,1.0724,1.2025,1.3071,1.352,1.6643,1.8665,1.8919,2.0895,2.1857,2.1628,2.1614,2.1416,2.1122,2.1109,2.1109,2.1109,2.1109,2.1109,2.1109,2.1109,2.1109,2.1109,2.1109,2.1109,2.1109,2.1109,2.0949,2.0681,2.0681,2.0494,2.0167,2.0167,2.0054,1.98,1.98,1.9613,1.943,1.943,1.943,1.943,1.943,1.943,1.943,1.943,1.943,1.943,1.943,1.943,1.943,1.943,1.943,1.943,1.943,1.943,1.943,1.943,1.943,1.943,1.943,1.943,1.9716,2.0739,1.997,1.9661,2.0755,2.0178,1.9794,2.0107,2.0428,2.0722,2.1015,2.1042,2.1042,2.1042,2.1042,2.1042,2.1042,2.1082,2.1109,2.1109,2.1109,2.1109,2.1109,2.1109,2.1109,2.1109,2.1109,2.1109,2.1109,2.1109,2.1109,2.1109,2.1109,2.1109,2.1109,2.1109,2.1283,2.1641,2.1817,2.2124,2.2445,2.2699,2.2887,2.2928,2.0068,1.8372,1.656,1.5005,1.3128,1.163,1.085,1.0717,1.0717,1.0717,1.0717,1.0717,1.0717,1.2281,1.3787,1.4978,1.75,1.947,2.0535,2.149,2.1857,2.1628,2.1614,2.1416,2.1122,2.1109,2.1109,2.1109,2.1109,2.1109,2.1109,2.1109,2.1109,2.1109,2.1109,2.1109,2.1109,2.1109,2.1029,2.0909,2.0909,2.0735,2.0468,2.0468,2.0187,1.98,1.98,1.9613,1.943,1.943,1.943,1.943,1.943,1.943,1.943,1.943,1.943,1.943,1.943,1.943,1.943,1.943,1.943,1.943,1.943,1.943,1.947,1.9573,1.9599,1.9599,1.9599,1.9599,1.9775,2.0203,2.0199,2.0158,2.0278,2.045,2.0514,2.0248,2.0494,2.0788,2.1082,2.1109,2.1109,2.1109,2.1109,2.1109,2.1109,2.1109,2.1109,2.1109,2.1109,2.1109,2.1109,2.1109,2.1109,2.1109,2.1109,2.1109,2.1109,2.1109,2.1109,2.1109,2.1109,2.1109,2.1122,2.1283,2.1523,2.1817,2.2111,2.2405,2.2672,2.2806,2.2966,2.3086,1.9877,1.7731,1.5784,1.5394,1.3062,1.1188,1.0831,1.0744,1.0731,1.0772,1.0744,1.0717,1.0717,1.261,1.4557,1.6156,1.8273,2.0063,2.1379,2.1657,2.1683,2.1456,2.1443,2.1336,2.1109,2.1109,2.1109,2.1109,2.1109,2.1109,2.1109,2.1109,2.1109,2.1109,2.1109,2.1109,2.1109,2.1109,2.1109,2.1096,2.1042,2.0869,2.0668,2.0601,2.0254,1.98,1.98,1.9613,1.943,1.943,1.943,1.943,1.943,1.943,1.943,1.943,1.943,1.943,1.943,1.943,1.943,1.943,1.943,1.943,1.943,1.947,1.9533,1.976,1.9853,1.9907,1.9907,1.9907,1.9913,2.0047,2.0594,2.0741,2.0123,2.0788,2.1146,2.0429,2.0601,2.0869,2.1082,2.1109,2.1109,2.1109,2.1109,2.1109,2.1109,2.1109,2.1109,2.1109,2.1109,2.1109,2.1109,2.1109,2.1109,2.1109,2.1109,2.1109,2.1109,2.1109,2.1109,2.1109,2.1109,2.1109,2.1136,2.143,2.1789,2.2017,2.2311,2.2605,2.2928,2.2928,2.306,2.3287,1.6302,1.6108,1.5394,1.3774,1.3259,1.26,1.111,1.0812,1.0772,1.0847,1.0806,1.0717,1.0717,1.3709,1.5794,1.5944,1.8996,2.1009,2.1136,2.1162,2.1162,2.1149,2.1149,2.1136,2.1109,2.1109,2.1109,2.1109,2.1109,2.1109,2.1109,2.1109,2.1109,2.1109,2.1109,2.1109,2.1109,2.1109,2.1109,2.1082,2.0815,2.0695,2.0641,2.0374,2.0067,1.98,1.98,1.9613,1.943,1.943,1.943,1.943,1.943,1.943,1.943,1.943,1.943,1.943,1.943,1.943,1.943,1.943,1.943,1.943,1.943,1.9573,1.9773,1.98,2.0013,2.0201,2.0201,2.0201,2.0584,2.1821,2.1003,2.0678,2.1821,2.1265,2.0738,2.0641,2.0895,2.1082,2.1109,2.1109,2.1109,2.1109,2.1109,2.1109,2.1109,2.1109,2.1109,2.1109,2.1109,2.1109,2.1109,2.1109,2.1109,2.1109,2.1109,2.1109,2.1109,2.1109,2.1109,2.1109,2.1109,2.1109,2.1136,2.143,2.1789,2.2017,2.2311,2.2605,2.2928,2.2928,2.306,2.3327,1.5913,1.5005,1.4101,1.339,1.2413,1.146,1.0866,1.0758,1.0744,1.0799,1.0758,1.0717,1.0717,1.2865,1.4754,1.5784,1.8116,1.9941,2.1046,2.1109,2.1109,2.1109,2.1109,2.1109,2.1109,2.1109,2.1109,2.1109,2.1109,2.1109,2.1109,2.1109,2.1109,2.1109,2.1109,2.1002,2.0842,2.0842,2.0735,2.0548,2.0441,2.0294,2.012,2.0,1.9786,1.9533,1.9533,1.9466,1.943,1.943,1.943,1.943,1.943,1.943,1.943,1.943,1.943,1.947,1.9586,1.9639,1.9639,1.9639,1.9773,1.9907,1.9907,1.9987,2.012,2.0307,2.0428,2.0508,2.0508,2.0508,2.0671,2.1211,2.0672,2.0456,2.1183,2.0916,2.0681,2.0681,2.0935,2.1109,2.1109,2.1109,2.1109,2.1109,2.1109,2.1109,2.1109,2.1109,2.1109,2.1109,2.1109,2.1109,2.1109,2.1109,2.1109,2.1109,2.1109,2.1109,2.1109,2.1109,2.1109,2.1122,2.1309,2.139,2.143,2.1897,2.2151,2.2285,2.2579,2.2766,2.2928,2.2928,2.318,2.3581,1.3413,1.2914,1.2479,1.2479,1.1505,1.0738,1.0785,1.0751,1.0738,1.0785,1.0751,1.0717,1.0717,1.2281,1.3774,1.5005,1.7216,1.9024,2.0195,2.0779,2.1109,2.1109,2.1109,2.1109,2.1109,2.1109,2.1109,2.1109,2.1109,2.1109,2.1109,2.1109,2.1109,2.1109,2.1109,2.0949,2.0681,2.0681,2.0508,2.0167,2.0134,1.9973,1.9786,1.9693,1.9546,1.943,1.943,1.943,1.943,1.943,1.943,1.943,1.943,1.943,1.943,1.943,1.943,1.9439,1.972,1.9867,1.9933,1.9933,2.008,2.0167,2.0167,2.0307,2.0428,2.0641,2.0748,2.0815,2.0815,2.0815,2.0815,2.0815,2.0641,2.0575,2.0788,2.0815,2.0815,2.0815,2.0989,2.1109,2.1109,2.1109,2.1109,2.1109,2.1109,2.1109,2.1109,2.1109,2.1109,2.1109,2.1109,2.1109,2.1109,2.1109,2.1109,2.1109,2.1109,2.1109,2.1109,2.1203,2.1256,2.1269,2.1563,2.1762,2.1789,2.2218,2.2418,2.2445,2.2752,2.2928,2.2941,2.2966,2.3327,2.3754,0.803,0.9437,1.0717,1.0717,1.0717,1.0772,1.0853,1.0819,1.0772,1.086,1.0745,1.0717,1.0717,1.2215,1.3325,1.3325,1.6431,1.8448,1.8512,2.0132,2.1109,2.1109,2.1109,2.1109,2.1109,2.1109,2.1109,2.1109,2.1109,2.1109,2.1109,2.1109,2.1109,2.1109,2.1109,2.0949,2.0668,2.0668,2.0494,2.0201,1.9907,1.98,1.976,1.9479,1.943,1.943,1.943,1.943,1.943,1.943,1.943,1.943,1.943,1.943,1.943,1.943,1.943,1.9439,1.9733,2.0013,2.0167,2.018,2.0241,2.0241,2.0241,2.0468,2.0681,2.0681,2.0909,2.1109,2.1109,2.1109,2.1109,2.1109,2.1109,2.1109,2.1109,2.1109,2.1109,2.1109,2.1109,2.1109,2.1109,2.1109,2.1109,2.1109,2.1109,2.1109,2.1109,2.1109,2.1109,2.1109,2.1109,2.1109,2.1109,2.1109,2.1109,2.1109,2.1109,2.1109,2.1122,2.1416,2.1614,2.1641,2.1857,2.1991,2.2004,2.2298,2.2418,2.2458,2.2752,2.2928,2.2968,2.3207,2.3514,2.3808,0.803,0.9437,1.0717,1.0717,1.0717,1.0738,1.0778,1.0751,1.0738,1.0778,1.0751,1.0717,1.0717,1.1174,1.196,1.3193,1.4232,1.5913,1.8308,2.0132,2.1109,2.1109,2.1109,2.1109,2.1109,2.1109,2.1109,2.1109,2.1109,2.1109,2.1109,2.1109,2.1109,2.1096,2.0895,2.0641,2.0347,2.0147,1.9893,1.9626,1.9533,1.9492,1.9492,1.9457,1.943,1.943,1.943,1.943,1.943,1.943,1.943,1.943,1.943,1.943,1.947,1.9613,1.9533,1.9578,2.0227,2.0321,2.0281,2.0494,2.0695,2.0842,2.0842,2.0922,2.0975,2.0975,2.1042,2.1109,2.1109,2.1109,2.1109,2.1109,2.1109,2.1109,2.1109,2.1109,2.1109,2.1109,2.1109,2.1109,2.1109,2.1296,2.1336,2.1122,2.1296,2.1416,2.1416,2.1416,2.1323,2.1122,2.1109,2.1109,2.1109,2.1109,2.1109,2.1109,2.1109,2.1216,2.143,2.1574,2.1735,2.1871,2.2164,2.2285,2.2311,2.2605,2.2726,2.2739,2.2832,2.2993,2.3193,2.3287,2.3647,2.4088,0.7897,0.9437,1.0717,1.0717,1.0717,1.0717,1.0717,1.0717,1.0717,1.0717,1.0717,1.0717,1.0717,1.0717,1.1115,1.215,1.2865,1.4744,1.8244,1.9483,2.0386,2.1046,2.1109,2.1109,2.1109,2.1109,2.1109,2.1109,2.1109,2.1109,2.1109,2.1109,2.1109,2.1096,2.0802,2.0508,2.0153,1.992,1.9639,1.943,1.943,1.943,1.943,1.943,1.943,1.943,1.943,1.943,1.943,1.943,1.943,1.9444,1.9506,1.9466,1.9399,1.9573,1.9586,1.9679,2.0321,2.0454,2.0481,2.0775,2.0975,2.1109,2.1109,2.1109,2.1109,2.1109,2.1109,2.1109,2.1109,2.1109,2.1109,2.1109,2.1109,2.1109,2.1109,2.1109,2.1109,2.1109,2.1216,2.1283,2.1283,2.155,2.1643,2.147,2.1617,2.1789,2.1789,2.1789,2.1643,2.1456,2.1456,2.1456,2.1456,2.1456,2.1336,2.1109,2.1229,2.1376,2.1628,2.179,2.1991,2.2178,2.2472,2.2592,2.2605,2.2792,2.2928,2.2928,2.2928,2.2979,2.3153,2.3287,2.3621,2.4048,0.7431,0.9371,1.0724,1.0738,1.0731,1.0724,1.0738,1.0731,1.0717,1.0717,1.0717,1.0717,1.0717,1.0717,1.0717,1.0717,1.2281,1.4688,1.8052,1.8436,1.9291,2.1046,2.1109,2.1109,2.1109,2.1109,2.1109,2.1109,2.1109,2.1109,2.1109,2.1109,2.1096,2.1056,2.0762,2.0468,2.0174,1.988,1.9613,1.943,1.943,1.943,1.943,1.943,1.9386,1.9399,1.943,1.9457,1.9497,1.9412,1.947,1.9452,1.972,1.9639,1.9511,1.9537,1.9653,1.9907,2.0227,2.0494,2.0748,2.1042,2.1109,2.1109,2.1109,2.1109,2.1109,2.1109,2.1109,2.1109,2.1109,2.1109,2.1109,2.1109,2.1109,2.1122,2.1149,2.1149,2.1162,2.1189,2.143,2.1655,2.1655,2.183,2.2004,2.2058,2.2044,2.2031,2.2031,2.2031,2.2004,2.1991,2.1991,2.1991,2.1991,2.1991,2.171,2.1189,2.147,2.1668,2.1708,2.2178,2.2432,2.2472,2.2739,2.2928,2.2928,2.2928,2.2928,2.2928,2.2928,2.2886,2.2939,2.3247,2.3554,2.3848,0.5897,0.8507,1.0758,1.0813,1.0799,1.0758,1.0813,1.0799,1.0717,1.0717,1.0717,1.0717,1.0717,1.0717,1.0717,1.0717,1.2281,1.4232,1.6302,1.7731,1.9291,2.1046,2.1109,2.1109,2.1109,2.1109,2.1109,2.1109,2.1109,2.1109,2.1109,2.1109,2.0989,2.0762,2.0454,2.016,1.988,1.9586,1.9426,1.943,1.943,1.943,1.943,1.943,1.9506,1.9679,1.9511,1.9653,2.0013,1.9786,1.9706,1.972,1.9786,1.9907,2.0094,2.0321,2.0267,2.0254,2.0775,2.0802,2.0748,2.1042,2.1109,2.1109,2.1109,2.1109,2.1109,2.1109,2.1109,2.1109,2.1109,2.1109,2.1109,2.1109,2.1109,2.1189,2.143,2.1521,2.1537,2.1764,2.1857,2.1897,2.1897,2.1951,2.2178,2.2632,2.2458,2.2325,2.2325,2.2325,2.2218,2.1991,2.1991,2.1991,2.1991,2.1991,2.1924,2.179,2.1857,2.2004,2.2231,2.2365,2.2539,2.2766,2.2901,2.2928,2.2928,2.2928,2.2928,2.2928,2.2928,2.3006,2.326,2.3567,2.3861,2.4155,0.6498,0.8839,1.0744,1.0759,1.0772,1.0744,1.0759,1.0772,1.0717,1.0717,1.0717,1.0717,1.0717,1.0717,1.0717,1.0717,1.1505,1.3128,1.5719,1.6754,1.8436,2.0982,2.1109,2.1109,2.1109,2.1109,2.1109,2.1109,2.1109,2.1109,2.1109,2.1109,2.1029,2.0869,2.0575,2.0361,2.0187,1.976,1.9573,1.9559,1.9426,1.943,1.943,1.943,1.9466,1.9573,1.9426,1.9559,1.984,1.996,1.992,1.9853,2.0134,2.0227,2.0207,2.0414,2.0454,2.0508,2.0815,2.0895,2.0922,2.1069,2.1109,2.1109,2.1109,2.1109,2.1109,2.1109,2.1109,2.1109,2.1109,2.1109,2.1162,2.1296,2.1323,2.1416,2.1724,2.1764,2.1817,2.1964,2.2111,2.2245,2.2392,2.2405,2.2525,2.2914,2.2712,2.2632,2.2632,2.2632,2.2565,2.2405,2.2405,2.2405,2.2405,2.2405,2.2405,2.2405,2.2258,2.2271,2.2418,2.2565,2.2712,2.2928,2.2928,2.2928,2.2928,2.2928,2.2928,2.2928,2.2928,2.2966,2.314,2.3447,2.3834,2.4249,0.7298,0.9238,1.0731,1.0758,1.0738,1.0731,1.0758,1.0738,1.0717,1.0717,1.0717,1.0717,1.0717,1.0717,1.0717,1.0717,1.0717,1.215,1.5654,1.5913,1.7474,2.0982,2.1109,2.1109,2.1109,2.1109,2.1109,2.1109,2.1109,2.1109,2.1109,2.1109,2.1082,2.1029,2.0788,2.0615,2.0494,2.0013,1.9773,1.9706,1.9466,1.943,1.943,1.943,1.9457,1.9439,1.9444,1.9457,1.9519,2.0054,2.0107,2.004,2.0521,2.0548,2.0326,2.0326,2.0561,2.0748,2.0748,2.0922,2.1109,2.1109,2.1109,2.1109,2.1109,2.1109,2.1109,2.1109,2.1149,2.1162,2.1122,2.1189,2.1323,2.1588,2.1655,2.1724,2.2017,2.2058,2.2084,2.2124,2.2352,2.2592,2.2846,2.2928,2.2928,2.2928,2.2928,2.2928,2.2928,2.2928,2.2928,2.2928,2.2928,2.2928,2.2928,2.2928,2.2928,2.2928,2.2605,2.2498,2.2498,2.2752,2.2928,2.2928,2.2928,2.2928,2.2928,2.2928,2.2928,2.2928,2.2928,2.2928,2.2968,2.3273,2.3768,2.4315,0.5696,0.844,1.0765,1.0826,1.0806,1.0765,1.0833,1.0739,1.0717,1.0717,1.0717,1.0717,1.0717,1.0717,1.0717,1.0717,1.0717,1.215,1.5654,1.5913,1.7474,2.0982,2.1109,2.1109,2.1109,2.1109,2.1109,2.1109,2.1109,2.1109,2.1109,2.1109,2.0975,2.0735,2.0695,2.0401,1.992,1.9826,1.9653,1.9426,1.9386,1.943,1.943,1.943,1.9519,1.9706,1.9452,1.9533,1.9786,2.012,2.0374,2.0575,2.0655,2.0815,2.0989,2.0989,2.1015,2.1056,2.1056,2.1082,2.1109,2.1109,2.1109,2.1109,2.1109,2.1109,2.1109,2.1109,2.1309,2.1416,2.1162,2.1523,2.1804,2.1655,2.1764,2.2031,2.2311,2.2365,2.2458,2.2712,2.2779,2.2819,2.2928,2.2928,2.2928,2.2928,2.2928,2.2928,2.2928,2.2928,2.2928,2.2928,2.2928,2.2928,2.2928,2.2928,2.2928,2.2928,2.2819,2.2806,2.2806,2.2914,2.2928,2.2928,2.2928,2.2928,2.2928,2.2928,2.2928,2.2928,2.2928,2.2928,2.2995,2.35,2.4075,2.4583,0.5228,0.755,0.9686,1.0618,1.0766,1.0839,1.0759,1.0765,1.0717,1.0717,1.0717,1.0717,1.0717,1.0717,1.0717,1.0717,1.0717,1.215,1.5654,1.5913,1.7474,2.0982,2.1109,2.1109,2.1109,2.1109,2.1109,2.1109,2.1109,2.1109,2.1109,2.1109,2.1042,2.0922,2.0922,2.0775,2.0521,2.0361,2.012,1.984,1.9679,1.9506,1.943,1.943,1.9452,1.9559,1.9599,1.98,2.008,2.0388,2.0575,2.0708,2.0869,2.1002,2.1109,2.1109,2.1109,2.1109,2.1109,2.1109,2.1109,2.1109,2.1109,2.1109,2.1109,2.1109,2.1162,2.1323,2.1521,2.1628,2.159,2.1804,2.1991,2.2031,2.2151,2.2325,2.2632,2.2672,2.2712,2.2846,2.2928,2.2928,2.2928,2.2928,2.3324,2.4249,2.3461,2.3802,2.5719,2.4926,2.4791,2.5853,2.4858,2.4402,2.4656,2.3475,2.3102,2.3367,2.302,2.2928,2.2928,2.2928,2.2928,2.2928,2.2928,2.2928,2.2928,2.2928,2.2928,2.2928,2.2928,2.3142,2.3477,2.3674,2.4142,2.4636]}]]